<?xml version="1.0" encoding="UTF-8" standalone="no" ?>
<gpx xmlns="http://www.topografix.com/GPX/1/1" xmlns:xsi="http://www.w3.org/2001/XMLSchema-instance" xsi:schemaLocation="http://www.topografix.com/GPX/1/1 http://www.topografix.com/GPX/1/1/gpx.xsd" version="1.1" creator="VisuGPX - https://www.visugpx.com">
  <metadata>
    <name>83-D-Claviers</name>
    <desc><![CDATA[83-D-Claviers : col de St Arnoux - Chapelle Ste Anne
2021-06-13]]></desc>
  </metadata>
  <trk>
    <name><![CDATA[2021-06-13_D-Claviers]]></name>
    <extensions>
      <line xmlns="http://www.topografix.com/GPX/gpx_style/0/2">
        <width>4</width>
      </line>
    </extensions>
    <trkseg>
      <trkpt lat="43.60455" lon="6.56968">
        <ele>522.1</ele>
        <time>2021-06-13T07:33:33.000Z</time>
      </trkpt>
      <trkpt lat="43.60455" lon="6.56968">
        <ele>522</ele>
        <time>2021-06-13T07:33:34.000Z</time>
      </trkpt>
      <trkpt lat="43.60456" lon="6.56968">
        <ele>522</ele>
        <time>2021-06-13T07:33:35.000Z</time>
      </trkpt>
      <trkpt lat="43.60454" lon="6.56968">
        <ele>521.9</ele>
        <time>2021-06-13T07:33:41.000Z</time>
      </trkpt>
      <trkpt lat="43.60454" lon="6.56968">
        <ele>521.9</ele>
        <time>2021-06-13T07:33:45.000Z</time>
      </trkpt>
      <trkpt lat="43.60454" lon="6.56968">
        <ele>521.9</ele>
        <time>2021-06-13T07:33:46.000Z</time>
      </trkpt>
      <trkpt lat="43.60454" lon="6.56969">
        <ele>521.9</ele>
        <time>2021-06-13T07:33:48.000Z</time>
      </trkpt>
      <trkpt lat="43.60454" lon="6.56969">
        <ele>521.8</ele>
        <time>2021-06-13T07:33:49.000Z</time>
      </trkpt>
      <trkpt lat="43.60454" lon="6.56969">
        <ele>521.8</ele>
        <time>2021-06-13T07:33:53.000Z</time>
      </trkpt>
      <trkpt lat="43.60454" lon="6.56969">
        <ele>521.7</ele>
        <time>2021-06-13T07:33:54.000Z</time>
      </trkpt>
      <trkpt lat="43.60453" lon="6.56969">
        <ele>522.1</ele>
        <time>2021-06-13T07:33:57.000Z</time>
      </trkpt>
      <trkpt lat="43.60453" lon="6.56969">
        <ele>522.1</ele>
        <time>2021-06-13T07:33:58.000Z</time>
      </trkpt>
      <trkpt lat="43.60453" lon="6.56968">
        <ele>495.1</ele>
        <time>2021-06-13T07:34:38.000Z</time>
      </trkpt>
      <trkpt lat="43.60453" lon="6.56968">
        <ele>495.1</ele>
        <time>2021-06-13T07:34:38.000Z</time>
      </trkpt>
      <trkpt lat="43.60453" lon="6.56967">
        <ele>494.6</ele>
        <time>2021-06-13T07:34:48.000Z</time>
      </trkpt>
      <trkpt lat="43.60453" lon="6.56967">
        <ele>494.6</ele>
        <time>2021-06-13T07:34:49.000Z</time>
      </trkpt>
      <trkpt lat="43.60454" lon="6.56967">
        <ele>494.6</ele>
        <time>2021-06-13T07:34:52.000Z</time>
      </trkpt>
      <trkpt lat="43.60454" lon="6.56968">
        <ele>494.7</ele>
        <time>2021-06-13T07:34:55.000Z</time>
      </trkpt>
      <trkpt lat="43.60454" lon="6.56968">
        <ele>494.8</ele>
        <time>2021-06-13T07:34:58.000Z</time>
      </trkpt>
      <trkpt lat="43.60454" lon="6.56968">
        <ele>494.7</ele>
        <time>2021-06-13T07:34:59.000Z</time>
      </trkpt>
      <trkpt lat="43.60463" lon="6.56975">
        <ele>496.6</ele>
        <time>2021-06-13T07:35:19.000Z</time>
      </trkpt>
      <trkpt lat="43.60463" lon="6.56975">
        <ele>497.2</ele>
        <time>2021-06-13T07:35:36.000Z</time>
      </trkpt>
      <trkpt lat="43.60463" lon="6.56975">
        <ele>497.2</ele>
        <time>2021-06-13T07:35:37.000Z</time>
      </trkpt>
      <trkpt lat="43.60472" lon="6.56977">
        <ele>498.8</ele>
        <time>2021-06-13T07:35:51.000Z</time>
      </trkpt>
      <trkpt lat="43.60481" lon="6.56979">
        <ele>500.2</ele>
        <time>2021-06-13T07:36:01.000Z</time>
      </trkpt>
      <trkpt lat="43.6049" lon="6.56979">
        <ele>503.1</ele>
        <time>2021-06-13T07:36:20.000Z</time>
      </trkpt>
      <trkpt lat="43.60499" lon="6.56985">
        <ele>504.9</ele>
        <time>2021-06-13T07:36:32.000Z</time>
      </trkpt>
      <trkpt lat="43.60503" lon="6.56988">
        <ele>505.6</ele>
        <time>2021-06-13T07:36:39.000Z</time>
      </trkpt>
      <trkpt lat="43.60503" lon="6.56989">
        <ele>505.8</ele>
        <time>2021-06-13T07:36:40.000Z</time>
      </trkpt>
      <trkpt lat="43.60513" lon="6.56989">
        <ele>507.3</ele>
        <time>2021-06-13T07:36:52.000Z</time>
      </trkpt>
      <trkpt lat="43.60517" lon="6.56989">
        <ele>507.7</ele>
        <time>2021-06-13T07:36:57.000Z</time>
      </trkpt>
      <trkpt lat="43.60518" lon="6.56989">
        <ele>507.9</ele>
        <time>2021-06-13T07:36:58.000Z</time>
      </trkpt>
      <trkpt lat="43.60518" lon="6.56989">
        <ele>508.2</ele>
        <time>2021-06-13T07:37:00.000Z</time>
      </trkpt>
      <trkpt lat="43.60519" lon="6.56989">
        <ele>508.2</ele>
        <time>2021-06-13T07:37:01.000Z</time>
      </trkpt>
      <trkpt lat="43.60521" lon="6.5699">
        <ele>508.8</ele>
        <time>2021-06-13T07:37:07.000Z</time>
      </trkpt>
      <trkpt lat="43.6052" lon="6.5699">
        <ele>509</ele>
        <time>2021-06-13T07:37:08.000Z</time>
      </trkpt>
      <trkpt lat="43.6053" lon="6.56988">
        <ele>510.6</ele>
        <time>2021-06-13T07:37:23.000Z</time>
      </trkpt>
      <trkpt lat="43.60539" lon="6.56985">
        <ele>511.6</ele>
        <time>2021-06-13T07:37:32.000Z</time>
      </trkpt>
      <trkpt lat="43.60548" lon="6.5698">
        <ele>512.6</ele>
        <time>2021-06-13T07:37:41.000Z</time>
      </trkpt>
      <trkpt lat="43.60557" lon="6.56978">
        <ele>513.9</ele>
        <time>2021-06-13T07:37:52.000Z</time>
      </trkpt>
      <trkpt lat="43.60566" lon="6.56976">
        <ele>514.9</ele>
        <time>2021-06-13T07:38:02.000Z</time>
      </trkpt>
      <trkpt lat="43.60574" lon="6.56969">
        <ele>516.3</ele>
        <time>2021-06-13T07:38:11.000Z</time>
      </trkpt>
      <trkpt lat="43.60581" lon="6.56961">
        <ele>517.3</ele>
        <time>2021-06-13T07:38:23.000Z</time>
      </trkpt>
      <trkpt lat="43.6059" lon="6.56954">
        <ele>519.2</ele>
        <time>2021-06-13T07:38:41.000Z</time>
      </trkpt>
      <trkpt lat="43.60599" lon="6.56949">
        <ele>520.1</ele>
        <time>2021-06-13T07:38:51.000Z</time>
      </trkpt>
      <trkpt lat="43.60605" lon="6.56944">
        <ele>520.7</ele>
        <time>2021-06-13T07:39:01.000Z</time>
      </trkpt>
      <trkpt lat="43.60605" lon="6.56943">
        <ele>520.8</ele>
        <time>2021-06-13T07:39:02.000Z</time>
      </trkpt>
      <trkpt lat="43.60607" lon="6.5693">
        <ele>522.7</ele>
        <time>2021-06-13T07:39:20.000Z</time>
      </trkpt>
      <trkpt lat="43.60616" lon="6.56926">
        <ele>524.3</ele>
        <time>2021-06-13T07:39:33.000Z</time>
      </trkpt>
      <trkpt lat="43.60621" lon="6.56921">
        <ele>526.5</ele>
        <time>2021-06-13T07:39:51.000Z</time>
      </trkpt>
      <trkpt lat="43.60621" lon="6.56921">
        <ele>526.6</ele>
        <time>2021-06-13T07:39:52.000Z</time>
      </trkpt>
      <trkpt lat="43.60629" lon="6.56914">
        <ele>528.8</ele>
        <time>2021-06-13T07:40:10.000Z</time>
      </trkpt>
      <trkpt lat="43.60638" lon="6.56909">
        <ele>530.2</ele>
        <time>2021-06-13T07:40:19.000Z</time>
      </trkpt>
      <trkpt lat="43.60638" lon="6.5691">
        <ele>530.7</ele>
        <time>2021-06-13T07:40:21.000Z</time>
      </trkpt>
      <trkpt lat="43.60638" lon="6.5691">
        <ele>530.8</ele>
        <time>2021-06-13T07:40:22.000Z</time>
      </trkpt>
      <trkpt lat="43.60644" lon="6.56906">
        <ele>532.9</ele>
        <time>2021-06-13T07:40:41.000Z</time>
      </trkpt>
      <trkpt lat="43.60644" lon="6.56905">
        <ele>533</ele>
        <time>2021-06-13T07:40:42.000Z</time>
      </trkpt>
      <trkpt lat="43.60651" lon="6.56897">
        <ele>535.5</ele>
        <time>2021-06-13T07:41:04.000Z</time>
      </trkpt>
      <trkpt lat="43.60659" lon="6.56892">
        <ele>537.8</ele>
        <time>2021-06-13T07:41:21.000Z</time>
      </trkpt>
      <trkpt lat="43.60666" lon="6.56886">
        <ele>540</ele>
        <time>2021-06-13T07:41:49.000Z</time>
      </trkpt>
      <trkpt lat="43.60666" lon="6.56886">
        <ele>540.2</ele>
        <time>2021-06-13T07:41:50.000Z</time>
      </trkpt>
      <trkpt lat="43.60676" lon="6.56881">
        <ele>541.8</ele>
        <time>2021-06-13T07:42:02.000Z</time>
      </trkpt>
      <trkpt lat="43.60683" lon="6.56872">
        <ele>543.4</ele>
        <time>2021-06-13T07:42:17.000Z</time>
      </trkpt>
      <trkpt lat="43.6069" lon="6.56863">
        <ele>544.9</ele>
        <time>2021-06-13T07:42:29.000Z</time>
      </trkpt>
      <trkpt lat="43.60696" lon="6.56853">
        <ele>546.4</ele>
        <time>2021-06-13T07:42:40.000Z</time>
      </trkpt>
      <trkpt lat="43.60703" lon="6.56845">
        <ele>547.8</ele>
        <time>2021-06-13T07:42:49.000Z</time>
      </trkpt>
      <trkpt lat="43.60707" lon="6.56834">
        <ele>551.6</ele>
        <time>2021-06-13T07:43:07.000Z</time>
      </trkpt>
      <trkpt lat="43.60713" lon="6.56824">
        <ele>552.8</ele>
        <time>2021-06-13T07:43:24.000Z</time>
      </trkpt>
      <trkpt lat="43.60722" lon="6.56822">
        <ele>555.2</ele>
        <time>2021-06-13T07:43:42.000Z</time>
      </trkpt>
      <trkpt lat="43.6073" lon="6.56813">
        <ele>556.6</ele>
        <time>2021-06-13T07:43:52.000Z</time>
      </trkpt>
      <trkpt lat="43.60739" lon="6.56807">
        <ele>558.2</ele>
        <time>2021-06-13T07:44:01.000Z</time>
      </trkpt>
      <trkpt lat="43.60741" lon="6.56806">
        <ele>558.5</ele>
        <time>2021-06-13T07:44:12.000Z</time>
      </trkpt>
      <trkpt lat="43.60741" lon="6.56806">
        <ele>558.4</ele>
        <time>2021-06-13T07:44:13.000Z</time>
      </trkpt>
      <trkpt lat="43.60751" lon="6.56803">
        <ele>560.7</ele>
        <time>2021-06-13T07:44:33.000Z</time>
      </trkpt>
      <trkpt lat="43.60756" lon="6.56801">
        <ele>562.2</ele>
        <time>2021-06-13T07:44:44.000Z</time>
      </trkpt>
      <trkpt lat="43.60757" lon="6.568">
        <ele>562.3</ele>
        <time>2021-06-13T07:44:45.000Z</time>
      </trkpt>
      <trkpt lat="43.6076" lon="6.56799">
        <ele>562.6</ele>
        <time>2021-06-13T07:44:49.000Z</time>
      </trkpt>
      <trkpt lat="43.6076" lon="6.56799">
        <ele>563.1</ele>
        <time>2021-06-13T07:44:51.000Z</time>
      </trkpt>
      <trkpt lat="43.60769" lon="6.56797">
        <ele>564</ele>
        <time>2021-06-13T07:45:01.000Z</time>
      </trkpt>
      <trkpt lat="43.60779" lon="6.56797">
        <ele>565.9</ele>
        <time>2021-06-13T07:45:17.000Z</time>
      </trkpt>
      <trkpt lat="43.60788" lon="6.56796">
        <ele>567.9</ele>
        <time>2021-06-13T07:45:35.000Z</time>
      </trkpt>
      <trkpt lat="43.60798" lon="6.56795">
        <ele>569.2</ele>
        <time>2021-06-13T07:45:46.000Z</time>
      </trkpt>
      <trkpt lat="43.60803" lon="6.56794">
        <ele>570.2</ele>
        <time>2021-06-13T07:45:55.000Z</time>
      </trkpt>
      <trkpt lat="43.60803" lon="6.56794">
        <ele>570.4</ele>
        <time>2021-06-13T07:45:56.000Z</time>
      </trkpt>
      <trkpt lat="43.60813" lon="6.56793">
        <ele>571.8</ele>
        <time>2021-06-13T07:46:11.000Z</time>
      </trkpt>
      <trkpt lat="43.60821" lon="6.56789">
        <ele>573.9</ele>
        <time>2021-06-13T07:46:28.000Z</time>
      </trkpt>
      <trkpt lat="43.60831" lon="6.56787">
        <ele>575.1</ele>
        <time>2021-06-13T07:46:39.000Z</time>
      </trkpt>
      <trkpt lat="43.60841" lon="6.56789">
        <ele>577.1</ele>
        <time>2021-06-13T07:46:54.000Z</time>
      </trkpt>
      <trkpt lat="43.60844" lon="6.56791">
        <ele>578.3</ele>
        <time>2021-06-13T07:47:03.000Z</time>
      </trkpt>
      <trkpt lat="43.60844" lon="6.56792">
        <ele>578.3</ele>
        <time>2021-06-13T07:47:04.000Z</time>
      </trkpt>
      <trkpt lat="43.60844" lon="6.56795">
        <ele>579.8</ele>
        <time>2021-06-13T07:47:15.000Z</time>
      </trkpt>
      <trkpt lat="43.60844" lon="6.56795">
        <ele>579.8</ele>
        <time>2021-06-13T07:47:16.000Z</time>
      </trkpt>
      <trkpt lat="43.60836" lon="6.56802">
        <ele>580.5</ele>
        <time>2021-06-13T07:47:29.000Z</time>
      </trkpt>
      <trkpt lat="43.60831" lon="6.56813">
        <ele>582.2</ele>
        <time>2021-06-13T07:47:40.000Z</time>
      </trkpt>
      <trkpt lat="43.60827" lon="6.56825">
        <ele>583.6</ele>
        <time>2021-06-13T07:47:52.000Z</time>
      </trkpt>
      <trkpt lat="43.60825" lon="6.56838">
        <ele>585.2</ele>
        <time>2021-06-13T07:48:04.000Z</time>
      </trkpt>
      <trkpt lat="43.60825" lon="6.56842">
        <ele>585.9</ele>
        <time>2021-06-13T07:48:10.000Z</time>
      </trkpt>
      <trkpt lat="43.60825" lon="6.56843">
        <ele>586.3</ele>
        <time>2021-06-13T07:48:11.000Z</time>
      </trkpt>
      <trkpt lat="43.60819" lon="6.56854">
        <ele>588.8</ele>
        <time>2021-06-13T07:48:32.000Z</time>
      </trkpt>
      <trkpt lat="43.60819" lon="6.56868">
        <ele>590.5</ele>
        <time>2021-06-13T07:48:47.000Z</time>
      </trkpt>
      <trkpt lat="43.60821" lon="6.5688">
        <ele>591.8</ele>
        <time>2021-06-13T07:48:57.000Z</time>
      </trkpt>
      <trkpt lat="43.60826" lon="6.56889">
        <ele>593.3</ele>
        <time>2021-06-13T07:49:10.000Z</time>
      </trkpt>
      <trkpt lat="43.60826" lon="6.5689">
        <ele>593.5</ele>
        <time>2021-06-13T07:49:11.000Z</time>
      </trkpt>
      <trkpt lat="43.60827" lon="6.56891">
        <ele>594.1</ele>
        <time>2021-06-13T07:49:16.000Z</time>
      </trkpt>
      <trkpt lat="43.60828" lon="6.56892">
        <ele>594.2</ele>
        <time>2021-06-13T07:49:17.000Z</time>
      </trkpt>
      <trkpt lat="43.60836" lon="6.56898">
        <ele>595.7</ele>
        <time>2021-06-13T07:49:33.000Z</time>
      </trkpt>
      <trkpt lat="43.60845" lon="6.56899">
        <ele>597.4</ele>
        <time>2021-06-13T07:49:48.000Z</time>
      </trkpt>
      <trkpt lat="43.60855" lon="6.56896">
        <ele>598.6</ele>
        <time>2021-06-13T07:49:58.000Z</time>
      </trkpt>
      <trkpt lat="43.60863" lon="6.56899">
        <ele>600.4</ele>
        <time>2021-06-13T07:50:12.000Z</time>
      </trkpt>
      <trkpt lat="43.60863" lon="6.56899">
        <ele>600.7</ele>
        <time>2021-06-13T07:50:13.000Z</time>
      </trkpt>
      <trkpt lat="43.60872" lon="6.56906">
        <ele>603.8</ele>
        <time>2021-06-13T07:50:35.000Z</time>
      </trkpt>
      <trkpt lat="43.60875" lon="6.56917">
        <ele>605.9</ele>
        <time>2021-06-13T07:50:51.000Z</time>
      </trkpt>
      <trkpt lat="43.60876" lon="6.5692">
        <ele>606.3</ele>
        <time>2021-06-13T07:51:03.000Z</time>
      </trkpt>
      <trkpt lat="43.60876" lon="6.5692">
        <ele>606.1</ele>
        <time>2021-06-13T07:51:09.000Z</time>
      </trkpt>
      <trkpt lat="43.60874" lon="6.56934">
        <ele>607.2</ele>
        <time>2021-06-13T07:51:21.000Z</time>
      </trkpt>
      <trkpt lat="43.60878" lon="6.56945">
        <ele>608.3</ele>
        <time>2021-06-13T07:51:35.000Z</time>
      </trkpt>
      <trkpt lat="43.6088" lon="6.56946">
        <ele>608.1</ele>
        <time>2021-06-13T07:51:41.000Z</time>
      </trkpt>
      <trkpt lat="43.60881" lon="6.56946">
        <ele>608.6</ele>
        <time>2021-06-13T07:51:43.000Z</time>
      </trkpt>
      <trkpt lat="43.6088" lon="6.56946">
        <ele>608.2</ele>
        <time>2021-06-13T07:51:53.000Z</time>
      </trkpt>
      <trkpt lat="43.6088" lon="6.56945">
        <ele>608.9</ele>
        <time>2021-06-13T07:51:54.000Z</time>
      </trkpt>
      <trkpt lat="43.60882" lon="6.56948">
        <ele>608.7</ele>
        <time>2021-06-13T07:52:21.000Z</time>
      </trkpt>
      <trkpt lat="43.60882" lon="6.56948">
        <ele>608.6</ele>
        <time>2021-06-13T07:52:22.000Z</time>
      </trkpt>
      <trkpt lat="43.60882" lon="6.56948">
        <ele>608.4</ele>
        <time>2021-06-13T07:52:24.000Z</time>
      </trkpt>
      <trkpt lat="43.60882" lon="6.56948">
        <ele>608.3</ele>
        <time>2021-06-13T07:52:25.000Z</time>
      </trkpt>
      <trkpt lat="43.60883" lon="6.56953">
        <ele>609.8</ele>
        <time>2021-06-13T07:53:05.000Z</time>
      </trkpt>
      <trkpt lat="43.60883" lon="6.56952">
        <ele>609.6</ele>
        <time>2021-06-13T07:53:10.000Z</time>
      </trkpt>
      <trkpt lat="43.60892" lon="6.56948">
        <ele>609.4</ele>
        <time>2021-06-13T07:53:23.000Z</time>
      </trkpt>
      <trkpt lat="43.60901" lon="6.56945">
        <ele>609.4</ele>
        <time>2021-06-13T07:53:34.000Z</time>
      </trkpt>
      <trkpt lat="43.60909" lon="6.56938">
        <ele>609.6</ele>
        <time>2021-06-13T07:53:49.000Z</time>
      </trkpt>
      <trkpt lat="43.60914" lon="6.56928">
        <ele>610.8</ele>
        <time>2021-06-13T07:54:00.000Z</time>
      </trkpt>
      <trkpt lat="43.60917" lon="6.56915">
        <ele>611.5</ele>
        <time>2021-06-13T07:54:09.000Z</time>
      </trkpt>
      <trkpt lat="43.60923" lon="6.56906">
        <ele>612.5</ele>
        <time>2021-06-13T07:54:18.000Z</time>
      </trkpt>
      <trkpt lat="43.60928" lon="6.56895">
        <ele>613.4</ele>
        <time>2021-06-13T07:54:27.000Z</time>
      </trkpt>
      <trkpt lat="43.60933" lon="6.56883">
        <ele>614</ele>
        <time>2021-06-13T07:54:36.000Z</time>
      </trkpt>
      <trkpt lat="43.60932" lon="6.56869">
        <ele>614</ele>
        <time>2021-06-13T07:54:43.000Z</time>
      </trkpt>
      <trkpt lat="43.60933" lon="6.56857">
        <ele>613.7</ele>
        <time>2021-06-13T07:54:51.000Z</time>
      </trkpt>
      <trkpt lat="43.60938" lon="6.56847">
        <ele>613.7</ele>
        <time>2021-06-13T07:55:00.000Z</time>
      </trkpt>
      <trkpt lat="43.60941" lon="6.56835">
        <ele>613.6</ele>
        <time>2021-06-13T07:55:10.000Z</time>
      </trkpt>
      <trkpt lat="43.6094" lon="6.56821">
        <ele>614.1</ele>
        <time>2021-06-13T07:55:19.000Z</time>
      </trkpt>
      <trkpt lat="43.6094" lon="6.56821">
        <ele>613.9</ele>
        <time>2021-06-13T07:55:22.000Z</time>
      </trkpt>
      <trkpt lat="43.6094" lon="6.56821">
        <ele>613.8</ele>
        <time>2021-06-13T07:55:24.000Z</time>
      </trkpt>
      <trkpt lat="43.60946" lon="6.56811">
        <ele>614</ele>
        <time>2021-06-13T07:55:37.000Z</time>
      </trkpt>
      <trkpt lat="43.60945" lon="6.56812">
        <ele>614</ele>
        <time>2021-06-13T07:55:39.000Z</time>
      </trkpt>
      <trkpt lat="43.60945" lon="6.56812">
        <ele>614.2</ele>
        <time>2021-06-13T07:55:43.000Z</time>
      </trkpt>
      <trkpt lat="43.60945" lon="6.56812">
        <ele>614</ele>
        <time>2021-06-13T07:55:44.000Z</time>
      </trkpt>
      <trkpt lat="43.60945" lon="6.56812">
        <ele>614</ele>
        <time>2021-06-13T07:55:45.000Z</time>
      </trkpt>
      <trkpt lat="43.60945" lon="6.56811">
        <ele>613.8</ele>
        <time>2021-06-13T07:55:47.000Z</time>
      </trkpt>
      <trkpt lat="43.60946" lon="6.56811">
        <ele>613.9</ele>
        <time>2021-06-13T07:55:48.000Z</time>
      </trkpt>
      <trkpt lat="43.60944" lon="6.56799">
        <ele>612.7</ele>
        <time>2021-06-13T07:56:08.000Z</time>
      </trkpt>
      <trkpt lat="43.60944" lon="6.56799">
        <ele>612.5</ele>
        <time>2021-06-13T07:56:10.000Z</time>
      </trkpt>
      <trkpt lat="43.60943" lon="6.56798">
        <ele>612.4</ele>
        <time>2021-06-13T07:56:11.000Z</time>
      </trkpt>
      <trkpt lat="43.60943" lon="6.56788">
        <ele>612.1</ele>
        <time>2021-06-13T07:56:26.000Z</time>
      </trkpt>
      <trkpt lat="43.60943" lon="6.56788">
        <ele>612.3</ele>
        <time>2021-06-13T07:56:38.000Z</time>
      </trkpt>
      <trkpt lat="43.60943" lon="6.56789">
        <ele>612.4</ele>
        <time>2021-06-13T07:56:41.000Z</time>
      </trkpt>
      <trkpt lat="43.60943" lon="6.56789">
        <ele>612.2</ele>
        <time>2021-06-13T07:56:43.000Z</time>
      </trkpt>
      <trkpt lat="43.60937" lon="6.56799">
        <ele>612.3</ele>
        <time>2021-06-13T07:57:03.000Z</time>
      </trkpt>
      <trkpt lat="43.6094" lon="6.56799">
        <ele>612.4</ele>
        <time>2021-06-13T08:03:12.000Z</time>
      </trkpt>
      <trkpt lat="43.6094" lon="6.56799">
        <ele>612.5</ele>
        <time>2021-06-13T08:03:13.000Z</time>
      </trkpt>
      <trkpt lat="43.60941" lon="6.56798">
        <ele>612.5</ele>
        <time>2021-06-13T08:03:15.000Z</time>
      </trkpt>
      <trkpt lat="43.60941" lon="6.56798">
        <ele>612.4</ele>
        <time>2021-06-13T08:03:16.000Z</time>
      </trkpt>
      <trkpt lat="43.60941" lon="6.56798">
        <ele>612.4</ele>
        <time>2021-06-13T08:03:17.000Z</time>
      </trkpt>
      <trkpt lat="43.60941" lon="6.56798">
        <ele>612.3</ele>
        <time>2021-06-13T08:03:18.000Z</time>
      </trkpt>
      <trkpt lat="43.60941" lon="6.56798">
        <ele>612.3</ele>
        <time>2021-06-13T08:03:20.000Z</time>
      </trkpt>
      <trkpt lat="43.60946" lon="6.56791">
        <ele>612.3</ele>
        <time>2021-06-13T08:03:34.000Z</time>
      </trkpt>
      <trkpt lat="43.60946" lon="6.56791">
        <ele>612.5</ele>
        <time>2021-06-13T08:03:37.000Z</time>
      </trkpt>
      <trkpt lat="43.6095" lon="6.56782">
        <ele>612.4</ele>
        <time>2021-06-13T08:03:53.000Z</time>
      </trkpt>
      <trkpt lat="43.6095" lon="6.56782">
        <ele>612.3</ele>
        <time>2021-06-13T08:03:57.000Z</time>
      </trkpt>
      <trkpt lat="43.6095" lon="6.56782">
        <ele>612.3</ele>
        <time>2021-06-13T08:03:58.000Z</time>
      </trkpt>
      <trkpt lat="43.6095" lon="6.56782">
        <ele>612.2</ele>
        <time>2021-06-13T08:04:00.000Z</time>
      </trkpt>
      <trkpt lat="43.60942" lon="6.56783">
        <ele>610.1</ele>
        <time>2021-06-13T08:04:24.000Z</time>
      </trkpt>
      <trkpt lat="43.60942" lon="6.56783">
        <ele>609.9</ele>
        <time>2021-06-13T08:04:28.000Z</time>
      </trkpt>
      <trkpt lat="43.60941" lon="6.56783">
        <ele>610</ele>
        <time>2021-06-13T08:04:30.000Z</time>
      </trkpt>
      <trkpt lat="43.60942" lon="6.56783">
        <ele>610.2</ele>
        <time>2021-06-13T08:04:31.000Z</time>
      </trkpt>
      <trkpt lat="43.60954" lon="6.56785">
        <ele>612.1</ele>
        <time>2021-06-13T08:05:07.000Z</time>
      </trkpt>
      <trkpt lat="43.60959" lon="6.56795">
        <ele>613.4</ele>
        <time>2021-06-13T08:05:21.000Z</time>
      </trkpt>
      <trkpt lat="43.60963" lon="6.568">
        <ele>613.4</ele>
        <time>2021-06-13T08:05:34.000Z</time>
      </trkpt>
      <trkpt lat="43.60963" lon="6.56801">
        <ele>613.6</ele>
        <time>2021-06-13T08:05:38.000Z</time>
      </trkpt>
      <trkpt lat="43.60968" lon="6.56809">
        <ele>614.3</ele>
        <time>2021-06-13T08:05:50.000Z</time>
      </trkpt>
      <trkpt lat="43.60968" lon="6.56811">
        <ele>614.1</ele>
        <time>2021-06-13T08:05:53.000Z</time>
      </trkpt>
      <trkpt lat="43.60972" lon="6.56817">
        <ele>613.8</ele>
        <time>2021-06-13T08:06:02.000Z</time>
      </trkpt>
      <trkpt lat="43.60972" lon="6.56817">
        <ele>613.7</ele>
        <time>2021-06-13T08:06:03.000Z</time>
      </trkpt>
      <trkpt lat="43.60981" lon="6.56814">
        <ele>613.6</ele>
        <time>2021-06-13T08:06:11.000Z</time>
      </trkpt>
      <trkpt lat="43.60989" lon="6.56813">
        <ele>613</ele>
        <time>2021-06-13T08:06:26.000Z</time>
      </trkpt>
      <trkpt lat="43.6099" lon="6.56813">
        <ele>613.3</ele>
        <time>2021-06-13T08:06:51.000Z</time>
      </trkpt>
      <trkpt lat="43.6099" lon="6.56813">
        <ele>613.3</ele>
        <time>2021-06-13T08:06:52.000Z</time>
      </trkpt>
      <trkpt lat="43.6099" lon="6.56813">
        <ele>613.2</ele>
        <time>2021-06-13T08:07:24.000Z</time>
      </trkpt>
      <trkpt lat="43.6099" lon="6.56813">
        <ele>613.1</ele>
        <time>2021-06-13T08:07:25.000Z</time>
      </trkpt>
      <trkpt lat="43.6099" lon="6.56813">
        <ele>613.2</ele>
        <time>2021-06-13T08:07:26.000Z</time>
      </trkpt>
      <trkpt lat="43.6099" lon="6.56813">
        <ele>613.2</ele>
        <time>2021-06-13T08:07:29.000Z</time>
      </trkpt>
      <trkpt lat="43.6099" lon="6.56813">
        <ele>613</ele>
        <time>2021-06-13T08:08:29.000Z</time>
      </trkpt>
      <trkpt lat="43.6099" lon="6.56813">
        <ele>613.1</ele>
        <time>2021-06-13T08:08:30.000Z</time>
      </trkpt>
      <trkpt lat="43.6099" lon="6.56813">
        <ele>613.4</ele>
        <time>2021-06-13T08:08:31.000Z</time>
      </trkpt>
      <trkpt lat="43.6098" lon="6.56814">
        <ele>613.7</ele>
        <time>2021-06-13T08:08:41.000Z</time>
      </trkpt>
      <trkpt lat="43.6097" lon="6.56817">
        <ele>614.4</ele>
        <time>2021-06-13T08:08:50.000Z</time>
      </trkpt>
      <trkpt lat="43.60962" lon="6.56824">
        <ele>614.4</ele>
        <time>2021-06-13T08:08:57.000Z</time>
      </trkpt>
      <trkpt lat="43.60957" lon="6.56835">
        <ele>614.9</ele>
        <time>2021-06-13T08:09:06.000Z</time>
      </trkpt>
      <trkpt lat="43.60952" lon="6.56846">
        <ele>614.9</ele>
        <time>2021-06-13T08:09:14.000Z</time>
      </trkpt>
      <trkpt lat="43.6095" lon="6.56858">
        <ele>614.9</ele>
        <time>2021-06-13T08:09:20.000Z</time>
      </trkpt>
      <trkpt lat="43.60945" lon="6.5687">
        <ele>614.9</ele>
        <time>2021-06-13T08:09:27.000Z</time>
      </trkpt>
      <trkpt lat="43.60937" lon="6.56878">
        <ele>614.2</ele>
        <time>2021-06-13T08:09:34.000Z</time>
      </trkpt>
      <trkpt lat="43.60928" lon="6.56881">
        <ele>613.4</ele>
        <time>2021-06-13T08:09:41.000Z</time>
      </trkpt>
      <trkpt lat="43.6092" lon="6.56888">
        <ele>613</ele>
        <time>2021-06-13T08:09:50.000Z</time>
      </trkpt>
      <trkpt lat="43.60922" lon="6.56889">
        <ele>613.3</ele>
        <time>2021-06-13T08:10:00.000Z</time>
      </trkpt>
      <trkpt lat="43.60922" lon="6.56889">
        <ele>613.2</ele>
        <time>2021-06-13T08:10:04.000Z</time>
      </trkpt>
      <trkpt lat="43.60922" lon="6.56899">
        <ele>612.9</ele>
        <time>2021-06-13T08:10:12.000Z</time>
      </trkpt>
      <trkpt lat="43.60922" lon="6.56899">
        <ele>612.5</ele>
        <time>2021-06-13T08:10:23.000Z</time>
      </trkpt>
      <trkpt lat="43.60919" lon="6.56913">
        <ele>611.6</ele>
        <time>2021-06-13T08:10:31.000Z</time>
      </trkpt>
      <trkpt lat="43.60916" lon="6.56925">
        <ele>610.8</ele>
        <time>2021-06-13T08:10:38.000Z</time>
      </trkpt>
      <trkpt lat="43.60913" lon="6.56937">
        <ele>609.6</ele>
        <time>2021-06-13T08:10:45.000Z</time>
      </trkpt>
      <trkpt lat="43.60909" lon="6.56944">
        <ele>609.6</ele>
        <time>2021-06-13T08:10:53.000Z</time>
      </trkpt>
      <trkpt lat="43.60909" lon="6.56944">
        <ele>609.4</ele>
        <time>2021-06-13T08:11:03.000Z</time>
      </trkpt>
      <trkpt lat="43.60899" lon="6.56944">
        <ele>608.5</ele>
        <time>2021-06-13T08:11:12.000Z</time>
      </trkpt>
      <trkpt lat="43.6089" lon="6.56943">
        <ele>608.9</ele>
        <time>2021-06-13T08:11:17.000Z</time>
      </trkpt>
      <trkpt lat="43.6088" lon="6.56943">
        <ele>608.7</ele>
        <time>2021-06-13T08:11:23.000Z</time>
      </trkpt>
      <trkpt lat="43.60876" lon="6.56956">
        <ele>608.7</ele>
        <time>2021-06-13T08:11:30.000Z</time>
      </trkpt>
      <trkpt lat="43.60875" lon="6.56969">
        <ele>609.9</ele>
        <time>2021-06-13T08:11:37.000Z</time>
      </trkpt>
      <trkpt lat="43.60875" lon="6.56984">
        <ele>610.9</ele>
        <time>2021-06-13T08:11:45.000Z</time>
      </trkpt>
      <trkpt lat="43.60874" lon="6.56996">
        <ele>611.4</ele>
        <time>2021-06-13T08:11:53.000Z</time>
      </trkpt>
      <trkpt lat="43.60873" lon="6.57009">
        <ele>612.7</ele>
        <time>2021-06-13T08:12:04.000Z</time>
      </trkpt>
      <trkpt lat="43.60872" lon="6.57023">
        <ele>613.6</ele>
        <time>2021-06-13T08:12:14.000Z</time>
      </trkpt>
      <trkpt lat="43.60869" lon="6.57035">
        <ele>614.7</ele>
        <time>2021-06-13T08:12:24.000Z</time>
      </trkpt>
      <trkpt lat="43.60867" lon="6.57048">
        <ele>615.5</ele>
        <time>2021-06-13T08:12:35.000Z</time>
      </trkpt>
      <trkpt lat="43.60866" lon="6.57061">
        <ele>616.9</ele>
        <time>2021-06-13T08:12:46.000Z</time>
      </trkpt>
      <trkpt lat="43.60865" lon="6.57074">
        <ele>617.7</ele>
        <time>2021-06-13T08:12:55.000Z</time>
      </trkpt>
      <trkpt lat="43.60865" lon="6.57087">
        <ele>618.7</ele>
        <time>2021-06-13T08:13:05.000Z</time>
      </trkpt>
      <trkpt lat="43.60868" lon="6.57099">
        <ele>619.6</ele>
        <time>2021-06-13T08:13:13.000Z</time>
      </trkpt>
      <trkpt lat="43.60874" lon="6.5711">
        <ele>620.2</ele>
        <time>2021-06-13T08:13:21.000Z</time>
      </trkpt>
      <trkpt lat="43.6088" lon="6.57119">
        <ele>620.4</ele>
        <time>2021-06-13T08:13:28.000Z</time>
      </trkpt>
      <trkpt lat="43.60887" lon="6.57128">
        <ele>620.6</ele>
        <time>2021-06-13T08:13:36.000Z</time>
      </trkpt>
      <trkpt lat="43.60893" lon="6.57137">
        <ele>621.3</ele>
        <time>2021-06-13T08:13:43.000Z</time>
      </trkpt>
      <trkpt lat="43.60901" lon="6.57142">
        <ele>621.6</ele>
        <time>2021-06-13T08:13:51.000Z</time>
      </trkpt>
      <trkpt lat="43.6091" lon="6.57148">
        <ele>622.2</ele>
        <time>2021-06-13T08:13:59.000Z</time>
      </trkpt>
      <trkpt lat="43.60919" lon="6.57152">
        <ele>623.3</ele>
        <time>2021-06-13T08:14:07.000Z</time>
      </trkpt>
      <trkpt lat="43.60927" lon="6.57157">
        <ele>624</ele>
        <time>2021-06-13T08:14:15.000Z</time>
      </trkpt>
      <trkpt lat="43.60935" lon="6.57165">
        <ele>624.9</ele>
        <time>2021-06-13T08:14:23.000Z</time>
      </trkpt>
      <trkpt lat="43.60939" lon="6.57177">
        <ele>625.8</ele>
        <time>2021-06-13T08:14:32.000Z</time>
      </trkpt>
      <trkpt lat="43.6094" lon="6.5719">
        <ele>626.5</ele>
        <time>2021-06-13T08:14:40.000Z</time>
      </trkpt>
      <trkpt lat="43.60939" lon="6.57204">
        <ele>627.2</ele>
        <time>2021-06-13T08:14:49.000Z</time>
      </trkpt>
      <trkpt lat="43.60935" lon="6.57216">
        <ele>627.6</ele>
        <time>2021-06-13T08:14:57.000Z</time>
      </trkpt>
      <trkpt lat="43.60931" lon="6.57229">
        <ele>628.5</ele>
        <time>2021-06-13T08:15:07.000Z</time>
      </trkpt>
      <trkpt lat="43.60927" lon="6.57241">
        <ele>629.9</ele>
        <time>2021-06-13T08:15:16.000Z</time>
      </trkpt>
      <trkpt lat="43.60925" lon="6.57254">
        <ele>630.5</ele>
        <time>2021-06-13T08:15:24.000Z</time>
      </trkpt>
      <trkpt lat="43.60922" lon="6.57266">
        <ele>631.7</ele>
        <time>2021-06-13T08:15:33.000Z</time>
      </trkpt>
      <trkpt lat="43.60919" lon="6.57279">
        <ele>631.9</ele>
        <time>2021-06-13T08:15:41.000Z</time>
      </trkpt>
      <trkpt lat="43.60916" lon="6.57292">
        <ele>632.5</ele>
        <time>2021-06-13T08:15:49.000Z</time>
      </trkpt>
      <trkpt lat="43.60912" lon="6.57304">
        <ele>632.3</ele>
        <time>2021-06-13T08:15:57.000Z</time>
      </trkpt>
      <trkpt lat="43.6091" lon="6.57317">
        <ele>632.4</ele>
        <time>2021-06-13T08:16:04.000Z</time>
      </trkpt>
      <trkpt lat="43.60908" lon="6.57331">
        <ele>632.3</ele>
        <time>2021-06-13T08:16:12.000Z</time>
      </trkpt>
      <trkpt lat="43.60906" lon="6.57344">
        <ele>632.6</ele>
        <time>2021-06-13T08:16:19.000Z</time>
      </trkpt>
      <trkpt lat="43.60904" lon="6.57358">
        <ele>632.5</ele>
        <time>2021-06-13T08:16:27.000Z</time>
      </trkpt>
      <trkpt lat="43.60902" lon="6.57371">
        <ele>633.1</ele>
        <time>2021-06-13T08:16:35.000Z</time>
      </trkpt>
      <trkpt lat="43.609" lon="6.57384">
        <ele>633.5</ele>
        <time>2021-06-13T08:16:43.000Z</time>
      </trkpt>
      <trkpt lat="43.609" lon="6.57397">
        <ele>634.1</ele>
        <time>2021-06-13T08:16:51.000Z</time>
      </trkpt>
      <trkpt lat="43.60901" lon="6.57411">
        <ele>634.2</ele>
        <time>2021-06-13T08:16:59.000Z</time>
      </trkpt>
      <trkpt lat="43.60904" lon="6.57424">
        <ele>634.6</ele>
        <time>2021-06-13T08:17:07.000Z</time>
      </trkpt>
      <trkpt lat="43.60907" lon="6.57438">
        <ele>634.5</ele>
        <time>2021-06-13T08:17:15.000Z</time>
      </trkpt>
      <trkpt lat="43.6091" lon="6.5745">
        <ele>634.2</ele>
        <time>2021-06-13T08:17:22.000Z</time>
      </trkpt>
      <trkpt lat="43.60911" lon="6.57464">
        <ele>634.7</ele>
        <time>2021-06-13T08:17:29.000Z</time>
      </trkpt>
      <trkpt lat="43.60908" lon="6.57476">
        <ele>635.3</ele>
        <time>2021-06-13T08:17:37.000Z</time>
      </trkpt>
      <trkpt lat="43.60908" lon="6.57489">
        <ele>636.1</ele>
        <time>2021-06-13T08:17:45.000Z</time>
      </trkpt>
      <trkpt lat="43.60904" lon="6.57501">
        <ele>636.8</ele>
        <time>2021-06-13T08:17:53.000Z</time>
      </trkpt>
      <trkpt lat="43.60899" lon="6.57512">
        <ele>637.1</ele>
        <time>2021-06-13T08:18:01.000Z</time>
      </trkpt>
      <trkpt lat="43.60894" lon="6.57524">
        <ele>637.6</ele>
        <time>2021-06-13T08:18:09.000Z</time>
      </trkpt>
      <trkpt lat="43.60891" lon="6.57537">
        <ele>638.1</ele>
        <time>2021-06-13T08:18:17.000Z</time>
      </trkpt>
      <trkpt lat="43.60888" lon="6.5755">
        <ele>638.6</ele>
        <time>2021-06-13T08:18:25.000Z</time>
      </trkpt>
      <trkpt lat="43.60886" lon="6.57563">
        <ele>638.8</ele>
        <time>2021-06-13T08:18:32.000Z</time>
      </trkpt>
      <trkpt lat="43.60885" lon="6.57577">
        <ele>639</ele>
        <time>2021-06-13T08:18:40.000Z</time>
      </trkpt>
      <trkpt lat="43.60885" lon="6.57591">
        <ele>639.6</ele>
        <time>2021-06-13T08:18:48.000Z</time>
      </trkpt>
      <trkpt lat="43.60884" lon="6.57604">
        <ele>639.7</ele>
        <time>2021-06-13T08:18:56.000Z</time>
      </trkpt>
      <trkpt lat="43.60884" lon="6.57618">
        <ele>640</ele>
        <time>2021-06-13T08:19:04.000Z</time>
      </trkpt>
      <trkpt lat="43.60885" lon="6.57631">
        <ele>639.7</ele>
        <time>2021-06-13T08:19:12.000Z</time>
      </trkpt>
      <trkpt lat="43.60887" lon="6.57644">
        <ele>639.8</ele>
        <time>2021-06-13T08:19:19.000Z</time>
      </trkpt>
      <trkpt lat="43.60887" lon="6.57656">
        <ele>640</ele>
        <time>2021-06-13T08:19:27.000Z</time>
      </trkpt>
      <trkpt lat="43.60886" lon="6.5767">
        <ele>640.1</ele>
        <time>2021-06-13T08:19:36.000Z</time>
      </trkpt>
      <trkpt lat="43.6088" lon="6.57681">
        <ele>640.1</ele>
        <time>2021-06-13T08:19:45.000Z</time>
      </trkpt>
      <trkpt lat="43.60875" lon="6.57692">
        <ele>640.2</ele>
        <time>2021-06-13T08:19:54.000Z</time>
      </trkpt>
      <trkpt lat="43.60867" lon="6.57701">
        <ele>640.9</ele>
        <time>2021-06-13T08:20:04.000Z</time>
      </trkpt>
      <trkpt lat="43.60861" lon="6.57711">
        <ele>641.7</ele>
        <time>2021-06-13T08:20:13.000Z</time>
      </trkpt>
      <trkpt lat="43.60856" lon="6.57721">
        <ele>642.3</ele>
        <time>2021-06-13T08:20:22.000Z</time>
      </trkpt>
      <trkpt lat="43.60849" lon="6.57729">
        <ele>642.7</ele>
        <time>2021-06-13T08:20:31.000Z</time>
      </trkpt>
      <trkpt lat="43.6084" lon="6.57736">
        <ele>643</ele>
        <time>2021-06-13T08:20:39.000Z</time>
      </trkpt>
      <trkpt lat="43.60833" lon="6.57745">
        <ele>643.5</ele>
        <time>2021-06-13T08:20:48.000Z</time>
      </trkpt>
      <trkpt lat="43.6083" lon="6.57757">
        <ele>644.4</ele>
        <time>2021-06-13T08:20:57.000Z</time>
      </trkpt>
      <trkpt lat="43.60826" lon="6.57768">
        <ele>645</ele>
        <time>2021-06-13T08:21:06.000Z</time>
      </trkpt>
      <trkpt lat="43.60824" lon="6.5778">
        <ele>645.7</ele>
        <time>2021-06-13T08:21:14.000Z</time>
      </trkpt>
      <trkpt lat="43.60821" lon="6.57793">
        <ele>646.1</ele>
        <time>2021-06-13T08:21:23.000Z</time>
      </trkpt>
      <trkpt lat="43.60819" lon="6.57807">
        <ele>646.3</ele>
        <time>2021-06-13T08:21:32.000Z</time>
      </trkpt>
      <trkpt lat="43.60816" lon="6.57819">
        <ele>646.7</ele>
        <time>2021-06-13T08:21:40.000Z</time>
      </trkpt>
      <trkpt lat="43.60814" lon="6.57831">
        <ele>646.8</ele>
        <time>2021-06-13T08:21:48.000Z</time>
      </trkpt>
      <trkpt lat="43.60812" lon="6.57843">
        <ele>647</ele>
        <time>2021-06-13T08:21:56.000Z</time>
      </trkpt>
      <trkpt lat="43.60811" lon="6.57856">
        <ele>647.4</ele>
        <time>2021-06-13T08:22:04.000Z</time>
      </trkpt>
      <trkpt lat="43.6081" lon="6.57868">
        <ele>647.8</ele>
        <time>2021-06-13T08:22:12.000Z</time>
      </trkpt>
      <trkpt lat="43.6081" lon="6.57882">
        <ele>647.9</ele>
        <time>2021-06-13T08:22:21.000Z</time>
      </trkpt>
      <trkpt lat="43.60812" lon="6.57895">
        <ele>648.1</ele>
        <time>2021-06-13T08:22:29.000Z</time>
      </trkpt>
      <trkpt lat="43.60814" lon="6.57908">
        <ele>649.1</ele>
        <time>2021-06-13T08:22:39.000Z</time>
      </trkpt>
      <trkpt lat="43.60817" lon="6.5792">
        <ele>650.3</ele>
        <time>2021-06-13T08:22:49.000Z</time>
      </trkpt>
      <trkpt lat="43.60821" lon="6.57931">
        <ele>650.9</ele>
        <time>2021-06-13T08:22:57.000Z</time>
      </trkpt>
      <trkpt lat="43.60827" lon="6.57941">
        <ele>651.2</ele>
        <time>2021-06-13T08:23:05.000Z</time>
      </trkpt>
      <trkpt lat="43.60831" lon="6.57953">
        <ele>652.1</ele>
        <time>2021-06-13T08:23:14.000Z</time>
      </trkpt>
      <trkpt lat="43.60836" lon="6.57964">
        <ele>652</ele>
        <time>2021-06-13T08:23:22.000Z</time>
      </trkpt>
      <trkpt lat="43.60842" lon="6.57976">
        <ele>652.5</ele>
        <time>2021-06-13T08:23:31.000Z</time>
      </trkpt>
      <trkpt lat="43.60848" lon="6.57985">
        <ele>652.8</ele>
        <time>2021-06-13T08:23:40.000Z</time>
      </trkpt>
      <trkpt lat="43.60854" lon="6.57996">
        <ele>653.4</ele>
        <time>2021-06-13T08:23:49.000Z</time>
      </trkpt>
      <trkpt lat="43.6086" lon="6.58007">
        <ele>653.5</ele>
        <time>2021-06-13T08:23:57.000Z</time>
      </trkpt>
      <trkpt lat="43.60865" lon="6.58018">
        <ele>653.9</ele>
        <time>2021-06-13T08:24:05.000Z</time>
      </trkpt>
      <trkpt lat="43.6087" lon="6.58029">
        <ele>654.1</ele>
        <time>2021-06-13T08:24:14.000Z</time>
      </trkpt>
      <trkpt lat="43.60873" lon="6.58041">
        <ele>654.3</ele>
        <time>2021-06-13T08:24:22.000Z</time>
      </trkpt>
      <trkpt lat="43.60873" lon="6.58055">
        <ele>654.7</ele>
        <time>2021-06-13T08:24:30.000Z</time>
      </trkpt>
      <trkpt lat="43.60872" lon="6.58068">
        <ele>654.9</ele>
        <time>2021-06-13T08:24:38.000Z</time>
      </trkpt>
      <trkpt lat="43.60872" lon="6.58081">
        <ele>655</ele>
        <time>2021-06-13T08:24:47.000Z</time>
      </trkpt>
      <trkpt lat="43.60871" lon="6.58094">
        <ele>655.4</ele>
        <time>2021-06-13T08:24:56.000Z</time>
      </trkpt>
      <trkpt lat="43.6087" lon="6.58107">
        <ele>656</ele>
        <time>2021-06-13T08:25:04.000Z</time>
      </trkpt>
      <trkpt lat="43.60868" lon="6.5812">
        <ele>656.5</ele>
        <time>2021-06-13T08:25:14.000Z</time>
      </trkpt>
      <trkpt lat="43.60867" lon="6.58133">
        <ele>656.9</ele>
        <time>2021-06-13T08:25:21.000Z</time>
      </trkpt>
      <trkpt lat="43.60865" lon="6.58146">
        <ele>656.9</ele>
        <time>2021-06-13T08:25:30.000Z</time>
      </trkpt>
      <trkpt lat="43.60863" lon="6.58159">
        <ele>656.8</ele>
        <time>2021-06-13T08:25:39.000Z</time>
      </trkpt>
      <trkpt lat="43.60863" lon="6.58172">
        <ele>657.1</ele>
        <time>2021-06-13T08:25:47.000Z</time>
      </trkpt>
      <trkpt lat="43.60859" lon="6.58184">
        <ele>656.7</ele>
        <time>2021-06-13T08:25:56.000Z</time>
      </trkpt>
      <trkpt lat="43.60857" lon="6.58196">
        <ele>656.7</ele>
        <time>2021-06-13T08:26:04.000Z</time>
      </trkpt>
      <trkpt lat="43.6085" lon="6.58205">
        <ele>657</ele>
        <time>2021-06-13T08:26:13.000Z</time>
      </trkpt>
      <trkpt lat="43.60843" lon="6.58212">
        <ele>657.3</ele>
        <time>2021-06-13T08:26:22.000Z</time>
      </trkpt>
      <trkpt lat="43.60834" lon="6.58219">
        <ele>657.3</ele>
        <time>2021-06-13T08:26:30.000Z</time>
      </trkpt>
      <trkpt lat="43.60828" lon="6.58229">
        <ele>656.9</ele>
        <time>2021-06-13T08:26:38.000Z</time>
      </trkpt>
      <trkpt lat="43.60821" lon="6.58237">
        <ele>656.6</ele>
        <time>2021-06-13T08:26:46.000Z</time>
      </trkpt>
      <trkpt lat="43.60814" lon="6.58245">
        <ele>656.1</ele>
        <time>2021-06-13T08:26:55.000Z</time>
      </trkpt>
      <trkpt lat="43.60806" lon="6.58252">
        <ele>655.7</ele>
        <time>2021-06-13T08:27:04.000Z</time>
      </trkpt>
      <trkpt lat="43.60799" lon="6.5826">
        <ele>654.7</ele>
        <time>2021-06-13T08:27:12.000Z</time>
      </trkpt>
      <trkpt lat="43.60794" lon="6.58261">
        <ele>654.4</ele>
        <time>2021-06-13T08:27:22.000Z</time>
      </trkpt>
      <trkpt lat="43.60794" lon="6.58261">
        <ele>654.8</ele>
        <time>2021-06-13T08:27:23.000Z</time>
      </trkpt>
      <trkpt lat="43.60794" lon="6.58262">
        <ele>655.1</ele>
        <time>2021-06-13T08:27:26.000Z</time>
      </trkpt>
      <trkpt lat="43.60794" lon="6.58263">
        <ele>655.2</ele>
        <time>2021-06-13T08:27:28.000Z</time>
      </trkpt>
      <trkpt lat="43.60794" lon="6.58263">
        <ele>655.3</ele>
        <time>2021-06-13T08:27:29.000Z</time>
      </trkpt>
      <trkpt lat="43.60795" lon="6.58263">
        <ele>655.4</ele>
        <time>2021-06-13T08:27:47.000Z</time>
      </trkpt>
      <trkpt lat="43.60795" lon="6.58263">
        <ele>655.2</ele>
        <time>2021-06-13T08:27:49.000Z</time>
      </trkpt>
      <trkpt lat="43.60795" lon="6.58264">
        <ele>655.3</ele>
        <time>2021-06-13T08:27:50.000Z</time>
      </trkpt>
      <trkpt lat="43.60795" lon="6.58264">
        <ele>655.4</ele>
        <time>2021-06-13T08:27:51.000Z</time>
      </trkpt>
      <trkpt lat="43.60795" lon="6.58263">
        <ele>655.5</ele>
        <time>2021-06-13T08:27:59.000Z</time>
      </trkpt>
      <trkpt lat="43.60795" lon="6.58263">
        <ele>655.4</ele>
        <time>2021-06-13T08:28:01.000Z</time>
      </trkpt>
      <trkpt lat="43.60795" lon="6.58263">
        <ele>655.4</ele>
        <time>2021-06-13T08:28:02.000Z</time>
      </trkpt>
      <trkpt lat="43.60796" lon="6.58266">
        <ele>654.9</ele>
        <time>2021-06-13T08:28:12.000Z</time>
      </trkpt>
      <trkpt lat="43.60797" lon="6.58267">
        <ele>654.9</ele>
        <time>2021-06-13T08:28:15.000Z</time>
      </trkpt>
      <trkpt lat="43.60798" lon="6.58269">
        <ele>655.2</ele>
        <time>2021-06-13T08:28:22.000Z</time>
      </trkpt>
      <trkpt lat="43.60798" lon="6.58269">
        <ele>655.1</ele>
        <time>2021-06-13T08:28:24.000Z</time>
      </trkpt>
      <trkpt lat="43.60798" lon="6.58269">
        <ele>655.3</ele>
        <time>2021-06-13T08:28:25.000Z</time>
      </trkpt>
      <trkpt lat="43.60799" lon="6.58269">
        <ele>655.1</ele>
        <time>2021-06-13T08:28:38.000Z</time>
      </trkpt>
      <trkpt lat="43.608" lon="6.5827">
        <ele>655.5</ele>
        <time>2021-06-13T08:28:43.000Z</time>
      </trkpt>
      <trkpt lat="43.608" lon="6.5827">
        <ele>655.5</ele>
        <time>2021-06-13T08:28:44.000Z</time>
      </trkpt>
      <trkpt lat="43.608" lon="6.5827">
        <ele>655.4</ele>
        <time>2021-06-13T08:28:45.000Z</time>
      </trkpt>
      <trkpt lat="43.608" lon="6.5827">
        <ele>655.2</ele>
        <time>2021-06-13T08:28:46.000Z</time>
      </trkpt>
      <trkpt lat="43.608" lon="6.5827">
        <ele>655.2</ele>
        <time>2021-06-13T08:28:48.000Z</time>
      </trkpt>
      <trkpt lat="43.608" lon="6.58269">
        <ele>655.7</ele>
        <time>2021-06-13T08:29:04.000Z</time>
      </trkpt>
      <trkpt lat="43.608" lon="6.58269">
        <ele>656.2</ele>
        <time>2021-06-13T08:29:07.000Z</time>
      </trkpt>
      <trkpt lat="43.608" lon="6.58269">
        <ele>656.2</ele>
        <time>2021-06-13T08:29:08.000Z</time>
      </trkpt>
      <trkpt lat="43.608" lon="6.58269">
        <ele>656.2</ele>
        <time>2021-06-13T08:29:09.000Z</time>
      </trkpt>
      <trkpt lat="43.608" lon="6.58269">
        <ele>656.3</ele>
        <time>2021-06-13T08:29:13.000Z</time>
      </trkpt>
      <trkpt lat="43.60799" lon="6.5827">
        <ele>655.5</ele>
        <time>2021-06-13T08:29:23.000Z</time>
      </trkpt>
      <trkpt lat="43.60799" lon="6.58269">
        <ele>655.9</ele>
        <time>2021-06-13T08:29:42.000Z</time>
      </trkpt>
      <trkpt lat="43.60799" lon="6.58269">
        <ele>655.9</ele>
        <time>2021-06-13T08:29:44.000Z</time>
      </trkpt>
      <trkpt lat="43.60798" lon="6.58269">
        <ele>655.8</ele>
        <time>2021-06-13T08:29:48.000Z</time>
      </trkpt>
      <trkpt lat="43.60798" lon="6.58268">
        <ele>655.8</ele>
        <time>2021-06-13T08:29:51.000Z</time>
      </trkpt>
      <trkpt lat="43.60797" lon="6.58268">
        <ele>655.9</ele>
        <time>2021-06-13T08:29:54.000Z</time>
      </trkpt>
      <trkpt lat="43.60797" lon="6.58268">
        <ele>655.7</ele>
        <time>2021-06-13T08:29:58.000Z</time>
      </trkpt>
      <trkpt lat="43.60798" lon="6.58268">
        <ele>655.8</ele>
        <time>2021-06-13T08:29:59.000Z</time>
      </trkpt>
      <trkpt lat="43.60798" lon="6.58268">
        <ele>656</ele>
        <time>2021-06-13T08:30:00.000Z</time>
      </trkpt>
      <trkpt lat="43.60797" lon="6.58268">
        <ele>656.1</ele>
        <time>2021-06-13T08:30:02.000Z</time>
      </trkpt>
      <trkpt lat="43.60797" lon="6.58267">
        <ele>656.1</ele>
        <time>2021-06-13T08:30:04.000Z</time>
      </trkpt>
      <trkpt lat="43.60798" lon="6.58267">
        <ele>655.9</ele>
        <time>2021-06-13T08:30:06.000Z</time>
      </trkpt>
      <trkpt lat="43.60798" lon="6.58267">
        <ele>656</ele>
        <time>2021-06-13T08:30:07.000Z</time>
      </trkpt>
      <trkpt lat="43.60798" lon="6.58267">
        <ele>656.1</ele>
        <time>2021-06-13T08:30:08.000Z</time>
      </trkpt>
      <trkpt lat="43.60799" lon="6.58267">
        <ele>656.2</ele>
        <time>2021-06-13T08:30:11.000Z</time>
      </trkpt>
      <trkpt lat="43.60799" lon="6.58267">
        <ele>656.3</ele>
        <time>2021-06-13T08:30:14.000Z</time>
      </trkpt>
      <trkpt lat="43.60799" lon="6.58267">
        <ele>656.3</ele>
        <time>2021-06-13T08:30:15.000Z</time>
      </trkpt>
      <trkpt lat="43.60799" lon="6.58266">
        <ele>656.3</ele>
        <time>2021-06-13T08:30:16.000Z</time>
      </trkpt>
      <trkpt lat="43.60799" lon="6.58266">
        <ele>656.2</ele>
        <time>2021-06-13T08:30:17.000Z</time>
      </trkpt>
      <trkpt lat="43.60799" lon="6.58266">
        <ele>656.1</ele>
        <time>2021-06-13T08:30:21.000Z</time>
      </trkpt>
      <trkpt lat="43.60799" lon="6.58266">
        <ele>656.2</ele>
        <time>2021-06-13T08:30:22.000Z</time>
      </trkpt>
      <trkpt lat="43.60799" lon="6.58266">
        <ele>656.2</ele>
        <time>2021-06-13T08:30:24.000Z</time>
      </trkpt>
      <trkpt lat="43.60797" lon="6.58266">
        <ele>656.7</ele>
        <time>2021-06-13T08:30:30.000Z</time>
      </trkpt>
      <trkpt lat="43.60797" lon="6.58267">
        <ele>656.9</ele>
        <time>2021-06-13T08:31:26.000Z</time>
      </trkpt>
      <trkpt lat="43.60797" lon="6.58267">
        <ele>656.9</ele>
        <time>2021-06-13T08:31:27.000Z</time>
      </trkpt>
      <trkpt lat="43.60797" lon="6.58267">
        <ele>656.9</ele>
        <time>2021-06-13T08:31:28.000Z</time>
      </trkpt>
      <trkpt lat="43.60797" lon="6.58267">
        <ele>657</ele>
        <time>2021-06-13T08:31:30.000Z</time>
      </trkpt>
      <trkpt lat="43.60797" lon="6.58268">
        <ele>657</ele>
        <time>2021-06-13T08:31:42.000Z</time>
      </trkpt>
      <trkpt lat="43.60799" lon="6.5827">
        <ele>657.1</ele>
        <time>2021-06-13T08:31:47.000Z</time>
      </trkpt>
      <trkpt lat="43.60799" lon="6.5827">
        <ele>657</ele>
        <time>2021-06-13T08:31:49.000Z</time>
      </trkpt>
      <trkpt lat="43.60799" lon="6.58271">
        <ele>656.9</ele>
        <time>2021-06-13T08:31:54.000Z</time>
      </trkpt>
      <trkpt lat="43.60799" lon="6.58271">
        <ele>657.2</ele>
        <time>2021-06-13T08:31:56.000Z</time>
      </trkpt>
      <trkpt lat="43.60801" lon="6.58272">
        <ele>657.4</ele>
        <time>2021-06-13T08:32:04.000Z</time>
      </trkpt>
      <trkpt lat="43.60801" lon="6.58272">
        <ele>657.3</ele>
        <time>2021-06-13T08:32:11.000Z</time>
      </trkpt>
      <trkpt lat="43.60793" lon="6.5828">
        <ele>656.7</ele>
        <time>2021-06-13T08:32:21.000Z</time>
      </trkpt>
      <trkpt lat="43.60787" lon="6.58291">
        <ele>656.4</ele>
        <time>2021-06-13T08:32:29.000Z</time>
      </trkpt>
      <trkpt lat="43.60782" lon="6.58303">
        <ele>657.3</ele>
        <time>2021-06-13T08:32:37.000Z</time>
      </trkpt>
      <trkpt lat="43.60778" lon="6.58314">
        <ele>658.1</ele>
        <time>2021-06-13T08:32:45.000Z</time>
      </trkpt>
      <trkpt lat="43.60773" lon="6.58325">
        <ele>659</ele>
        <time>2021-06-13T08:32:54.000Z</time>
      </trkpt>
      <trkpt lat="43.60767" lon="6.58335">
        <ele>660.2</ele>
        <time>2021-06-13T08:33:05.000Z</time>
      </trkpt>
      <trkpt lat="43.60761" lon="6.58346">
        <ele>661.1</ele>
        <time>2021-06-13T08:33:16.000Z</time>
      </trkpt>
      <trkpt lat="43.60754" lon="6.58355">
        <ele>661.7</ele>
        <time>2021-06-13T08:33:25.000Z</time>
      </trkpt>
      <trkpt lat="43.60747" lon="6.58363">
        <ele>662.7</ele>
        <time>2021-06-13T08:33:34.000Z</time>
      </trkpt>
      <trkpt lat="43.6074" lon="6.58373">
        <ele>663.9</ele>
        <time>2021-06-13T08:33:44.000Z</time>
      </trkpt>
      <trkpt lat="43.60733" lon="6.58382">
        <ele>664.9</ele>
        <time>2021-06-13T08:33:55.000Z</time>
      </trkpt>
      <trkpt lat="43.60727" lon="6.58392">
        <ele>665.7</ele>
        <time>2021-06-13T08:34:05.000Z</time>
      </trkpt>
      <trkpt lat="43.60727" lon="6.58395">
        <ele>665.9</ele>
        <time>2021-06-13T08:34:10.000Z</time>
      </trkpt>
      <trkpt lat="43.60727" lon="6.58395">
        <ele>665.8</ele>
        <time>2021-06-13T08:34:15.000Z</time>
      </trkpt>
      <trkpt lat="43.60728" lon="6.58396">
        <ele>666.6</ele>
        <time>2021-06-13T08:34:18.000Z</time>
      </trkpt>
      <trkpt lat="43.60728" lon="6.58396">
        <ele>666.5</ele>
        <time>2021-06-13T08:34:25.000Z</time>
      </trkpt>
      <trkpt lat="43.60728" lon="6.58396">
        <ele>666.6</ele>
        <time>2021-06-13T08:34:26.000Z</time>
      </trkpt>
      <trkpt lat="43.60728" lon="6.58396">
        <ele>666.6</ele>
        <time>2021-06-13T08:34:39.000Z</time>
      </trkpt>
      <trkpt lat="43.60727" lon="6.58395">
        <ele>666.1</ele>
        <time>2021-06-13T08:34:42.000Z</time>
      </trkpt>
      <trkpt lat="43.60727" lon="6.58395">
        <ele>666.1</ele>
        <time>2021-06-13T08:34:43.000Z</time>
      </trkpt>
      <trkpt lat="43.60727" lon="6.58394">
        <ele>666.3</ele>
        <time>2021-06-13T08:34:45.000Z</time>
      </trkpt>
      <trkpt lat="43.60727" lon="6.58394">
        <ele>666.2</ele>
        <time>2021-06-13T08:34:46.000Z</time>
      </trkpt>
      <trkpt lat="43.60728" lon="6.58395">
        <ele>666.3</ele>
        <time>2021-06-13T08:34:51.000Z</time>
      </trkpt>
      <trkpt lat="43.60728" lon="6.58395">
        <ele>666.4</ele>
        <time>2021-06-13T08:35:02.000Z</time>
      </trkpt>
      <trkpt lat="43.60728" lon="6.58395">
        <ele>666.4</ele>
        <time>2021-06-13T08:35:03.000Z</time>
      </trkpt>
      <trkpt lat="43.60728" lon="6.58395">
        <ele>666.6</ele>
        <time>2021-06-13T08:35:06.000Z</time>
      </trkpt>
      <trkpt lat="43.60728" lon="6.58395">
        <ele>666.5</ele>
        <time>2021-06-13T08:35:09.000Z</time>
      </trkpt>
      <trkpt lat="43.60728" lon="6.58395">
        <ele>666.5</ele>
        <time>2021-06-13T08:35:18.000Z</time>
      </trkpt>
      <trkpt lat="43.60728" lon="6.58395">
        <ele>666.5</ele>
        <time>2021-06-13T08:35:19.000Z</time>
      </trkpt>
      <trkpt lat="43.60728" lon="6.58395">
        <ele>666.6</ele>
        <time>2021-06-13T08:35:20.000Z</time>
      </trkpt>
      <trkpt lat="43.60726" lon="6.58408">
        <ele>667.7</ele>
        <time>2021-06-13T08:35:38.000Z</time>
      </trkpt>
      <trkpt lat="43.60727" lon="6.58408">
        <ele>667.6</ele>
        <time>2021-06-13T08:35:47.000Z</time>
      </trkpt>
      <trkpt lat="43.60727" lon="6.58408">
        <ele>667.4</ele>
        <time>2021-06-13T08:35:49.000Z</time>
      </trkpt>
      <trkpt lat="43.60727" lon="6.58408">
        <ele>667.5</ele>
        <time>2021-06-13T08:35:51.000Z</time>
      </trkpt>
      <trkpt lat="43.60726" lon="6.58407">
        <ele>667.5</ele>
        <time>2021-06-13T08:35:53.000Z</time>
      </trkpt>
      <trkpt lat="43.60727" lon="6.58408">
        <ele>667.3</ele>
        <time>2021-06-13T08:35:54.000Z</time>
      </trkpt>
      <trkpt lat="43.60736" lon="6.58407">
        <ele>668.8</ele>
        <time>2021-06-13T08:36:09.000Z</time>
      </trkpt>
      <trkpt lat="43.60744" lon="6.58414">
        <ele>671.2</ele>
        <time>2021-06-13T08:36:21.000Z</time>
      </trkpt>
      <trkpt lat="43.60751" lon="6.5842">
        <ele>673.3</ele>
        <time>2021-06-13T08:36:35.000Z</time>
      </trkpt>
      <trkpt lat="43.60759" lon="6.58427">
        <ele>674.7</ele>
        <time>2021-06-13T08:36:48.000Z</time>
      </trkpt>
      <trkpt lat="43.60767" lon="6.58433">
        <ele>676.2</ele>
        <time>2021-06-13T08:37:01.000Z</time>
      </trkpt>
      <trkpt lat="43.60772" lon="6.58443">
        <ele>678.5</ele>
        <time>2021-06-13T08:37:18.000Z</time>
      </trkpt>
      <trkpt lat="43.60776" lon="6.58448">
        <ele>679.7</ele>
        <time>2021-06-13T08:37:26.000Z</time>
      </trkpt>
      <trkpt lat="43.60776" lon="6.58448">
        <ele>679.8</ele>
        <time>2021-06-13T08:37:27.000Z</time>
      </trkpt>
      <trkpt lat="43.60782" lon="6.58459">
        <ele>681.4</ele>
        <time>2021-06-13T08:37:40.000Z</time>
      </trkpt>
      <trkpt lat="43.60791" lon="6.58462">
        <ele>682.5</ele>
        <time>2021-06-13T08:37:50.000Z</time>
      </trkpt>
      <trkpt lat="43.608" lon="6.58466">
        <ele>684.1</ele>
        <time>2021-06-13T08:38:03.000Z</time>
      </trkpt>
      <trkpt lat="43.60809" lon="6.58466">
        <ele>685.7</ele>
        <time>2021-06-13T08:38:13.000Z</time>
      </trkpt>
      <trkpt lat="43.60818" lon="6.58462">
        <ele>686.3</ele>
        <time>2021-06-13T08:38:22.000Z</time>
      </trkpt>
      <trkpt lat="43.60827" lon="6.58465">
        <ele>687.3</ele>
        <time>2021-06-13T08:38:31.000Z</time>
      </trkpt>
      <trkpt lat="43.60837" lon="6.58467">
        <ele>688.2</ele>
        <time>2021-06-13T08:38:43.000Z</time>
      </trkpt>
      <trkpt lat="43.60846" lon="6.5847">
        <ele>688.2</ele>
        <time>2021-06-13T08:38:53.000Z</time>
      </trkpt>
      <trkpt lat="43.60855" lon="6.58472">
        <ele>688.3</ele>
        <time>2021-06-13T08:39:03.000Z</time>
      </trkpt>
      <trkpt lat="43.60855" lon="6.58477">
        <ele>689.3</ele>
        <time>2021-06-13T08:39:14.000Z</time>
      </trkpt>
      <trkpt lat="43.60855" lon="6.58478">
        <ele>689.4</ele>
        <time>2021-06-13T08:39:15.000Z</time>
      </trkpt>
      <trkpt lat="43.60859" lon="6.58489">
        <ele>689.6</ele>
        <time>2021-06-13T08:39:34.000Z</time>
      </trkpt>
      <trkpt lat="43.60865" lon="6.58499">
        <ele>689</ele>
        <time>2021-06-13T08:39:50.000Z</time>
      </trkpt>
      <trkpt lat="43.60864" lon="6.58503">
        <ele>689.5</ele>
        <time>2021-06-13T08:40:03.000Z</time>
      </trkpt>
      <trkpt lat="43.60864" lon="6.58503">
        <ele>689.4</ele>
        <time>2021-06-13T08:40:06.000Z</time>
      </trkpt>
      <trkpt lat="43.60866" lon="6.58499">
        <ele>689.4</ele>
        <time>2021-06-13T08:40:18.000Z</time>
      </trkpt>
      <trkpt lat="43.60866" lon="6.58498">
        <ele>689.3</ele>
        <time>2021-06-13T08:40:21.000Z</time>
      </trkpt>
      <trkpt lat="43.60867" lon="6.58496">
        <ele>689.5</ele>
        <time>2021-06-13T08:40:25.000Z</time>
      </trkpt>
      <trkpt lat="43.60867" lon="6.58497">
        <ele>689.7</ele>
        <time>2021-06-13T08:40:31.000Z</time>
      </trkpt>
      <trkpt lat="43.60865" lon="6.5851">
        <ele>689</ele>
        <time>2021-06-13T08:40:44.000Z</time>
      </trkpt>
      <trkpt lat="43.60865" lon="6.58523">
        <ele>688.6</ele>
        <time>2021-06-13T08:40:59.000Z</time>
      </trkpt>
      <trkpt lat="43.60864" lon="6.58533">
        <ele>688.9</ele>
        <time>2021-06-13T08:41:14.000Z</time>
      </trkpt>
      <trkpt lat="43.60864" lon="6.58533">
        <ele>688.9</ele>
        <time>2021-06-13T08:41:17.000Z</time>
      </trkpt>
      <trkpt lat="43.60864" lon="6.58533">
        <ele>688.9</ele>
        <time>2021-06-13T08:41:19.000Z</time>
      </trkpt>
      <trkpt lat="43.60864" lon="6.58533">
        <ele>688.9</ele>
        <time>2021-06-13T08:41:21.000Z</time>
      </trkpt>
      <trkpt lat="43.60864" lon="6.58534">
        <ele>688.9</ele>
        <time>2021-06-13T08:41:24.000Z</time>
      </trkpt>
      <trkpt lat="43.60864" lon="6.58534">
        <ele>689.4</ele>
        <time>2021-06-13T08:41:43.000Z</time>
      </trkpt>
      <trkpt lat="43.60864" lon="6.58534">
        <ele>689.4</ele>
        <time>2021-06-13T08:41:44.000Z</time>
      </trkpt>
      <trkpt lat="43.60864" lon="6.58534">
        <ele>689.5</ele>
        <time>2021-06-13T08:41:45.000Z</time>
      </trkpt>
      <trkpt lat="43.60864" lon="6.58534">
        <ele>689.3</ele>
        <time>2021-06-13T08:41:46.000Z</time>
      </trkpt>
      <trkpt lat="43.60864" lon="6.58535">
        <ele>689.7</ele>
        <time>2021-06-13T08:42:17.000Z</time>
      </trkpt>
      <trkpt lat="43.60864" lon="6.58535">
        <ele>690.2</ele>
        <time>2021-06-13T08:42:20.000Z</time>
      </trkpt>
      <trkpt lat="43.60864" lon="6.58536">
        <ele>690.4</ele>
        <time>2021-06-13T08:42:21.000Z</time>
      </trkpt>
      <trkpt lat="43.60864" lon="6.58535">
        <ele>690.1</ele>
        <time>2021-06-13T08:42:25.000Z</time>
      </trkpt>
      <trkpt lat="43.60864" lon="6.58535">
        <ele>690.2</ele>
        <time>2021-06-13T08:42:30.000Z</time>
      </trkpt>
      <trkpt lat="43.60866" lon="6.58536">
        <ele>690.3</ele>
        <time>2021-06-13T08:42:34.000Z</time>
      </trkpt>
      <trkpt lat="43.60866" lon="6.58536">
        <ele>690.2</ele>
        <time>2021-06-13T08:42:35.000Z</time>
      </trkpt>
      <trkpt lat="43.60866" lon="6.58536">
        <ele>690.1</ele>
        <time>2021-06-13T08:42:36.000Z</time>
      </trkpt>
      <trkpt lat="43.60866" lon="6.58536">
        <ele>690.2</ele>
        <time>2021-06-13T08:42:42.000Z</time>
      </trkpt>
      <trkpt lat="43.60866" lon="6.58536">
        <ele>690.1</ele>
        <time>2021-06-13T08:42:45.000Z</time>
      </trkpt>
      <trkpt lat="43.60866" lon="6.58536">
        <ele>690.3</ele>
        <time>2021-06-13T08:42:48.000Z</time>
      </trkpt>
      <trkpt lat="43.60866" lon="6.58536">
        <ele>690.4</ele>
        <time>2021-06-13T08:42:49.000Z</time>
      </trkpt>
      <trkpt lat="43.60866" lon="6.58536">
        <ele>690.4</ele>
        <time>2021-06-13T08:42:53.000Z</time>
      </trkpt>
      <trkpt lat="43.60867" lon="6.58537">
        <ele>690</ele>
        <time>2021-06-13T08:43:03.000Z</time>
      </trkpt>
      <trkpt lat="43.60866" lon="6.58537">
        <ele>689.9</ele>
        <time>2021-06-13T08:43:07.000Z</time>
      </trkpt>
      <trkpt lat="43.60866" lon="6.58537">
        <ele>690</ele>
        <time>2021-06-13T08:43:09.000Z</time>
      </trkpt>
      <trkpt lat="43.60866" lon="6.58537">
        <ele>689.9</ele>
        <time>2021-06-13T08:43:12.000Z</time>
      </trkpt>
      <trkpt lat="43.60862" lon="6.58548">
        <ele>689.3</ele>
        <time>2021-06-13T08:43:27.000Z</time>
      </trkpt>
      <trkpt lat="43.60855" lon="6.58555">
        <ele>689.2</ele>
        <time>2021-06-13T08:43:41.000Z</time>
      </trkpt>
      <trkpt lat="43.60853" lon="6.58555">
        <ele>689.1</ele>
        <time>2021-06-13T08:43:47.000Z</time>
      </trkpt>
      <trkpt lat="43.60853" lon="6.58554">
        <ele>689.2</ele>
        <time>2021-06-13T08:43:48.000Z</time>
      </trkpt>
      <trkpt lat="43.60845" lon="6.58545">
        <ele>690.3</ele>
        <time>2021-06-13T08:44:09.000Z</time>
      </trkpt>
      <trkpt lat="43.60836" lon="6.58545">
        <ele>690.5</ele>
        <time>2021-06-13T08:44:37.000Z</time>
      </trkpt>
      <trkpt lat="43.60832" lon="6.58535">
        <ele>690.9</ele>
        <time>2021-06-13T08:44:51.000Z</time>
      </trkpt>
      <trkpt lat="43.6083" lon="6.58522">
        <ele>690.7</ele>
        <time>2021-06-13T08:45:06.000Z</time>
      </trkpt>
      <trkpt lat="43.60836" lon="6.58512">
        <ele>691.2</ele>
        <time>2021-06-13T08:45:25.000Z</time>
      </trkpt>
      <trkpt lat="43.6084" lon="6.58501">
        <ele>691.9</ele>
        <time>2021-06-13T08:45:34.000Z</time>
      </trkpt>
      <trkpt lat="43.6084" lon="6.58501">
        <ele>692</ele>
        <time>2021-06-13T08:45:37.000Z</time>
      </trkpt>
      <trkpt lat="43.60839" lon="6.58501">
        <ele>691.5</ele>
        <time>2021-06-13T08:45:40.000Z</time>
      </trkpt>
      <trkpt lat="43.60838" lon="6.585">
        <ele>692.6</ele>
        <time>2021-06-13T08:45:45.000Z</time>
      </trkpt>
      <trkpt lat="43.60838" lon="6.585">
        <ele>692.3</ele>
        <time>2021-06-13T08:45:47.000Z</time>
      </trkpt>
      <trkpt lat="43.60837" lon="6.58487">
        <ele>693</ele>
        <time>2021-06-13T08:45:59.000Z</time>
      </trkpt>
      <trkpt lat="43.60838" lon="6.58484">
        <ele>693.4</ele>
        <time>2021-06-13T08:46:04.000Z</time>
      </trkpt>
      <trkpt lat="43.60838" lon="6.58483">
        <ele>693.6</ele>
        <time>2021-06-13T08:46:05.000Z</time>
      </trkpt>
      <trkpt lat="43.6084" lon="6.58479">
        <ele>693.5</ele>
        <time>2021-06-13T08:46:14.000Z</time>
      </trkpt>
      <trkpt lat="43.6084" lon="6.5848">
        <ele>693.4</ele>
        <time>2021-06-13T08:46:15.000Z</time>
      </trkpt>
      <trkpt lat="43.6084" lon="6.5848">
        <ele>693.6</ele>
        <time>2021-06-13T08:46:17.000Z</time>
      </trkpt>
      <trkpt lat="43.6084" lon="6.5848">
        <ele>693.5</ele>
        <time>2021-06-13T08:46:18.000Z</time>
      </trkpt>
      <trkpt lat="43.6084" lon="6.58476">
        <ele>693.2</ele>
        <time>2021-06-13T08:46:25.000Z</time>
      </trkpt>
      <trkpt lat="43.60839" lon="6.58475">
        <ele>693.1</ele>
        <time>2021-06-13T08:46:26.000Z</time>
      </trkpt>
      <trkpt lat="43.60836" lon="6.58462">
        <ele>691.8</ele>
        <time>2021-06-13T08:46:39.000Z</time>
      </trkpt>
      <trkpt lat="43.60827" lon="6.58455">
        <ele>691.5</ele>
        <time>2021-06-13T08:46:45.000Z</time>
      </trkpt>
      <trkpt lat="43.60818" lon="6.58453">
        <ele>690.7</ele>
        <time>2021-06-13T08:46:54.000Z</time>
      </trkpt>
      <trkpt lat="43.60809" lon="6.58457">
        <ele>689.9</ele>
        <time>2021-06-13T08:47:06.000Z</time>
      </trkpt>
      <trkpt lat="43.608" lon="6.58456">
        <ele>688.7</ele>
        <time>2021-06-13T08:47:20.000Z</time>
      </trkpt>
      <trkpt lat="43.60791" lon="6.58455">
        <ele>687.9</ele>
        <time>2021-06-13T08:47:33.000Z</time>
      </trkpt>
      <trkpt lat="43.60782" lon="6.58454">
        <ele>686.7</ele>
        <time>2021-06-13T08:47:48.000Z</time>
      </trkpt>
      <trkpt lat="43.60776" lon="6.58443">
        <ele>684.7</ele>
        <time>2021-06-13T08:48:05.000Z</time>
      </trkpt>
      <trkpt lat="43.60772" lon="6.58432">
        <ele>682.4</ele>
        <time>2021-06-13T08:48:21.000Z</time>
      </trkpt>
      <trkpt lat="43.60766" lon="6.58422">
        <ele>681.6</ele>
        <time>2021-06-13T08:48:32.000Z</time>
      </trkpt>
      <trkpt lat="43.60759" lon="6.58414">
        <ele>680.6</ele>
        <time>2021-06-13T08:48:41.000Z</time>
      </trkpt>
      <trkpt lat="43.60752" lon="6.58412">
        <ele>679.5</ele>
        <time>2021-06-13T08:48:56.000Z</time>
      </trkpt>
      <trkpt lat="43.60752" lon="6.58411">
        <ele>679.4</ele>
        <time>2021-06-13T08:48:57.000Z</time>
      </trkpt>
      <trkpt lat="43.60745" lon="6.58405">
        <ele>678</ele>
        <time>2021-06-13T08:49:12.000Z</time>
      </trkpt>
      <trkpt lat="43.60745" lon="6.58405">
        <ele>678</ele>
        <time>2021-06-13T08:49:15.000Z</time>
      </trkpt>
      <trkpt lat="43.6074" lon="6.58402">
        <ele>677</ele>
        <time>2021-06-13T08:49:26.000Z</time>
      </trkpt>
      <trkpt lat="43.60739" lon="6.58401">
        <ele>676.8</ele>
        <time>2021-06-13T08:49:27.000Z</time>
      </trkpt>
      <trkpt lat="43.60736" lon="6.58399">
        <ele>675.5</ele>
        <time>2021-06-13T08:49:36.000Z</time>
      </trkpt>
      <trkpt lat="43.60735" lon="6.58399">
        <ele>675.4</ele>
        <time>2021-06-13T08:49:37.000Z</time>
      </trkpt>
      <trkpt lat="43.60729" lon="6.58399">
        <ele>674.7</ele>
        <time>2021-06-13T08:49:52.000Z</time>
      </trkpt>
      <trkpt lat="43.60729" lon="6.58399">
        <ele>674.4</ele>
        <time>2021-06-13T08:49:55.000Z</time>
      </trkpt>
      <trkpt lat="43.60725" lon="6.58404">
        <ele>674.2</ele>
        <time>2021-06-13T08:50:08.000Z</time>
      </trkpt>
      <trkpt lat="43.60726" lon="6.58404">
        <ele>674.3</ele>
        <time>2021-06-13T08:50:09.000Z</time>
      </trkpt>
      <trkpt lat="43.60726" lon="6.58404">
        <ele>674.6</ele>
        <time>2021-06-13T08:50:10.000Z</time>
      </trkpt>
      <trkpt lat="43.60726" lon="6.58405">
        <ele>674.4</ele>
        <time>2021-06-13T08:50:18.000Z</time>
      </trkpt>
      <trkpt lat="43.60726" lon="6.58406">
        <ele>674.4</ele>
        <time>2021-06-13T08:50:20.000Z</time>
      </trkpt>
      <trkpt lat="43.60726" lon="6.58406">
        <ele>674.5</ele>
        <time>2021-06-13T08:50:22.000Z</time>
      </trkpt>
      <trkpt lat="43.60726" lon="6.58406">
        <ele>674.6</ele>
        <time>2021-06-13T08:50:23.000Z</time>
      </trkpt>
      <trkpt lat="43.60726" lon="6.58407">
        <ele>674.8</ele>
        <time>2021-06-13T08:50:26.000Z</time>
      </trkpt>
      <trkpt lat="43.60726" lon="6.58407">
        <ele>674.8</ele>
        <time>2021-06-13T08:50:27.000Z</time>
      </trkpt>
      <trkpt lat="43.60726" lon="6.58407">
        <ele>674.7</ele>
        <time>2021-06-13T08:50:35.000Z</time>
      </trkpt>
      <trkpt lat="43.60725" lon="6.58408">
        <ele>674.8</ele>
        <time>2021-06-13T08:50:41.000Z</time>
      </trkpt>
      <trkpt lat="43.60725" lon="6.58409">
        <ele>674.9</ele>
        <time>2021-06-13T08:50:44.000Z</time>
      </trkpt>
      <trkpt lat="43.60725" lon="6.58409">
        <ele>674.8</ele>
        <time>2021-06-13T08:50:45.000Z</time>
      </trkpt>
      <trkpt lat="43.60725" lon="6.58409">
        <ele>674.7</ele>
        <time>2021-06-13T08:51:48.000Z</time>
      </trkpt>
      <trkpt lat="43.60725" lon="6.58409">
        <ele>674.8</ele>
        <time>2021-06-13T08:51:49.000Z</time>
      </trkpt>
      <trkpt lat="43.60725" lon="6.5841">
        <ele>675</ele>
        <time>2021-06-13T08:52:17.000Z</time>
      </trkpt>
      <trkpt lat="43.60725" lon="6.5841">
        <ele>674.8</ele>
        <time>2021-06-13T08:52:18.000Z</time>
      </trkpt>
      <trkpt lat="43.60725" lon="6.5841">
        <ele>674.9</ele>
        <time>2021-06-13T08:52:19.000Z</time>
      </trkpt>
      <trkpt lat="43.60725" lon="6.5841">
        <ele>675</ele>
        <time>2021-06-13T08:52:20.000Z</time>
      </trkpt>
      <trkpt lat="43.60725" lon="6.5841">
        <ele>675.4</ele>
        <time>2021-06-13T08:52:29.000Z</time>
      </trkpt>
      <trkpt lat="43.60725" lon="6.5841">
        <ele>675.2</ele>
        <time>2021-06-13T08:52:31.000Z</time>
      </trkpt>
      <trkpt lat="43.60725" lon="6.5841">
        <ele>675.4</ele>
        <time>2021-06-13T08:53:26.000Z</time>
      </trkpt>
      <trkpt lat="43.60727" lon="6.58409">
        <ele>675.8</ele>
        <time>2021-06-13T08:53:33.000Z</time>
      </trkpt>
      <trkpt lat="43.60728" lon="6.58409">
        <ele>675.8</ele>
        <time>2021-06-13T08:53:35.000Z</time>
      </trkpt>
      <trkpt lat="43.60728" lon="6.58409">
        <ele>675.6</ele>
        <time>2021-06-13T08:53:36.000Z</time>
      </trkpt>
      <trkpt lat="43.60728" lon="6.58409">
        <ele>675.5</ele>
        <time>2021-06-13T08:53:38.000Z</time>
      </trkpt>
      <trkpt lat="43.60728" lon="6.58408">
        <ele>675.7</ele>
        <time>2021-06-13T08:53:41.000Z</time>
      </trkpt>
      <trkpt lat="43.60728" lon="6.58407">
        <ele>675.4</ele>
        <time>2021-06-13T08:54:02.000Z</time>
      </trkpt>
      <trkpt lat="43.60722" lon="6.58417">
        <ele>675.9</ele>
        <time>2021-06-13T08:54:16.000Z</time>
      </trkpt>
      <trkpt lat="43.60719" lon="6.58429">
        <ele>676.4</ele>
        <time>2021-06-13T08:54:26.000Z</time>
      </trkpt>
      <trkpt lat="43.60717" lon="6.58442">
        <ele>676.5</ele>
        <time>2021-06-13T08:54:35.000Z</time>
      </trkpt>
      <trkpt lat="43.60715" lon="6.58455">
        <ele>675.9</ele>
        <time>2021-06-13T08:54:45.000Z</time>
      </trkpt>
      <trkpt lat="43.60714" lon="6.58468">
        <ele>674.8</ele>
        <time>2021-06-13T08:54:54.000Z</time>
      </trkpt>
      <trkpt lat="43.60714" lon="6.58481">
        <ele>674.1</ele>
        <time>2021-06-13T08:55:02.000Z</time>
      </trkpt>
      <trkpt lat="43.60717" lon="6.58493">
        <ele>673.8</ele>
        <time>2021-06-13T08:55:10.000Z</time>
      </trkpt>
      <trkpt lat="43.6072" lon="6.58506">
        <ele>673.6</ele>
        <time>2021-06-13T08:55:19.000Z</time>
      </trkpt>
      <trkpt lat="43.60723" lon="6.58519">
        <ele>672.8</ele>
        <time>2021-06-13T08:55:28.000Z</time>
      </trkpt>
      <trkpt lat="43.60726" lon="6.58532">
        <ele>671.5</ele>
        <time>2021-06-13T08:55:37.000Z</time>
      </trkpt>
      <trkpt lat="43.60729" lon="6.58543">
        <ele>670.7</ele>
        <time>2021-06-13T08:55:47.000Z</time>
      </trkpt>
      <trkpt lat="43.60732" lon="6.58555">
        <ele>669.5</ele>
        <time>2021-06-13T08:55:56.000Z</time>
      </trkpt>
      <trkpt lat="43.60734" lon="6.58569">
        <ele>668</ele>
        <time>2021-06-13T08:56:06.000Z</time>
      </trkpt>
      <trkpt lat="43.60739" lon="6.58581">
        <ele>667.4</ele>
        <time>2021-06-13T08:56:15.000Z</time>
      </trkpt>
      <trkpt lat="43.60744" lon="6.58592">
        <ele>666.5</ele>
        <time>2021-06-13T08:56:24.000Z</time>
      </trkpt>
      <trkpt lat="43.60748" lon="6.58604">
        <ele>665.5</ele>
        <time>2021-06-13T08:56:33.000Z</time>
      </trkpt>
      <trkpt lat="43.6075" lon="6.58617">
        <ele>664.3</ele>
        <time>2021-06-13T08:56:41.000Z</time>
      </trkpt>
      <trkpt lat="43.6075" lon="6.5863">
        <ele>663.7</ele>
        <time>2021-06-13T08:56:50.000Z</time>
      </trkpt>
      <trkpt lat="43.60751" lon="6.58644">
        <ele>663.3</ele>
        <time>2021-06-13T08:57:00.000Z</time>
      </trkpt>
      <trkpt lat="43.60748" lon="6.58656">
        <ele>662.7</ele>
        <time>2021-06-13T08:57:11.000Z</time>
      </trkpt>
      <trkpt lat="43.60739" lon="6.5866">
        <ele>661.1</ele>
        <time>2021-06-13T08:57:22.000Z</time>
      </trkpt>
      <trkpt lat="43.60729" lon="6.58658">
        <ele>660</ele>
        <time>2021-06-13T08:57:31.000Z</time>
      </trkpt>
      <trkpt lat="43.60722" lon="6.58651">
        <ele>659.4</ele>
        <time>2021-06-13T08:57:38.000Z</time>
      </trkpt>
      <trkpt lat="43.60713" lon="6.58646">
        <ele>658.4</ele>
        <time>2021-06-13T08:57:48.000Z</time>
      </trkpt>
      <trkpt lat="43.60704" lon="6.5864">
        <ele>657.6</ele>
        <time>2021-06-13T08:57:56.000Z</time>
      </trkpt>
      <trkpt lat="43.60695" lon="6.58636">
        <ele>656.8</ele>
        <time>2021-06-13T08:58:06.000Z</time>
      </trkpt>
      <trkpt lat="43.60685" lon="6.58634">
        <ele>655.7</ele>
        <time>2021-06-13T08:58:15.000Z</time>
      </trkpt>
      <trkpt lat="43.60679" lon="6.58644">
        <ele>655.2</ele>
        <time>2021-06-13T08:58:23.000Z</time>
      </trkpt>
      <trkpt lat="43.60676" lon="6.58656">
        <ele>654.1</ele>
        <time>2021-06-13T08:58:31.000Z</time>
      </trkpt>
      <trkpt lat="43.60672" lon="6.58667">
        <ele>653</ele>
        <time>2021-06-13T08:58:40.000Z</time>
      </trkpt>
      <trkpt lat="43.60668" lon="6.58679">
        <ele>651.5</ele>
        <time>2021-06-13T08:58:51.000Z</time>
      </trkpt>
      <trkpt lat="43.60665" lon="6.58691">
        <ele>650.1</ele>
        <time>2021-06-13T08:59:01.000Z</time>
      </trkpt>
      <trkpt lat="43.60663" lon="6.58705">
        <ele>649.6</ele>
        <time>2021-06-13T08:59:10.000Z</time>
      </trkpt>
      <trkpt lat="43.60661" lon="6.58718">
        <ele>648.5</ele>
        <time>2021-06-13T08:59:18.000Z</time>
      </trkpt>
      <trkpt lat="43.6066" lon="6.58731">
        <ele>647.6</ele>
        <time>2021-06-13T08:59:27.000Z</time>
      </trkpt>
      <trkpt lat="43.60659" lon="6.58743">
        <ele>646.4</ele>
        <time>2021-06-13T08:59:36.000Z</time>
      </trkpt>
      <trkpt lat="43.60657" lon="6.58756">
        <ele>645.2</ele>
        <time>2021-06-13T08:59:46.000Z</time>
      </trkpt>
      <trkpt lat="43.60656" lon="6.58769">
        <ele>644</ele>
        <time>2021-06-13T08:59:55.000Z</time>
      </trkpt>
      <trkpt lat="43.60657" lon="6.58781">
        <ele>643</ele>
        <time>2021-06-13T09:00:04.000Z</time>
      </trkpt>
      <trkpt lat="43.6066" lon="6.58794">
        <ele>642.3</ele>
        <time>2021-06-13T09:00:12.000Z</time>
      </trkpt>
      <trkpt lat="43.60663" lon="6.58807">
        <ele>641.5</ele>
        <time>2021-06-13T09:00:20.000Z</time>
      </trkpt>
      <trkpt lat="43.60666" lon="6.58819">
        <ele>640.2</ele>
        <time>2021-06-13T09:00:29.000Z</time>
      </trkpt>
      <trkpt lat="43.60669" lon="6.58831">
        <ele>639</ele>
        <time>2021-06-13T09:00:37.000Z</time>
      </trkpt>
      <trkpt lat="43.60674" lon="6.58841">
        <ele>638.3</ele>
        <time>2021-06-13T09:00:45.000Z</time>
      </trkpt>
      <trkpt lat="43.60681" lon="6.5885">
        <ele>637</ele>
        <time>2021-06-13T09:00:53.000Z</time>
      </trkpt>
      <trkpt lat="43.60687" lon="6.58861">
        <ele>636</ele>
        <time>2021-06-13T09:01:02.000Z</time>
      </trkpt>
      <trkpt lat="43.60696" lon="6.58863">
        <ele>635.3</ele>
        <time>2021-06-13T09:01:10.000Z</time>
      </trkpt>
      <trkpt lat="43.60705" lon="6.58864">
        <ele>634.7</ele>
        <time>2021-06-13T09:01:18.000Z</time>
      </trkpt>
      <trkpt lat="43.60713" lon="6.58872">
        <ele>633.2</ele>
        <time>2021-06-13T09:01:27.000Z</time>
      </trkpt>
      <trkpt lat="43.60705" lon="6.58877">
        <ele>630.9</ele>
        <time>2021-06-13T09:01:42.000Z</time>
      </trkpt>
      <trkpt lat="43.60695" lon="6.58877">
        <ele>630.1</ele>
        <time>2021-06-13T09:01:51.000Z</time>
      </trkpt>
      <trkpt lat="43.60685" lon="6.58878">
        <ele>629.4</ele>
        <time>2021-06-13T09:01:59.000Z</time>
      </trkpt>
      <trkpt lat="43.60675" lon="6.5888">
        <ele>628.2</ele>
        <time>2021-06-13T09:02:09.000Z</time>
      </trkpt>
      <trkpt lat="43.60666" lon="6.58881">
        <ele>627.1</ele>
        <time>2021-06-13T09:02:17.000Z</time>
      </trkpt>
      <trkpt lat="43.60657" lon="6.5888">
        <ele>626.1</ele>
        <time>2021-06-13T09:02:26.000Z</time>
      </trkpt>
      <trkpt lat="43.60648" lon="6.58876">
        <ele>624.7</ele>
        <time>2021-06-13T09:02:34.000Z</time>
      </trkpt>
      <trkpt lat="43.60641" lon="6.5887">
        <ele>623.5</ele>
        <time>2021-06-13T09:02:42.000Z</time>
      </trkpt>
      <trkpt lat="43.60632" lon="6.58863">
        <ele>622.6</ele>
        <time>2021-06-13T09:02:52.000Z</time>
      </trkpt>
      <trkpt lat="43.60624" lon="6.58855">
        <ele>620.9</ele>
        <time>2021-06-13T09:03:03.000Z</time>
      </trkpt>
      <trkpt lat="43.60618" lon="6.58845">
        <ele>620.1</ele>
        <time>2021-06-13T09:03:12.000Z</time>
      </trkpt>
      <trkpt lat="43.60612" lon="6.58834">
        <ele>619.1</ele>
        <time>2021-06-13T09:03:21.000Z</time>
      </trkpt>
      <trkpt lat="43.60607" lon="6.58824">
        <ele>618.1</ele>
        <time>2021-06-13T09:03:30.000Z</time>
      </trkpt>
      <trkpt lat="43.60602" lon="6.58814">
        <ele>617.8</ele>
        <time>2021-06-13T09:03:40.000Z</time>
      </trkpt>
      <trkpt lat="43.60595" lon="6.58806">
        <ele>616.7</ele>
        <time>2021-06-13T09:03:50.000Z</time>
      </trkpt>
      <trkpt lat="43.60592" lon="6.58818">
        <ele>615.2</ele>
        <time>2021-06-13T09:04:03.000Z</time>
      </trkpt>
      <trkpt lat="43.60595" lon="6.5883">
        <ele>614.2</ele>
        <time>2021-06-13T09:04:12.000Z</time>
      </trkpt>
      <trkpt lat="43.60598" lon="6.58842">
        <ele>614</ele>
        <time>2021-06-13T09:04:20.000Z</time>
      </trkpt>
      <trkpt lat="43.60601" lon="6.58854">
        <ele>613.5</ele>
        <time>2021-06-13T09:04:28.000Z</time>
      </trkpt>
      <trkpt lat="43.60603" lon="6.58867">
        <ele>612.7</ele>
        <time>2021-06-13T09:04:36.000Z</time>
      </trkpt>
      <trkpt lat="43.60605" lon="6.5888">
        <ele>611.9</ele>
        <time>2021-06-13T09:04:45.000Z</time>
      </trkpt>
      <trkpt lat="43.60606" lon="6.58894">
        <ele>610.6</ele>
        <time>2021-06-13T09:04:54.000Z</time>
      </trkpt>
      <trkpt lat="43.60608" lon="6.58907">
        <ele>609.8</ele>
        <time>2021-06-13T09:05:03.000Z</time>
      </trkpt>
      <trkpt lat="43.60611" lon="6.5892">
        <ele>608.9</ele>
        <time>2021-06-13T09:05:12.000Z</time>
      </trkpt>
      <trkpt lat="43.60614" lon="6.58933">
        <ele>608.1</ele>
        <time>2021-06-13T09:05:21.000Z</time>
      </trkpt>
      <trkpt lat="43.6062" lon="6.58943">
        <ele>606.9</ele>
        <time>2021-06-13T09:05:30.000Z</time>
      </trkpt>
      <trkpt lat="43.60624" lon="6.58955">
        <ele>606.3</ele>
        <time>2021-06-13T09:05:38.000Z</time>
      </trkpt>
      <trkpt lat="43.60631" lon="6.58965">
        <ele>605.7</ele>
        <time>2021-06-13T09:05:48.000Z</time>
      </trkpt>
      <trkpt lat="43.60638" lon="6.58973">
        <ele>605.2</ele>
        <time>2021-06-13T09:05:57.000Z</time>
      </trkpt>
      <trkpt lat="43.60646" lon="6.58979">
        <ele>604.3</ele>
        <time>2021-06-13T09:06:05.000Z</time>
      </trkpt>
      <trkpt lat="43.60655" lon="6.58987">
        <ele>603.7</ele>
        <time>2021-06-13T09:06:14.000Z</time>
      </trkpt>
      <trkpt lat="43.60661" lon="6.58996">
        <ele>602.6</ele>
        <time>2021-06-13T09:06:22.000Z</time>
      </trkpt>
      <trkpt lat="43.60668" lon="6.59007">
        <ele>601.5</ele>
        <time>2021-06-13T09:06:31.000Z</time>
      </trkpt>
      <trkpt lat="43.60671" lon="6.59018">
        <ele>600</ele>
        <time>2021-06-13T09:06:41.000Z</time>
      </trkpt>
      <trkpt lat="43.60666" lon="6.59029">
        <ele>597.7</ele>
        <time>2021-06-13T09:06:56.000Z</time>
      </trkpt>
      <trkpt lat="43.60657" lon="6.59033">
        <ele>596</ele>
        <time>2021-06-13T09:07:07.000Z</time>
      </trkpt>
      <trkpt lat="43.60648" lon="6.59038">
        <ele>594.5</ele>
        <time>2021-06-13T09:07:18.000Z</time>
      </trkpt>
      <trkpt lat="43.60638" lon="6.59039">
        <ele>593.2</ele>
        <time>2021-06-13T09:07:27.000Z</time>
      </trkpt>
      <trkpt lat="43.60628" lon="6.59042">
        <ele>592.4</ele>
        <time>2021-06-13T09:07:36.000Z</time>
      </trkpt>
      <trkpt lat="43.60619" lon="6.59042">
        <ele>591.1</ele>
        <time>2021-06-13T09:07:45.000Z</time>
      </trkpt>
      <trkpt lat="43.60609" lon="6.59041">
        <ele>590.5</ele>
        <time>2021-06-13T09:07:53.000Z</time>
      </trkpt>
      <trkpt lat="43.606" lon="6.59044">
        <ele>589.3</ele>
        <time>2021-06-13T09:08:04.000Z</time>
      </trkpt>
      <trkpt lat="43.60591" lon="6.59049">
        <ele>587.7</ele>
        <time>2021-06-13T09:08:14.000Z</time>
      </trkpt>
      <trkpt lat="43.60582" lon="6.59054">
        <ele>586.4</ele>
        <time>2021-06-13T09:08:24.000Z</time>
      </trkpt>
      <trkpt lat="43.60581" lon="6.59068">
        <ele>585.5</ele>
        <time>2021-06-13T09:08:32.000Z</time>
      </trkpt>
      <trkpt lat="43.60584" lon="6.5908">
        <ele>584.5</ele>
        <time>2021-06-13T09:08:40.000Z</time>
      </trkpt>
      <trkpt lat="43.60589" lon="6.5909">
        <ele>583.5</ele>
        <time>2021-06-13T09:08:48.000Z</time>
      </trkpt>
      <trkpt lat="43.60596" lon="6.59099">
        <ele>583.2</ele>
        <time>2021-06-13T09:08:56.000Z</time>
      </trkpt>
      <trkpt lat="43.60602" lon="6.59108">
        <ele>582.2</ele>
        <time>2021-06-13T09:09:05.000Z</time>
      </trkpt>
      <trkpt lat="43.6061" lon="6.59114">
        <ele>581.2</ele>
        <time>2021-06-13T09:09:15.000Z</time>
      </trkpt>
      <trkpt lat="43.6062" lon="6.59117">
        <ele>579.6</ele>
        <time>2021-06-13T09:09:26.000Z</time>
      </trkpt>
      <trkpt lat="43.60629" lon="6.5912">
        <ele>579</ele>
        <time>2021-06-13T09:09:38.000Z</time>
      </trkpt>
      <trkpt lat="43.60638" lon="6.59121">
        <ele>577.6</ele>
        <time>2021-06-13T09:09:48.000Z</time>
      </trkpt>
      <trkpt lat="43.60647" lon="6.59127">
        <ele>575.7</ele>
        <time>2021-06-13T09:09:59.000Z</time>
      </trkpt>
      <trkpt lat="43.60655" lon="6.59132">
        <ele>574.5</ele>
        <time>2021-06-13T09:10:09.000Z</time>
      </trkpt>
      <trkpt lat="43.60664" lon="6.59134">
        <ele>573.2</ele>
        <time>2021-06-13T09:10:18.000Z</time>
      </trkpt>
      <trkpt lat="43.60673" lon="6.59137">
        <ele>571</ele>
        <time>2021-06-13T09:10:30.000Z</time>
      </trkpt>
      <trkpt lat="43.60682" lon="6.59141">
        <ele>570.3</ele>
        <time>2021-06-13T09:10:39.000Z</time>
      </trkpt>
      <trkpt lat="43.60691" lon="6.59142">
        <ele>570.4</ele>
        <time>2021-06-13T09:10:48.000Z</time>
      </trkpt>
      <trkpt lat="43.607" lon="6.59136">
        <ele>570.6</ele>
        <time>2021-06-13T09:10:56.000Z</time>
      </trkpt>
      <trkpt lat="43.60708" lon="6.59128">
        <ele>571</ele>
        <time>2021-06-13T09:11:03.000Z</time>
      </trkpt>
      <trkpt lat="43.60715" lon="6.59119">
        <ele>571.1</ele>
        <time>2021-06-13T09:11:10.000Z</time>
      </trkpt>
      <trkpt lat="43.60721" lon="6.59109">
        <ele>571.3</ele>
        <time>2021-06-13T09:11:18.000Z</time>
      </trkpt>
      <trkpt lat="43.60728" lon="6.591">
        <ele>571.1</ele>
        <time>2021-06-13T09:11:26.000Z</time>
      </trkpt>
      <trkpt lat="43.60736" lon="6.59092">
        <ele>571.1</ele>
        <time>2021-06-13T09:11:34.000Z</time>
      </trkpt>
      <trkpt lat="43.60745" lon="6.59088">
        <ele>571.2</ele>
        <time>2021-06-13T09:11:42.000Z</time>
      </trkpt>
      <trkpt lat="43.60754" lon="6.59085">
        <ele>571.4</ele>
        <time>2021-06-13T09:11:50.000Z</time>
      </trkpt>
      <trkpt lat="43.60763" lon="6.59081">
        <ele>571.2</ele>
        <time>2021-06-13T09:11:57.000Z</time>
      </trkpt>
      <trkpt lat="43.60772" lon="6.59077">
        <ele>571.5</ele>
        <time>2021-06-13T09:12:06.000Z</time>
      </trkpt>
      <trkpt lat="43.6078" lon="6.59071">
        <ele>572.2</ele>
        <time>2021-06-13T09:12:14.000Z</time>
      </trkpt>
      <trkpt lat="43.60789" lon="6.59065">
        <ele>572.7</ele>
        <time>2021-06-13T09:12:22.000Z</time>
      </trkpt>
      <trkpt lat="43.60798" lon="6.59061">
        <ele>572.9</ele>
        <time>2021-06-13T09:12:29.000Z</time>
      </trkpt>
      <trkpt lat="43.60807" lon="6.59056">
        <ele>573.4</ele>
        <time>2021-06-13T09:12:37.000Z</time>
      </trkpt>
      <trkpt lat="43.60816" lon="6.59049">
        <ele>573.9</ele>
        <time>2021-06-13T09:12:46.000Z</time>
      </trkpt>
      <trkpt lat="43.60825" lon="6.59045">
        <ele>573.9</ele>
        <time>2021-06-13T09:12:54.000Z</time>
      </trkpt>
      <trkpt lat="43.60834" lon="6.59039">
        <ele>574.4</ele>
        <time>2021-06-13T09:13:01.000Z</time>
      </trkpt>
      <trkpt lat="43.60842" lon="6.59031">
        <ele>574.6</ele>
        <time>2021-06-13T09:13:09.000Z</time>
      </trkpt>
      <trkpt lat="43.60851" lon="6.59026">
        <ele>574.9</ele>
        <time>2021-06-13T09:13:18.000Z</time>
      </trkpt>
      <trkpt lat="43.60861" lon="6.59024">
        <ele>575.8</ele>
        <time>2021-06-13T09:13:26.000Z</time>
      </trkpt>
      <trkpt lat="43.60871" lon="6.59024">
        <ele>576.2</ele>
        <time>2021-06-13T09:13:34.000Z</time>
      </trkpt>
      <trkpt lat="43.60881" lon="6.59024">
        <ele>576.4</ele>
        <time>2021-06-13T09:13:42.000Z</time>
      </trkpt>
      <trkpt lat="43.6089" lon="6.59022">
        <ele>577</ele>
        <time>2021-06-13T09:13:50.000Z</time>
      </trkpt>
      <trkpt lat="43.609" lon="6.59016">
        <ele>577.2</ele>
        <time>2021-06-13T09:13:58.000Z</time>
      </trkpt>
      <trkpt lat="43.60908" lon="6.59011">
        <ele>577.8</ele>
        <time>2021-06-13T09:14:05.000Z</time>
      </trkpt>
      <trkpt lat="43.60917" lon="6.59005">
        <ele>577.9</ele>
        <time>2021-06-13T09:14:13.000Z</time>
      </trkpt>
      <trkpt lat="43.60925" lon="6.59">
        <ele>578.3</ele>
        <time>2021-06-13T09:14:21.000Z</time>
      </trkpt>
      <trkpt lat="43.60934" lon="6.59002">
        <ele>579.3</ele>
        <time>2021-06-13T09:14:31.000Z</time>
      </trkpt>
      <trkpt lat="43.60943" lon="6.59007">
        <ele>580.8</ele>
        <time>2021-06-13T09:14:43.000Z</time>
      </trkpt>
      <trkpt lat="43.60952" lon="6.59007">
        <ele>581.5</ele>
        <time>2021-06-13T09:14:51.000Z</time>
      </trkpt>
      <trkpt lat="43.60961" lon="6.59003">
        <ele>582.1</ele>
        <time>2021-06-13T09:14:59.000Z</time>
      </trkpt>
      <trkpt lat="43.60969" lon="6.58996">
        <ele>582.4</ele>
        <time>2021-06-13T09:15:06.000Z</time>
      </trkpt>
      <trkpt lat="43.60977" lon="6.58988">
        <ele>582.6</ele>
        <time>2021-06-13T09:15:14.000Z</time>
      </trkpt>
      <trkpt lat="43.60985" lon="6.58983">
        <ele>582.6</ele>
        <time>2021-06-13T09:15:22.000Z</time>
      </trkpt>
      <trkpt lat="43.60995" lon="6.58981">
        <ele>582.6</ele>
        <time>2021-06-13T09:15:32.000Z</time>
      </trkpt>
      <trkpt lat="43.61005" lon="6.58979">
        <ele>582.5</ele>
        <time>2021-06-13T09:15:40.000Z</time>
      </trkpt>
      <trkpt lat="43.61014" lon="6.5898">
        <ele>582.6</ele>
        <time>2021-06-13T09:15:48.000Z</time>
      </trkpt>
      <trkpt lat="43.61024" lon="6.5898">
        <ele>582.5</ele>
        <time>2021-06-13T09:15:56.000Z</time>
      </trkpt>
      <trkpt lat="43.61033" lon="6.58981">
        <ele>581.9</ele>
        <time>2021-06-13T09:16:04.000Z</time>
      </trkpt>
      <trkpt lat="43.61043" lon="6.58981">
        <ele>581.6</ele>
        <time>2021-06-13T09:16:12.000Z</time>
      </trkpt>
      <trkpt lat="43.61052" lon="6.58988">
        <ele>581.9</ele>
        <time>2021-06-13T09:16:21.000Z</time>
      </trkpt>
      <trkpt lat="43.6106" lon="6.58993">
        <ele>582.2</ele>
        <time>2021-06-13T09:16:29.000Z</time>
      </trkpt>
      <trkpt lat="43.61066" lon="6.59003">
        <ele>582.8</ele>
        <time>2021-06-13T09:16:37.000Z</time>
      </trkpt>
      <trkpt lat="43.61074" lon="6.5901">
        <ele>583.1</ele>
        <time>2021-06-13T09:16:46.000Z</time>
      </trkpt>
      <trkpt lat="43.61084" lon="6.5901">
        <ele>583.4</ele>
        <time>2021-06-13T09:16:54.000Z</time>
      </trkpt>
      <trkpt lat="43.61094" lon="6.59006">
        <ele>584.4</ele>
        <time>2021-06-13T09:17:04.000Z</time>
      </trkpt>
      <trkpt lat="43.61102" lon="6.59001">
        <ele>585.2</ele>
        <time>2021-06-13T09:17:13.000Z</time>
      </trkpt>
      <trkpt lat="43.61111" lon="6.58997">
        <ele>586.5</ele>
        <time>2021-06-13T09:17:24.000Z</time>
      </trkpt>
      <trkpt lat="43.61121" lon="6.58993">
        <ele>587.5</ele>
        <time>2021-06-13T09:17:35.000Z</time>
      </trkpt>
      <trkpt lat="43.61129" lon="6.58988">
        <ele>589</ele>
        <time>2021-06-13T09:17:46.000Z</time>
      </trkpt>
      <trkpt lat="43.61137" lon="6.58982">
        <ele>590.2</ele>
        <time>2021-06-13T09:17:57.000Z</time>
      </trkpt>
      <trkpt lat="43.61143" lon="6.58972">
        <ele>591.9</ele>
        <time>2021-06-13T09:18:09.000Z</time>
      </trkpt>
      <trkpt lat="43.61148" lon="6.58961">
        <ele>592.9</ele>
        <time>2021-06-13T09:18:20.000Z</time>
      </trkpt>
      <trkpt lat="43.61154" lon="6.58951">
        <ele>593.7</ele>
        <time>2021-06-13T09:18:31.000Z</time>
      </trkpt>
      <trkpt lat="43.61159" lon="6.5894">
        <ele>595</ele>
        <time>2021-06-13T09:18:43.000Z</time>
      </trkpt>
      <trkpt lat="43.61164" lon="6.58929">
        <ele>596.5</ele>
        <time>2021-06-13T09:18:55.000Z</time>
      </trkpt>
      <trkpt lat="43.61168" lon="6.58917">
        <ele>597.5</ele>
        <time>2021-06-13T09:19:07.000Z</time>
      </trkpt>
      <trkpt lat="43.61172" lon="6.58906">
        <ele>599.1</ele>
        <time>2021-06-13T09:19:18.000Z</time>
      </trkpt>
      <trkpt lat="43.61177" lon="6.58895">
        <ele>600.2</ele>
        <time>2021-06-13T09:19:30.000Z</time>
      </trkpt>
      <trkpt lat="43.61185" lon="6.58887">
        <ele>601.6</ele>
        <time>2021-06-13T09:19:44.000Z</time>
      </trkpt>
      <trkpt lat="43.6119" lon="6.58876">
        <ele>603.2</ele>
        <time>2021-06-13T09:19:57.000Z</time>
      </trkpt>
      <trkpt lat="43.61192" lon="6.58864">
        <ele>603.5</ele>
        <time>2021-06-13T09:20:06.000Z</time>
      </trkpt>
      <trkpt lat="43.61193" lon="6.58851">
        <ele>604.7</ele>
        <time>2021-06-13T09:20:16.000Z</time>
      </trkpt>
      <trkpt lat="43.61195" lon="6.58839">
        <ele>605.9</ele>
        <time>2021-06-13T09:20:27.000Z</time>
      </trkpt>
      <trkpt lat="43.612" lon="6.58827">
        <ele>606.5</ele>
        <time>2021-06-13T09:20:37.000Z</time>
      </trkpt>
      <trkpt lat="43.61204" lon="6.58816">
        <ele>606.5</ele>
        <time>2021-06-13T09:20:46.000Z</time>
      </trkpt>
      <trkpt lat="43.61213" lon="6.58813">
        <ele>606.8</ele>
        <time>2021-06-13T09:20:56.000Z</time>
      </trkpt>
      <trkpt lat="43.61222" lon="6.5881">
        <ele>606.7</ele>
        <time>2021-06-13T09:21:10.000Z</time>
      </trkpt>
      <trkpt lat="43.61226" lon="6.58806">
        <ele>606.8</ele>
        <time>2021-06-13T09:21:21.000Z</time>
      </trkpt>
      <trkpt lat="43.61226" lon="6.58806">
        <ele>607</ele>
        <time>2021-06-13T09:21:30.000Z</time>
      </trkpt>
      <trkpt lat="43.61226" lon="6.58806">
        <ele>607</ele>
        <time>2021-06-13T09:21:31.000Z</time>
      </trkpt>
      <trkpt lat="43.61226" lon="6.58805">
        <ele>607</ele>
        <time>2021-06-13T09:21:32.000Z</time>
      </trkpt>
      <trkpt lat="43.61225" lon="6.58805">
        <ele>607</ele>
        <time>2021-06-13T09:21:35.000Z</time>
      </trkpt>
      <trkpt lat="43.61225" lon="6.58805">
        <ele>606.9</ele>
        <time>2021-06-13T09:21:39.000Z</time>
      </trkpt>
      <trkpt lat="43.61225" lon="6.58805">
        <ele>606.9</ele>
        <time>2021-06-13T09:21:40.000Z</time>
      </trkpt>
      <trkpt lat="43.61225" lon="6.58805">
        <ele>607</ele>
        <time>2021-06-13T09:21:45.000Z</time>
      </trkpt>
      <trkpt lat="43.61223" lon="6.58805">
        <ele>607.5</ele>
        <time>2021-06-13T09:21:52.000Z</time>
      </trkpt>
      <trkpt lat="43.61223" lon="6.58806">
        <ele>607.5</ele>
        <time>2021-06-13T09:21:53.000Z</time>
      </trkpt>
      <trkpt lat="43.61223" lon="6.58806">
        <ele>607.6</ele>
        <time>2021-06-13T09:21:54.000Z</time>
      </trkpt>
      <trkpt lat="43.61223" lon="6.58806">
        <ele>607.4</ele>
        <time>2021-06-13T09:21:57.000Z</time>
      </trkpt>
      <trkpt lat="43.61223" lon="6.58806">
        <ele>607.4</ele>
        <time>2021-06-13T09:21:58.000Z</time>
      </trkpt>
      <trkpt lat="43.61222" lon="6.58805">
        <ele>607.2</ele>
        <time>2021-06-13T09:21:59.000Z</time>
      </trkpt>
      <trkpt lat="43.61222" lon="6.58806">
        <ele>607.1</ele>
        <time>2021-06-13T09:22:00.000Z</time>
      </trkpt>
      <trkpt lat="43.61222" lon="6.58806">
        <ele>606.9</ele>
        <time>2021-06-13T09:22:01.000Z</time>
      </trkpt>
      <trkpt lat="43.61222" lon="6.58806">
        <ele>606.9</ele>
        <time>2021-06-13T09:22:05.000Z</time>
      </trkpt>
      <trkpt lat="43.61222" lon="6.58806">
        <ele>606.8</ele>
        <time>2021-06-13T09:22:12.000Z</time>
      </trkpt>
      <trkpt lat="43.61221" lon="6.58799">
        <ele>606.9</ele>
        <time>2021-06-13T09:22:21.000Z</time>
      </trkpt>
      <trkpt lat="43.61222" lon="6.58799">
        <ele>606.9</ele>
        <time>2021-06-13T09:22:22.000Z</time>
      </trkpt>
      <trkpt lat="43.61222" lon="6.58799">
        <ele>606.8</ele>
        <time>2021-06-13T09:22:23.000Z</time>
      </trkpt>
      <trkpt lat="43.61222" lon="6.58799">
        <ele>607.2</ele>
        <time>2021-06-13T09:22:27.000Z</time>
      </trkpt>
      <trkpt lat="43.61224" lon="6.58799">
        <ele>606.9</ele>
        <time>2021-06-13T09:22:33.000Z</time>
      </trkpt>
      <trkpt lat="43.61224" lon="6.58799">
        <ele>606.6</ele>
        <time>2021-06-13T09:22:37.000Z</time>
      </trkpt>
      <trkpt lat="43.61224" lon="6.58799">
        <ele>606.9</ele>
        <time>2021-06-13T09:22:39.000Z</time>
      </trkpt>
      <trkpt lat="43.61225" lon="6.588">
        <ele>606.8</ele>
        <time>2021-06-13T09:22:42.000Z</time>
      </trkpt>
      <trkpt lat="43.61225" lon="6.588">
        <ele>606.8</ele>
        <time>2021-06-13T09:22:44.000Z</time>
      </trkpt>
      <trkpt lat="43.61225" lon="6.588">
        <ele>606.9</ele>
        <time>2021-06-13T09:22:49.000Z</time>
      </trkpt>
      <trkpt lat="43.61226" lon="6.58804">
        <ele>606.8</ele>
        <time>2021-06-13T09:22:57.000Z</time>
      </trkpt>
      <trkpt lat="43.61225" lon="6.58805">
        <ele>606.9</ele>
        <time>2021-06-13T09:22:58.000Z</time>
      </trkpt>
      <trkpt lat="43.61225" lon="6.58805">
        <ele>607.1</ele>
        <time>2021-06-13T09:23:03.000Z</time>
      </trkpt>
      <trkpt lat="43.61224" lon="6.58805">
        <ele>606.9</ele>
        <time>2021-06-13T09:23:20.000Z</time>
      </trkpt>
      <trkpt lat="43.61223" lon="6.58805">
        <ele>606.8</ele>
        <time>2021-06-13T09:23:24.000Z</time>
      </trkpt>
      <trkpt lat="43.61223" lon="6.58804">
        <ele>607</ele>
        <time>2021-06-13T09:23:38.000Z</time>
      </trkpt>
      <trkpt lat="43.61223" lon="6.58804">
        <ele>606.8</ele>
        <time>2021-06-13T09:23:39.000Z</time>
      </trkpt>
      <trkpt lat="43.61222" lon="6.58804">
        <ele>606.6</ele>
        <time>2021-06-13T09:23:51.000Z</time>
      </trkpt>
      <trkpt lat="43.61222" lon="6.58804">
        <ele>606.6</ele>
        <time>2021-06-13T09:23:52.000Z</time>
      </trkpt>
      <trkpt lat="43.61223" lon="6.58803">
        <ele>606.6</ele>
        <time>2021-06-13T09:24:17.000Z</time>
      </trkpt>
      <trkpt lat="43.61223" lon="6.58802">
        <ele>606.9</ele>
        <time>2021-06-13T09:24:26.000Z</time>
      </trkpt>
      <trkpt lat="43.61223" lon="6.58802">
        <ele>606.6</ele>
        <time>2021-06-13T09:24:29.000Z</time>
      </trkpt>
      <trkpt lat="43.61222" lon="6.58804">
        <ele>606.6</ele>
        <time>2021-06-13T09:24:35.000Z</time>
      </trkpt>
      <trkpt lat="43.61222" lon="6.58804">
        <ele>606.7</ele>
        <time>2021-06-13T09:24:36.000Z</time>
      </trkpt>
      <trkpt lat="43.61222" lon="6.58804">
        <ele>606.7</ele>
        <time>2021-06-13T09:24:37.000Z</time>
      </trkpt>
      <trkpt lat="43.61223" lon="6.58805">
        <ele>606.5</ele>
        <time>2021-06-13T09:24:48.000Z</time>
      </trkpt>
      <trkpt lat="43.6123" lon="6.58813">
        <ele>606.8</ele>
        <time>2021-06-13T09:24:58.000Z</time>
      </trkpt>
      <trkpt lat="43.61238" lon="6.5882">
        <ele>607.7</ele>
        <time>2021-06-13T09:25:08.000Z</time>
      </trkpt>
      <trkpt lat="43.61245" lon="6.58829">
        <ele>609</ele>
        <time>2021-06-13T09:25:20.000Z</time>
      </trkpt>
      <trkpt lat="43.61253" lon="6.58837">
        <ele>609.6</ele>
        <time>2021-06-13T09:25:30.000Z</time>
      </trkpt>
      <trkpt lat="43.61261" lon="6.58845">
        <ele>610.4</ele>
        <time>2021-06-13T09:25:40.000Z</time>
      </trkpt>
      <trkpt lat="43.61268" lon="6.58853">
        <ele>611.1</ele>
        <time>2021-06-13T09:25:49.000Z</time>
      </trkpt>
      <trkpt lat="43.61275" lon="6.58862">
        <ele>612.1</ele>
        <time>2021-06-13T09:25:59.000Z</time>
      </trkpt>
      <trkpt lat="43.61282" lon="6.58872">
        <ele>613</ele>
        <time>2021-06-13T09:26:10.000Z</time>
      </trkpt>
      <trkpt lat="43.61289" lon="6.58881">
        <ele>613.9</ele>
        <time>2021-06-13T09:26:21.000Z</time>
      </trkpt>
      <trkpt lat="43.61297" lon="6.58888">
        <ele>615</ele>
        <time>2021-06-13T09:26:31.000Z</time>
      </trkpt>
      <trkpt lat="43.61306" lon="6.58893">
        <ele>616</ele>
        <time>2021-06-13T09:26:42.000Z</time>
      </trkpt>
      <trkpt lat="43.61315" lon="6.58891">
        <ele>616.9</ele>
        <time>2021-06-13T09:26:52.000Z</time>
      </trkpt>
      <trkpt lat="43.61324" lon="6.58887">
        <ele>617.3</ele>
        <time>2021-06-13T09:27:01.000Z</time>
      </trkpt>
      <trkpt lat="43.61328" lon="6.58882">
        <ele>618.1</ele>
        <time>2021-06-13T09:27:08.000Z</time>
      </trkpt>
      <trkpt lat="43.61328" lon="6.58882">
        <ele>618.3</ele>
        <time>2021-06-13T09:27:09.000Z</time>
      </trkpt>
      <trkpt lat="43.61332" lon="6.5887">
        <ele>618.2</ele>
        <time>2021-06-13T09:27:18.000Z</time>
      </trkpt>
      <trkpt lat="43.61336" lon="6.58859">
        <ele>617.6</ele>
        <time>2021-06-13T09:27:27.000Z</time>
      </trkpt>
      <trkpt lat="43.61339" lon="6.58847">
        <ele>617</ele>
        <time>2021-06-13T09:27:36.000Z</time>
      </trkpt>
      <trkpt lat="43.61339" lon="6.58842">
        <ele>616.8</ele>
        <time>2021-06-13T09:27:45.000Z</time>
      </trkpt>
      <trkpt lat="43.61339" lon="6.58842">
        <ele>616.8</ele>
        <time>2021-06-13T09:27:46.000Z</time>
      </trkpt>
      <trkpt lat="43.61339" lon="6.58843">
        <ele>616.7</ele>
        <time>2021-06-13T09:27:48.000Z</time>
      </trkpt>
      <trkpt lat="43.61339" lon="6.58843">
        <ele>616.8</ele>
        <time>2021-06-13T09:27:51.000Z</time>
      </trkpt>
      <trkpt lat="43.61339" lon="6.58843">
        <ele>616.8</ele>
        <time>2021-06-13T09:27:52.000Z</time>
      </trkpt>
      <trkpt lat="43.61339" lon="6.58842">
        <ele>616.7</ele>
        <time>2021-06-13T09:27:59.000Z</time>
      </trkpt>
      <trkpt lat="43.61341" lon="6.5883">
        <ele>616.6</ele>
        <time>2021-06-13T09:28:12.000Z</time>
      </trkpt>
      <trkpt lat="43.61338" lon="6.58822">
        <ele>616.4</ele>
        <time>2021-06-13T09:28:22.000Z</time>
      </trkpt>
      <trkpt lat="43.61338" lon="6.58821">
        <ele>616.4</ele>
        <time>2021-06-13T09:28:25.000Z</time>
      </trkpt>
      <trkpt lat="43.61337" lon="6.58816">
        <ele>616.4</ele>
        <time>2021-06-13T09:28:34.000Z</time>
      </trkpt>
      <trkpt lat="43.61337" lon="6.58816">
        <ele>616.2</ele>
        <time>2021-06-13T09:28:42.000Z</time>
      </trkpt>
      <trkpt lat="43.61337" lon="6.58815">
        <ele>616.5</ele>
        <time>2021-06-13T09:28:46.000Z</time>
      </trkpt>
      <trkpt lat="43.61337" lon="6.58815">
        <ele>616.4</ele>
        <time>2021-06-13T09:28:47.000Z</time>
      </trkpt>
      <trkpt lat="43.61337" lon="6.58815">
        <ele>616.2</ele>
        <time>2021-06-13T09:28:48.000Z</time>
      </trkpt>
      <trkpt lat="43.61337" lon="6.58814">
        <ele>616.2</ele>
        <time>2021-06-13T09:28:50.000Z</time>
      </trkpt>
      <trkpt lat="43.61336" lon="6.58812">
        <ele>616.2</ele>
        <time>2021-06-13T09:28:55.000Z</time>
      </trkpt>
      <trkpt lat="43.61336" lon="6.58811">
        <ele>616.2</ele>
        <time>2021-06-13T09:28:57.000Z</time>
      </trkpt>
      <trkpt lat="43.61336" lon="6.58811">
        <ele>616.2</ele>
        <time>2021-06-13T09:28:59.000Z</time>
      </trkpt>
      <trkpt lat="43.61336" lon="6.58811">
        <ele>616</ele>
        <time>2021-06-13T09:29:03.000Z</time>
      </trkpt>
      <trkpt lat="43.61336" lon="6.58811">
        <ele>616</ele>
        <time>2021-06-13T09:29:04.000Z</time>
      </trkpt>
      <trkpt lat="43.61336" lon="6.58811">
        <ele>616</ele>
        <time>2021-06-13T09:29:05.000Z</time>
      </trkpt>
      <trkpt lat="43.61336" lon="6.5881">
        <ele>616.2</ele>
        <time>2021-06-13T09:29:07.000Z</time>
      </trkpt>
      <trkpt lat="43.61336" lon="6.5881">
        <ele>616.2</ele>
        <time>2021-06-13T09:29:15.000Z</time>
      </trkpt>
      <trkpt lat="43.61335" lon="6.58816">
        <ele>616.5</ele>
        <time>2021-06-13T09:29:27.000Z</time>
      </trkpt>
      <trkpt lat="43.61335" lon="6.58816">
        <ele>616.5</ele>
        <time>2021-06-13T09:29:29.000Z</time>
      </trkpt>
      <trkpt lat="43.61333" lon="6.58818">
        <ele>616.5</ele>
        <time>2021-06-13T09:29:37.000Z</time>
      </trkpt>
      <trkpt lat="43.61333" lon="6.58818">
        <ele>616.4</ele>
        <time>2021-06-13T09:29:39.000Z</time>
      </trkpt>
      <trkpt lat="43.61333" lon="6.58831">
        <ele>616.8</ele>
        <time>2021-06-13T09:29:51.000Z</time>
      </trkpt>
      <trkpt lat="43.61329" lon="6.58843">
        <ele>617.3</ele>
        <time>2021-06-13T09:30:01.000Z</time>
      </trkpt>
      <trkpt lat="43.61324" lon="6.58845">
        <ele>617</ele>
        <time>2021-06-13T09:30:10.000Z</time>
      </trkpt>
      <trkpt lat="43.61325" lon="6.58845">
        <ele>616.9</ele>
        <time>2021-06-13T09:30:11.000Z</time>
      </trkpt>
      <trkpt lat="43.61328" lon="6.58839">
        <ele>616.7</ele>
        <time>2021-06-13T09:30:25.000Z</time>
      </trkpt>
      <trkpt lat="43.61328" lon="6.58839">
        <ele>616.7</ele>
        <time>2021-06-13T09:30:31.000Z</time>
      </trkpt>
      <trkpt lat="43.61324" lon="6.58851">
        <ele>617</ele>
        <time>2021-06-13T09:30:41.000Z</time>
      </trkpt>
      <trkpt lat="43.61325" lon="6.58864">
        <ele>617.6</ele>
        <time>2021-06-13T09:30:51.000Z</time>
      </trkpt>
      <trkpt lat="43.61322" lon="6.58876">
        <ele>617.8</ele>
        <time>2021-06-13T09:31:02.000Z</time>
      </trkpt>
      <trkpt lat="43.61326" lon="6.58887">
        <ele>617.6</ele>
        <time>2021-06-13T09:31:10.000Z</time>
      </trkpt>
      <trkpt lat="43.61333" lon="6.58895">
        <ele>618.2</ele>
        <time>2021-06-13T09:31:20.000Z</time>
      </trkpt>
      <trkpt lat="43.61341" lon="6.58903">
        <ele>619.2</ele>
        <time>2021-06-13T09:31:32.000Z</time>
      </trkpt>
      <trkpt lat="43.61348" lon="6.58912">
        <ele>620.5</ele>
        <time>2021-06-13T09:31:41.000Z</time>
      </trkpt>
      <trkpt lat="43.61353" lon="6.58922">
        <ele>621</ele>
        <time>2021-06-13T09:31:50.000Z</time>
      </trkpt>
      <trkpt lat="43.61358" lon="6.58933">
        <ele>621.7</ele>
        <time>2021-06-13T09:31:58.000Z</time>
      </trkpt>
      <trkpt lat="43.61364" lon="6.58944">
        <ele>622.7</ele>
        <time>2021-06-13T09:32:09.000Z</time>
      </trkpt>
      <trkpt lat="43.61369" lon="6.58956">
        <ele>623.3</ele>
        <time>2021-06-13T09:32:19.000Z</time>
      </trkpt>
      <trkpt lat="43.61374" lon="6.58967">
        <ele>624.5</ele>
        <time>2021-06-13T09:32:29.000Z</time>
      </trkpt>
      <trkpt lat="43.61379" lon="6.58978">
        <ele>625.2</ele>
        <time>2021-06-13T09:32:39.000Z</time>
      </trkpt>
      <trkpt lat="43.61384" lon="6.58989">
        <ele>626</ele>
        <time>2021-06-13T09:32:49.000Z</time>
      </trkpt>
      <trkpt lat="43.61387" lon="6.59001">
        <ele>626.7</ele>
        <time>2021-06-13T09:33:00.000Z</time>
      </trkpt>
      <trkpt lat="43.61392" lon="6.59012">
        <ele>627.3</ele>
        <time>2021-06-13T09:33:08.000Z</time>
      </trkpt>
      <trkpt lat="43.61397" lon="6.59023">
        <ele>627.9</ele>
        <time>2021-06-13T09:33:17.000Z</time>
      </trkpt>
      <trkpt lat="43.61403" lon="6.59033">
        <ele>628.9</ele>
        <time>2021-06-13T09:33:26.000Z</time>
      </trkpt>
      <trkpt lat="43.61407" lon="6.59045">
        <ele>629.4</ele>
        <time>2021-06-13T09:33:35.000Z</time>
      </trkpt>
      <trkpt lat="43.61413" lon="6.59055">
        <ele>630.3</ele>
        <time>2021-06-13T09:33:46.000Z</time>
      </trkpt>
      <trkpt lat="43.61419" lon="6.59065">
        <ele>631.1</ele>
        <time>2021-06-13T09:33:57.000Z</time>
      </trkpt>
      <trkpt lat="43.61423" lon="6.59076">
        <ele>631.9</ele>
        <time>2021-06-13T09:34:07.000Z</time>
      </trkpt>
      <trkpt lat="43.6143" lon="6.59085">
        <ele>633.1</ele>
        <time>2021-06-13T09:34:16.000Z</time>
      </trkpt>
      <trkpt lat="43.61435" lon="6.59095">
        <ele>633.8</ele>
        <time>2021-06-13T09:34:26.000Z</time>
      </trkpt>
      <trkpt lat="43.61442" lon="6.59105">
        <ele>634.5</ele>
        <time>2021-06-13T09:34:36.000Z</time>
      </trkpt>
      <trkpt lat="43.61447" lon="6.59115">
        <ele>635.5</ele>
        <time>2021-06-13T09:34:48.000Z</time>
      </trkpt>
      <trkpt lat="43.61453" lon="6.59125">
        <ele>636.2</ele>
        <time>2021-06-13T09:34:58.000Z</time>
      </trkpt>
      <trkpt lat="43.6146" lon="6.59135">
        <ele>637</ele>
        <time>2021-06-13T09:35:09.000Z</time>
      </trkpt>
      <trkpt lat="43.61467" lon="6.59144">
        <ele>637.9</ele>
        <time>2021-06-13T09:35:19.000Z</time>
      </trkpt>
      <trkpt lat="43.61472" lon="6.59155">
        <ele>638.9</ele>
        <time>2021-06-13T09:35:30.000Z</time>
      </trkpt>
      <trkpt lat="43.61477" lon="6.59165">
        <ele>639.9</ele>
        <time>2021-06-13T09:35:40.000Z</time>
      </trkpt>
      <trkpt lat="43.61481" lon="6.59177">
        <ele>640.9</ele>
        <time>2021-06-13T09:35:51.000Z</time>
      </trkpt>
      <trkpt lat="43.61483" lon="6.5919">
        <ele>641.7</ele>
        <time>2021-06-13T09:36:00.000Z</time>
      </trkpt>
      <trkpt lat="43.61489" lon="6.592">
        <ele>642.5</ele>
        <time>2021-06-13T09:36:09.000Z</time>
      </trkpt>
      <trkpt lat="43.61496" lon="6.59209">
        <ele>642.9</ele>
        <time>2021-06-13T09:36:17.000Z</time>
      </trkpt>
      <trkpt lat="43.61505" lon="6.59214">
        <ele>643.3</ele>
        <time>2021-06-13T09:36:25.000Z</time>
      </trkpt>
      <trkpt lat="43.61515" lon="6.59213">
        <ele>644.1</ele>
        <time>2021-06-13T09:36:34.000Z</time>
      </trkpt>
      <trkpt lat="43.61524" lon="6.59209">
        <ele>644.9</ele>
        <time>2021-06-13T09:36:42.000Z</time>
      </trkpt>
      <trkpt lat="43.61532" lon="6.59204">
        <ele>645</ele>
        <time>2021-06-13T09:36:50.000Z</time>
      </trkpt>
      <trkpt lat="43.61542" lon="6.59203">
        <ele>645.5</ele>
        <time>2021-06-13T09:36:59.000Z</time>
      </trkpt>
      <trkpt lat="43.61551" lon="6.59205">
        <ele>646.5</ele>
        <time>2021-06-13T09:37:08.000Z</time>
      </trkpt>
      <trkpt lat="43.6156" lon="6.59211">
        <ele>647</ele>
        <time>2021-06-13T09:37:18.000Z</time>
      </trkpt>
      <trkpt lat="43.61569" lon="6.59216">
        <ele>647.9</ele>
        <time>2021-06-13T09:37:28.000Z</time>
      </trkpt>
      <trkpt lat="43.61578" lon="6.59221">
        <ele>648.5</ele>
        <time>2021-06-13T09:37:37.000Z</time>
      </trkpt>
      <trkpt lat="43.61586" lon="6.59229">
        <ele>648.8</ele>
        <time>2021-06-13T09:37:47.000Z</time>
      </trkpt>
      <trkpt lat="43.6159" lon="6.59242">
        <ele>649.3</ele>
        <time>2021-06-13T09:37:57.000Z</time>
      </trkpt>
      <trkpt lat="43.61594" lon="6.59254">
        <ele>649.9</ele>
        <time>2021-06-13T09:38:07.000Z</time>
      </trkpt>
      <trkpt lat="43.61598" lon="6.59265">
        <ele>650.2</ele>
        <time>2021-06-13T09:38:15.000Z</time>
      </trkpt>
      <trkpt lat="43.61603" lon="6.59276">
        <ele>650.4</ele>
        <time>2021-06-13T09:38:23.000Z</time>
      </trkpt>
      <trkpt lat="43.61609" lon="6.59286">
        <ele>650.5</ele>
        <time>2021-06-13T09:38:31.000Z</time>
      </trkpt>
      <trkpt lat="43.61615" lon="6.59297">
        <ele>650.5</ele>
        <time>2021-06-13T09:38:40.000Z</time>
      </trkpt>
      <trkpt lat="43.61622" lon="6.59306">
        <ele>650.4</ele>
        <time>2021-06-13T09:38:48.000Z</time>
      </trkpt>
      <trkpt lat="43.61627" lon="6.59316">
        <ele>650.2</ele>
        <time>2021-06-13T09:38:56.000Z</time>
      </trkpt>
      <trkpt lat="43.61633" lon="6.59328">
        <ele>650</ele>
        <time>2021-06-13T09:39:04.000Z</time>
      </trkpt>
      <trkpt lat="43.61638" lon="6.59338">
        <ele>650.2</ele>
        <time>2021-06-13T09:39:13.000Z</time>
      </trkpt>
      <trkpt lat="43.61645" lon="6.59347">
        <ele>649.9</ele>
        <time>2021-06-13T09:39:22.000Z</time>
      </trkpt>
      <trkpt lat="43.61651" lon="6.59357">
        <ele>650</ele>
        <time>2021-06-13T09:39:32.000Z</time>
      </trkpt>
      <trkpt lat="43.61657" lon="6.59368">
        <ele>650.2</ele>
        <time>2021-06-13T09:39:41.000Z</time>
      </trkpt>
      <trkpt lat="43.61664" lon="6.59377">
        <ele>650</ele>
        <time>2021-06-13T09:39:49.000Z</time>
      </trkpt>
      <trkpt lat="43.6167" lon="6.59387">
        <ele>650.4</ele>
        <time>2021-06-13T09:39:58.000Z</time>
      </trkpt>
      <trkpt lat="43.61677" lon="6.59397">
        <ele>650.4</ele>
        <time>2021-06-13T09:40:08.000Z</time>
      </trkpt>
      <trkpt lat="43.61682" lon="6.59408">
        <ele>650.6</ele>
        <time>2021-06-13T09:40:18.000Z</time>
      </trkpt>
      <trkpt lat="43.61684" lon="6.59421">
        <ele>650.9</ele>
        <time>2021-06-13T09:40:29.000Z</time>
      </trkpt>
      <trkpt lat="43.61686" lon="6.59421">
        <ele>651.2</ele>
        <time>2021-06-13T09:40:34.000Z</time>
      </trkpt>
      <trkpt lat="43.61686" lon="6.5942">
        <ele>650.5</ele>
        <time>2021-06-13T09:40:35.000Z</time>
      </trkpt>
      <trkpt lat="43.61686" lon="6.5942">
        <ele>651.1</ele>
        <time>2021-06-13T09:40:36.000Z</time>
      </trkpt>
      <trkpt lat="43.61686" lon="6.5942">
        <ele>651.5</ele>
        <time>2021-06-13T09:40:37.000Z</time>
      </trkpt>
      <trkpt lat="43.61686" lon="6.59419">
        <ele>651.6</ele>
        <time>2021-06-13T09:40:41.000Z</time>
      </trkpt>
      <trkpt lat="43.61686" lon="6.59418">
        <ele>652</ele>
        <time>2021-06-13T09:40:47.000Z</time>
      </trkpt>
      <trkpt lat="43.61686" lon="6.59418">
        <ele>651.7</ele>
        <time>2021-06-13T09:40:49.000Z</time>
      </trkpt>
      <trkpt lat="43.61686" lon="6.59418">
        <ele>651.5</ele>
        <time>2021-06-13T09:41:07.000Z</time>
      </trkpt>
      <trkpt lat="43.61686" lon="6.59418">
        <ele>651.6</ele>
        <time>2021-06-13T09:41:08.000Z</time>
      </trkpt>
      <trkpt lat="43.61686" lon="6.59418">
        <ele>651.8</ele>
        <time>2021-06-13T09:41:33.000Z</time>
      </trkpt>
      <trkpt lat="43.61688" lon="6.59416">
        <ele>651.9</ele>
        <time>2021-06-13T09:41:40.000Z</time>
      </trkpt>
      <trkpt lat="43.61688" lon="6.59416">
        <ele>652.1</ele>
        <time>2021-06-13T09:41:49.000Z</time>
      </trkpt>
      <trkpt lat="43.61688" lon="6.59416">
        <ele>652.1</ele>
        <time>2021-06-13T09:41:51.000Z</time>
      </trkpt>
      <trkpt lat="43.61688" lon="6.59415">
        <ele>651.8</ele>
        <time>2021-06-13T09:42:09.000Z</time>
      </trkpt>
      <trkpt lat="43.61688" lon="6.59415">
        <ele>651.9</ele>
        <time>2021-06-13T09:42:10.000Z</time>
      </trkpt>
      <trkpt lat="43.61688" lon="6.59415">
        <ele>651.6</ele>
        <time>2021-06-13T09:42:19.000Z</time>
      </trkpt>
      <trkpt lat="43.61687" lon="6.59416">
        <ele>651.6</ele>
        <time>2021-06-13T09:42:21.000Z</time>
      </trkpt>
      <trkpt lat="43.61687" lon="6.59416">
        <ele>651.4</ele>
        <time>2021-06-13T09:42:22.000Z</time>
      </trkpt>
      <trkpt lat="43.61687" lon="6.59416">
        <ele>651.2</ele>
        <time>2021-06-13T09:42:23.000Z</time>
      </trkpt>
      <trkpt lat="43.61688" lon="6.59417">
        <ele>651.3</ele>
        <time>2021-06-13T09:42:24.000Z</time>
      </trkpt>
      <trkpt lat="43.61688" lon="6.59416">
        <ele>651.4</ele>
        <time>2021-06-13T09:42:27.000Z</time>
      </trkpt>
      <trkpt lat="43.61688" lon="6.59416">
        <ele>651.3</ele>
        <time>2021-06-13T09:42:28.000Z</time>
      </trkpt>
      <trkpt lat="43.61688" lon="6.59415">
        <ele>651.3</ele>
        <time>2021-06-13T09:42:33.000Z</time>
      </trkpt>
      <trkpt lat="43.61687" lon="6.59415">
        <ele>651.4</ele>
        <time>2021-06-13T09:42:34.000Z</time>
      </trkpt>
      <trkpt lat="43.61687" lon="6.59415">
        <ele>651.3</ele>
        <time>2021-06-13T09:42:36.000Z</time>
      </trkpt>
      <trkpt lat="43.61687" lon="6.59414">
        <ele>651.4</ele>
        <time>2021-06-13T09:42:47.000Z</time>
      </trkpt>
      <trkpt lat="43.61687" lon="6.59414">
        <ele>651.4</ele>
        <time>2021-06-13T09:42:48.000Z</time>
      </trkpt>
      <trkpt lat="43.61688" lon="6.59414">
        <ele>651.6</ele>
        <time>2021-06-13T09:43:10.000Z</time>
      </trkpt>
      <trkpt lat="43.61689" lon="6.59416">
        <ele>651.3</ele>
        <time>2021-06-13T09:43:15.000Z</time>
      </trkpt>
      <trkpt lat="43.61689" lon="6.59416">
        <ele>651.4</ele>
        <time>2021-06-13T09:43:25.000Z</time>
      </trkpt>
      <trkpt lat="43.61689" lon="6.59417">
        <ele>651.5</ele>
        <time>2021-06-13T09:43:28.000Z</time>
      </trkpt>
      <trkpt lat="43.61689" lon="6.59417">
        <ele>651.4</ele>
        <time>2021-06-13T09:43:29.000Z</time>
      </trkpt>
      <trkpt lat="43.61689" lon="6.59417">
        <ele>651.3</ele>
        <time>2021-06-13T09:43:30.000Z</time>
      </trkpt>
      <trkpt lat="43.61689" lon="6.59417">
        <ele>651.3</ele>
        <time>2021-06-13T09:43:31.000Z</time>
      </trkpt>
      <trkpt lat="43.61689" lon="6.59416">
        <ele>651.3</ele>
        <time>2021-06-13T09:43:32.000Z</time>
      </trkpt>
      <trkpt lat="43.6169" lon="6.59417">
        <ele>651.4</ele>
        <time>2021-06-13T09:43:35.000Z</time>
      </trkpt>
      <trkpt lat="43.61691" lon="6.5942">
        <ele>651.6</ele>
        <time>2021-06-13T09:43:41.000Z</time>
      </trkpt>
      <trkpt lat="43.61691" lon="6.5942">
        <ele>651.7</ele>
        <time>2021-06-13T09:43:46.000Z</time>
      </trkpt>
      <trkpt lat="43.61696" lon="6.59432">
        <ele>652.5</ele>
        <time>2021-06-13T09:43:57.000Z</time>
      </trkpt>
      <trkpt lat="43.61698" lon="6.59444">
        <ele>653.4</ele>
        <time>2021-06-13T09:44:07.000Z</time>
      </trkpt>
      <trkpt lat="43.617" lon="6.59456">
        <ele>654.4</ele>
        <time>2021-06-13T09:44:18.000Z</time>
      </trkpt>
      <trkpt lat="43.61703" lon="6.59469">
        <ele>655.4</ele>
        <time>2021-06-13T09:44:29.000Z</time>
      </trkpt>
      <trkpt lat="43.61703" lon="6.59482">
        <ele>656.4</ele>
        <time>2021-06-13T09:44:39.000Z</time>
      </trkpt>
      <trkpt lat="43.61702" lon="6.59495">
        <ele>657.4</ele>
        <time>2021-06-13T09:44:49.000Z</time>
      </trkpt>
      <trkpt lat="43.61705" lon="6.59507">
        <ele>658.5</ele>
        <time>2021-06-13T09:45:00.000Z</time>
      </trkpt>
      <trkpt lat="43.61707" lon="6.5952">
        <ele>659.3</ele>
        <time>2021-06-13T09:45:11.000Z</time>
      </trkpt>
      <trkpt lat="43.61705" lon="6.59533">
        <ele>660.3</ele>
        <time>2021-06-13T09:45:21.000Z</time>
      </trkpt>
      <trkpt lat="43.61709" lon="6.59545">
        <ele>661.5</ele>
        <time>2021-06-13T09:45:32.000Z</time>
      </trkpt>
      <trkpt lat="43.6171" lon="6.59558">
        <ele>662.1</ele>
        <time>2021-06-13T09:45:42.000Z</time>
      </trkpt>
      <trkpt lat="43.61707" lon="6.5957">
        <ele>662.9</ele>
        <time>2021-06-13T09:45:52.000Z</time>
      </trkpt>
      <trkpt lat="43.61707" lon="6.59583">
        <ele>663.8</ele>
        <time>2021-06-13T09:46:02.000Z</time>
      </trkpt>
      <trkpt lat="43.61709" lon="6.59596">
        <ele>664.6</ele>
        <time>2021-06-13T09:46:11.000Z</time>
      </trkpt>
      <trkpt lat="43.61712" lon="6.59608">
        <ele>665.7</ele>
        <time>2021-06-13T09:46:21.000Z</time>
      </trkpt>
      <trkpt lat="43.61715" lon="6.59621">
        <ele>666.3</ele>
        <time>2021-06-13T09:46:30.000Z</time>
      </trkpt>
      <trkpt lat="43.61718" lon="6.59634">
        <ele>667.2</ele>
        <time>2021-06-13T09:46:39.000Z</time>
      </trkpt>
      <trkpt lat="43.61717" lon="6.59647">
        <ele>667.9</ele>
        <time>2021-06-13T09:46:49.000Z</time>
      </trkpt>
      <trkpt lat="43.61719" lon="6.59661">
        <ele>668.5</ele>
        <time>2021-06-13T09:46:58.000Z</time>
      </trkpt>
      <trkpt lat="43.61721" lon="6.59673">
        <ele>669.1</ele>
        <time>2021-06-13T09:47:06.000Z</time>
      </trkpt>
      <trkpt lat="43.61727" lon="6.59683">
        <ele>669.8</ele>
        <time>2021-06-13T09:47:16.000Z</time>
      </trkpt>
      <trkpt lat="43.61735" lon="6.59678">
        <ele>670.4</ele>
        <time>2021-06-13T09:47:26.000Z</time>
      </trkpt>
      <trkpt lat="43.61736" lon="6.59664">
        <ele>670.6</ele>
        <time>2021-06-13T09:47:35.000Z</time>
      </trkpt>
      <trkpt lat="43.61737" lon="6.5965">
        <ele>671.2</ele>
        <time>2021-06-13T09:47:43.000Z</time>
      </trkpt>
      <trkpt lat="43.61737" lon="6.59637">
        <ele>671.7</ele>
        <time>2021-06-13T09:47:52.000Z</time>
      </trkpt>
      <trkpt lat="43.61736" lon="6.59624">
        <ele>672.6</ele>
        <time>2021-06-13T09:48:02.000Z</time>
      </trkpt>
      <trkpt lat="43.61737" lon="6.5961">
        <ele>673.5</ele>
        <time>2021-06-13T09:48:13.000Z</time>
      </trkpt>
      <trkpt lat="43.61744" lon="6.596">
        <ele>674.6</ele>
        <time>2021-06-13T09:48:22.000Z</time>
      </trkpt>
      <trkpt lat="43.61751" lon="6.59592">
        <ele>675.5</ele>
        <time>2021-06-13T09:48:31.000Z</time>
      </trkpt>
      <trkpt lat="43.61759" lon="6.59587">
        <ele>676.3</ele>
        <time>2021-06-13T09:48:40.000Z</time>
      </trkpt>
      <trkpt lat="43.61767" lon="6.59579">
        <ele>677</ele>
        <time>2021-06-13T09:48:50.000Z</time>
      </trkpt>
      <trkpt lat="43.61775" lon="6.59571">
        <ele>677.8</ele>
        <time>2021-06-13T09:49:00.000Z</time>
      </trkpt>
      <trkpt lat="43.61783" lon="6.59564">
        <ele>679.2</ele>
        <time>2021-06-13T09:49:12.000Z</time>
      </trkpt>
      <trkpt lat="43.61792" lon="6.59561">
        <ele>679.9</ele>
        <time>2021-06-13T09:49:22.000Z</time>
      </trkpt>
      <trkpt lat="43.61801" lon="6.59559">
        <ele>680.9</ele>
        <time>2021-06-13T09:49:32.000Z</time>
      </trkpt>
      <trkpt lat="43.6181" lon="6.59557">
        <ele>681.2</ele>
        <time>2021-06-13T09:49:43.000Z</time>
      </trkpt>
      <trkpt lat="43.61819" lon="6.59554">
        <ele>682.4</ele>
        <time>2021-06-13T09:49:54.000Z</time>
      </trkpt>
      <trkpt lat="43.61828" lon="6.59552">
        <ele>683.8</ele>
        <time>2021-06-13T09:50:06.000Z</time>
      </trkpt>
      <trkpt lat="43.61838" lon="6.5955">
        <ele>684.8</ele>
        <time>2021-06-13T09:50:18.000Z</time>
      </trkpt>
      <trkpt lat="43.61848" lon="6.5955">
        <ele>685.8</ele>
        <time>2021-06-13T09:50:29.000Z</time>
      </trkpt>
      <trkpt lat="43.61857" lon="6.59549">
        <ele>686.5</ele>
        <time>2021-06-13T09:50:39.000Z</time>
      </trkpt>
      <trkpt lat="43.61866" lon="6.59552">
        <ele>687.8</ele>
        <time>2021-06-13T09:50:51.000Z</time>
      </trkpt>
      <trkpt lat="43.61875" lon="6.59555">
        <ele>688.7</ele>
        <time>2021-06-13T09:51:02.000Z</time>
      </trkpt>
      <trkpt lat="43.61884" lon="6.59558">
        <ele>689.7</ele>
        <time>2021-06-13T09:51:12.000Z</time>
      </trkpt>
      <trkpt lat="43.61893" lon="6.59561">
        <ele>690.5</ele>
        <time>2021-06-13T09:51:23.000Z</time>
      </trkpt>
      <trkpt lat="43.61902" lon="6.59566">
        <ele>691.7</ele>
        <time>2021-06-13T09:51:32.000Z</time>
      </trkpt>
      <trkpt lat="43.6191" lon="6.59573">
        <ele>692.6</ele>
        <time>2021-06-13T09:51:41.000Z</time>
      </trkpt>
      <trkpt lat="43.61916" lon="6.59582">
        <ele>693.2</ele>
        <time>2021-06-13T09:51:51.000Z</time>
      </trkpt>
      <trkpt lat="43.61923" lon="6.59592">
        <ele>694.1</ele>
        <time>2021-06-13T09:52:04.000Z</time>
      </trkpt>
      <trkpt lat="43.61929" lon="6.59601">
        <ele>694.7</ele>
        <time>2021-06-13T09:52:13.000Z</time>
      </trkpt>
      <trkpt lat="43.61936" lon="6.5961">
        <ele>695.7</ele>
        <time>2021-06-13T09:52:24.000Z</time>
      </trkpt>
      <trkpt lat="43.61943" lon="6.59618">
        <ele>696.6</ele>
        <time>2021-06-13T09:52:34.000Z</time>
      </trkpt>
      <trkpt lat="43.61948" lon="6.59629">
        <ele>697.6</ele>
        <time>2021-06-13T09:52:45.000Z</time>
      </trkpt>
      <trkpt lat="43.61952" lon="6.59641">
        <ele>698.5</ele>
        <time>2021-06-13T09:52:57.000Z</time>
      </trkpt>
      <trkpt lat="43.61953" lon="6.59654">
        <ele>699.5</ele>
        <time>2021-06-13T09:53:09.000Z</time>
      </trkpt>
      <trkpt lat="43.61953" lon="6.59667">
        <ele>700.7</ele>
        <time>2021-06-13T09:53:19.000Z</time>
      </trkpt>
      <trkpt lat="43.61958" lon="6.59678">
        <ele>700.7</ele>
        <time>2021-06-13T09:53:30.000Z</time>
      </trkpt>
      <trkpt lat="43.61968" lon="6.59681">
        <ele>700.8</ele>
        <time>2021-06-13T09:53:38.000Z</time>
      </trkpt>
      <trkpt lat="43.61977" lon="6.59685">
        <ele>701.7</ele>
        <time>2021-06-13T09:53:49.000Z</time>
      </trkpt>
      <trkpt lat="43.61971" lon="6.59696">
        <ele>702.7</ele>
        <time>2021-06-13T09:54:06.000Z</time>
      </trkpt>
      <trkpt lat="43.61964" lon="6.59704">
        <ele>704</ele>
        <time>2021-06-13T09:54:17.000Z</time>
      </trkpt>
      <trkpt lat="43.6196" lon="6.59715">
        <ele>704.6</ele>
        <time>2021-06-13T09:54:29.000Z</time>
      </trkpt>
      <trkpt lat="43.61955" lon="6.59726">
        <ele>705.7</ele>
        <time>2021-06-13T09:54:42.000Z</time>
      </trkpt>
      <trkpt lat="43.61947" lon="6.59733">
        <ele>706.4</ele>
        <time>2021-06-13T09:54:54.000Z</time>
      </trkpt>
      <trkpt lat="43.61937" lon="6.59734">
        <ele>708.1</ele>
        <time>2021-06-13T09:55:06.000Z</time>
      </trkpt>
      <trkpt lat="43.61933" lon="6.59732">
        <ele>708.5</ele>
        <time>2021-06-13T09:55:13.000Z</time>
      </trkpt>
      <trkpt lat="43.61933" lon="6.59732">
        <ele>708.5</ele>
        <time>2021-06-13T09:55:14.000Z</time>
      </trkpt>
      <trkpt lat="43.61932" lon="6.5972">
        <ele>709</ele>
        <time>2021-06-13T09:55:29.000Z</time>
      </trkpt>
      <trkpt lat="43.61936" lon="6.59709">
        <ele>709.8</ele>
        <time>2021-06-13T09:55:41.000Z</time>
      </trkpt>
      <trkpt lat="43.6194" lon="6.59697">
        <ele>710.4</ele>
        <time>2021-06-13T09:55:52.000Z</time>
      </trkpt>
      <trkpt lat="43.61938" lon="6.59685">
        <ele>711</ele>
        <time>2021-06-13T09:56:03.000Z</time>
      </trkpt>
      <trkpt lat="43.61936" lon="6.59672">
        <ele>711.6</ele>
        <time>2021-06-13T09:56:14.000Z</time>
      </trkpt>
      <trkpt lat="43.61931" lon="6.59661">
        <ele>712.5</ele>
        <time>2021-06-13T09:56:25.000Z</time>
      </trkpt>
      <trkpt lat="43.61928" lon="6.59649">
        <ele>713.7</ele>
        <time>2021-06-13T09:56:36.000Z</time>
      </trkpt>
      <trkpt lat="43.61921" lon="6.59641">
        <ele>714.4</ele>
        <time>2021-06-13T09:56:46.000Z</time>
      </trkpt>
      <trkpt lat="43.61912" lon="6.59635">
        <ele>715.3</ele>
        <time>2021-06-13T09:57:00.000Z</time>
      </trkpt>
      <trkpt lat="43.61903" lon="6.59632">
        <ele>716.1</ele>
        <time>2021-06-13T09:57:09.000Z</time>
      </trkpt>
      <trkpt lat="43.61893" lon="6.59633">
        <ele>716.7</ele>
        <time>2021-06-13T09:57:19.000Z</time>
      </trkpt>
      <trkpt lat="43.6189" lon="6.59633">
        <ele>717.3</ele>
        <time>2021-06-13T09:57:27.000Z</time>
      </trkpt>
      <trkpt lat="43.61889" lon="6.59634">
        <ele>717.5</ele>
        <time>2021-06-13T09:57:28.000Z</time>
      </trkpt>
      <trkpt lat="43.6188" lon="6.59633">
        <ele>718.2</ele>
        <time>2021-06-13T09:57:38.000Z</time>
      </trkpt>
      <trkpt lat="43.61872" lon="6.59638">
        <ele>718.7</ele>
        <time>2021-06-13T09:57:47.000Z</time>
      </trkpt>
      <trkpt lat="43.61865" lon="6.59647">
        <ele>718.4</ele>
        <time>2021-06-13T09:57:55.000Z</time>
      </trkpt>
      <trkpt lat="43.61858" lon="6.59656">
        <ele>718.4</ele>
        <time>2021-06-13T09:58:03.000Z</time>
      </trkpt>
      <trkpt lat="43.61854" lon="6.59668">
        <ele>718.6</ele>
        <time>2021-06-13T09:58:13.000Z</time>
      </trkpt>
      <trkpt lat="43.6185" lon="6.59681">
        <ele>718.6</ele>
        <time>2021-06-13T09:58:23.000Z</time>
      </trkpt>
      <trkpt lat="43.61848" lon="6.59693">
        <ele>718.6</ele>
        <time>2021-06-13T09:58:32.000Z</time>
      </trkpt>
      <trkpt lat="43.61845" lon="6.59704">
        <ele>718.4</ele>
        <time>2021-06-13T09:58:42.000Z</time>
      </trkpt>
      <trkpt lat="43.61842" lon="6.59717">
        <ele>718.3</ele>
        <time>2021-06-13T09:58:51.000Z</time>
      </trkpt>
      <trkpt lat="43.61842" lon="6.5973">
        <ele>718.4</ele>
        <time>2021-06-13T09:59:00.000Z</time>
      </trkpt>
      <trkpt lat="43.61845" lon="6.59743">
        <ele>718.4</ele>
        <time>2021-06-13T09:59:08.000Z</time>
      </trkpt>
      <trkpt lat="43.61848" lon="6.59755">
        <ele>718.7</ele>
        <time>2021-06-13T09:59:17.000Z</time>
      </trkpt>
      <trkpt lat="43.6185" lon="6.59768">
        <ele>718.6</ele>
        <time>2021-06-13T09:59:28.000Z</time>
      </trkpt>
      <trkpt lat="43.61851" lon="6.59781">
        <ele>718.4</ele>
        <time>2021-06-13T09:59:36.000Z</time>
      </trkpt>
      <trkpt lat="43.61852" lon="6.59793">
        <ele>718.3</ele>
        <time>2021-06-13T09:59:44.000Z</time>
      </trkpt>
      <trkpt lat="43.61852" lon="6.59806">
        <ele>718.1</ele>
        <time>2021-06-13T09:59:54.000Z</time>
      </trkpt>
      <trkpt lat="43.61852" lon="6.59819">
        <ele>718</ele>
        <time>2021-06-13T10:00:04.000Z</time>
      </trkpt>
      <trkpt lat="43.61852" lon="6.59831">
        <ele>717.9</ele>
        <time>2021-06-13T10:00:13.000Z</time>
      </trkpt>
      <trkpt lat="43.61852" lon="6.59845">
        <ele>718.3</ele>
        <time>2021-06-13T10:00:22.000Z</time>
      </trkpt>
      <trkpt lat="43.61853" lon="6.59858">
        <ele>718.2</ele>
        <time>2021-06-13T10:00:32.000Z</time>
      </trkpt>
      <trkpt lat="43.61853" lon="6.59871">
        <ele>718</ele>
        <time>2021-06-13T10:00:41.000Z</time>
      </trkpt>
      <trkpt lat="43.61854" lon="6.59884">
        <ele>717.8</ele>
        <time>2021-06-13T10:00:50.000Z</time>
      </trkpt>
      <trkpt lat="43.61857" lon="6.59897">
        <ele>718.4</ele>
        <time>2021-06-13T10:00:59.000Z</time>
      </trkpt>
      <trkpt lat="43.6186" lon="6.5991">
        <ele>718.3</ele>
        <time>2021-06-13T10:01:08.000Z</time>
      </trkpt>
      <trkpt lat="43.61864" lon="6.59922">
        <ele>718.2</ele>
        <time>2021-06-13T10:01:17.000Z</time>
      </trkpt>
      <trkpt lat="43.61868" lon="6.59935">
        <ele>718.4</ele>
        <time>2021-06-13T10:01:27.000Z</time>
      </trkpt>
      <trkpt lat="43.61872" lon="6.59946">
        <ele>718.4</ele>
        <time>2021-06-13T10:01:36.000Z</time>
      </trkpt>
      <trkpt lat="43.61877" lon="6.59957">
        <ele>718.8</ele>
        <time>2021-06-13T10:01:45.000Z</time>
      </trkpt>
      <trkpt lat="43.6188" lon="6.59969">
        <ele>718.7</ele>
        <time>2021-06-13T10:01:54.000Z</time>
      </trkpt>
      <trkpt lat="43.61884" lon="6.5998">
        <ele>718.8</ele>
        <time>2021-06-13T10:02:02.000Z</time>
      </trkpt>
      <trkpt lat="43.61889" lon="6.59993">
        <ele>718.9</ele>
        <time>2021-06-13T10:02:11.000Z</time>
      </trkpt>
      <trkpt lat="43.61892" lon="6.60005">
        <ele>719.2</ele>
        <time>2021-06-13T10:02:21.000Z</time>
      </trkpt>
      <trkpt lat="43.61898" lon="6.60017">
        <ele>719.4</ele>
        <time>2021-06-13T10:02:31.000Z</time>
      </trkpt>
      <trkpt lat="43.61902" lon="6.60029">
        <ele>719.5</ele>
        <time>2021-06-13T10:02:40.000Z</time>
      </trkpt>
      <trkpt lat="43.61906" lon="6.60041">
        <ele>719.5</ele>
        <time>2021-06-13T10:02:48.000Z</time>
      </trkpt>
      <trkpt lat="43.61912" lon="6.60051">
        <ele>719.6</ele>
        <time>2021-06-13T10:02:57.000Z</time>
      </trkpt>
      <trkpt lat="43.61918" lon="6.60061">
        <ele>719.6</ele>
        <time>2021-06-13T10:03:05.000Z</time>
      </trkpt>
      <trkpt lat="43.61923" lon="6.6007">
        <ele>719.3</ele>
        <time>2021-06-13T10:03:13.000Z</time>
      </trkpt>
      <trkpt lat="43.6193" lon="6.6008">
        <ele>718.6</ele>
        <time>2021-06-13T10:03:21.000Z</time>
      </trkpt>
      <trkpt lat="43.61938" lon="6.60089">
        <ele>718.4</ele>
        <time>2021-06-13T10:03:30.000Z</time>
      </trkpt>
      <trkpt lat="43.61946" lon="6.60096">
        <ele>717.5</ele>
        <time>2021-06-13T10:03:39.000Z</time>
      </trkpt>
      <trkpt lat="43.61953" lon="6.60105">
        <ele>717.1</ele>
        <time>2021-06-13T10:03:47.000Z</time>
      </trkpt>
      <trkpt lat="43.61954" lon="6.60106">
        <ele>716.8</ele>
        <time>2021-06-13T10:03:51.000Z</time>
      </trkpt>
      <trkpt lat="43.61955" lon="6.60107">
        <ele>716.8</ele>
        <time>2021-06-13T10:03:52.000Z</time>
      </trkpt>
      <trkpt lat="43.61963" lon="6.60115">
        <ele>716.2</ele>
        <time>2021-06-13T10:04:00.000Z</time>
      </trkpt>
      <trkpt lat="43.6197" lon="6.60124">
        <ele>716.2</ele>
        <time>2021-06-13T10:04:08.000Z</time>
      </trkpt>
      <trkpt lat="43.61976" lon="6.60134">
        <ele>716.2</ele>
        <time>2021-06-13T10:04:16.000Z</time>
      </trkpt>
      <trkpt lat="43.61981" lon="6.60144">
        <ele>716.2</ele>
        <time>2021-06-13T10:04:24.000Z</time>
      </trkpt>
      <trkpt lat="43.61988" lon="6.60155">
        <ele>716.3</ele>
        <time>2021-06-13T10:04:34.000Z</time>
      </trkpt>
      <trkpt lat="43.61993" lon="6.60167">
        <ele>716.7</ele>
        <time>2021-06-13T10:04:43.000Z</time>
      </trkpt>
      <trkpt lat="43.61996" lon="6.60179">
        <ele>717</ele>
        <time>2021-06-13T10:04:53.000Z</time>
      </trkpt>
      <trkpt lat="43.61999" lon="6.60191">
        <ele>717.2</ele>
        <time>2021-06-13T10:05:02.000Z</time>
      </trkpt>
      <trkpt lat="43.62003" lon="6.60203">
        <ele>717.1</ele>
        <time>2021-06-13T10:05:11.000Z</time>
      </trkpt>
      <trkpt lat="43.62007" lon="6.60215">
        <ele>717</ele>
        <time>2021-06-13T10:05:20.000Z</time>
      </trkpt>
      <trkpt lat="43.62012" lon="6.60226">
        <ele>716.7</ele>
        <time>2021-06-13T10:05:28.000Z</time>
      </trkpt>
      <trkpt lat="43.62015" lon="6.60238">
        <ele>717.1</ele>
        <time>2021-06-13T10:05:36.000Z</time>
      </trkpt>
      <trkpt lat="43.62019" lon="6.60249">
        <ele>717.1</ele>
        <time>2021-06-13T10:05:44.000Z</time>
      </trkpt>
      <trkpt lat="43.62023" lon="6.60261">
        <ele>716.8</ele>
        <time>2021-06-13T10:05:53.000Z</time>
      </trkpt>
      <trkpt lat="43.62026" lon="6.60274">
        <ele>716.8</ele>
        <time>2021-06-13T10:06:03.000Z</time>
      </trkpt>
      <trkpt lat="43.62029" lon="6.60287">
        <ele>717.1</ele>
        <time>2021-06-13T10:06:12.000Z</time>
      </trkpt>
      <trkpt lat="43.62032" lon="6.60299">
        <ele>717.2</ele>
        <time>2021-06-13T10:06:20.000Z</time>
      </trkpt>
      <trkpt lat="43.62033" lon="6.60311">
        <ele>717.1</ele>
        <time>2021-06-13T10:06:29.000Z</time>
      </trkpt>
      <trkpt lat="43.62035" lon="6.60324">
        <ele>717.4</ele>
        <time>2021-06-13T10:06:37.000Z</time>
      </trkpt>
      <trkpt lat="43.62038" lon="6.60337">
        <ele>717.4</ele>
        <time>2021-06-13T10:06:46.000Z</time>
      </trkpt>
      <trkpt lat="43.6204" lon="6.60351">
        <ele>717.1</ele>
        <time>2021-06-13T10:06:55.000Z</time>
      </trkpt>
      <trkpt lat="43.62043" lon="6.60363">
        <ele>718.1</ele>
        <time>2021-06-13T10:07:03.000Z</time>
      </trkpt>
      <trkpt lat="43.62045" lon="6.60376">
        <ele>717.9</ele>
        <time>2021-06-13T10:07:11.000Z</time>
      </trkpt>
      <trkpt lat="43.62049" lon="6.60388">
        <ele>718.2</ele>
        <time>2021-06-13T10:07:20.000Z</time>
      </trkpt>
      <trkpt lat="43.62052" lon="6.604">
        <ele>718.2</ele>
        <time>2021-06-13T10:07:29.000Z</time>
      </trkpt>
      <trkpt lat="43.62056" lon="6.60412">
        <ele>718.4</ele>
        <time>2021-06-13T10:07:38.000Z</time>
      </trkpt>
      <trkpt lat="43.62058" lon="6.60425">
        <ele>718.7</ele>
        <time>2021-06-13T10:07:48.000Z</time>
      </trkpt>
      <trkpt lat="43.62063" lon="6.60437">
        <ele>718.9</ele>
        <time>2021-06-13T10:07:57.000Z</time>
      </trkpt>
      <trkpt lat="43.62069" lon="6.60448">
        <ele>718.8</ele>
        <time>2021-06-13T10:08:06.000Z</time>
      </trkpt>
      <trkpt lat="43.62073" lon="6.6046">
        <ele>718.8</ele>
        <time>2021-06-13T10:08:15.000Z</time>
      </trkpt>
      <trkpt lat="43.62074" lon="6.60472">
        <ele>718.7</ele>
        <time>2021-06-13T10:08:23.000Z</time>
      </trkpt>
      <trkpt lat="43.62074" lon="6.60485">
        <ele>718.8</ele>
        <time>2021-06-13T10:08:32.000Z</time>
      </trkpt>
      <trkpt lat="43.62073" lon="6.60499">
        <ele>718.9</ele>
        <time>2021-06-13T10:08:41.000Z</time>
      </trkpt>
      <trkpt lat="43.62073" lon="6.60511">
        <ele>719.3</ele>
        <time>2021-06-13T10:08:49.000Z</time>
      </trkpt>
      <trkpt lat="43.62078" lon="6.60522">
        <ele>719.9</ele>
        <time>2021-06-13T10:08:58.000Z</time>
      </trkpt>
      <trkpt lat="43.62087" lon="6.60518">
        <ele>720.8</ele>
        <time>2021-06-13T10:09:07.000Z</time>
      </trkpt>
      <trkpt lat="43.62089" lon="6.60505">
        <ele>721.4</ele>
        <time>2021-06-13T10:09:16.000Z</time>
      </trkpt>
      <trkpt lat="43.62089" lon="6.60492">
        <ele>722.5</ele>
        <time>2021-06-13T10:09:26.000Z</time>
      </trkpt>
      <trkpt lat="43.62093" lon="6.6048">
        <ele>723.4</ele>
        <time>2021-06-13T10:09:35.000Z</time>
      </trkpt>
      <trkpt lat="43.62091" lon="6.60467">
        <ele>724.4</ele>
        <time>2021-06-13T10:09:46.000Z</time>
      </trkpt>
      <trkpt lat="43.62089" lon="6.60454">
        <ele>725.1</ele>
        <time>2021-06-13T10:09:56.000Z</time>
      </trkpt>
      <trkpt lat="43.62086" lon="6.60442">
        <ele>726</ele>
        <time>2021-06-13T10:10:07.000Z</time>
      </trkpt>
      <trkpt lat="43.62083" lon="6.6043">
        <ele>726.9</ele>
        <time>2021-06-13T10:10:18.000Z</time>
      </trkpt>
      <trkpt lat="43.62082" lon="6.60418">
        <ele>727.6</ele>
        <time>2021-06-13T10:10:27.000Z</time>
      </trkpt>
      <trkpt lat="43.62082" lon="6.60405">
        <ele>728.4</ele>
        <time>2021-06-13T10:10:37.000Z</time>
      </trkpt>
      <trkpt lat="43.62081" lon="6.60393">
        <ele>729.3</ele>
        <time>2021-06-13T10:10:47.000Z</time>
      </trkpt>
      <trkpt lat="43.62079" lon="6.6038">
        <ele>730.8</ele>
        <time>2021-06-13T10:10:59.000Z</time>
      </trkpt>
      <trkpt lat="43.62079" lon="6.60367">
        <ele>731.8</ele>
        <time>2021-06-13T10:11:10.000Z</time>
      </trkpt>
      <trkpt lat="43.62079" lon="6.60355">
        <ele>733</ele>
        <time>2021-06-13T10:11:21.000Z</time>
      </trkpt>
      <trkpt lat="43.62078" lon="6.60341">
        <ele>733.6</ele>
        <time>2021-06-13T10:11:32.000Z</time>
      </trkpt>
      <trkpt lat="43.62078" lon="6.60329">
        <ele>735</ele>
        <time>2021-06-13T10:11:43.000Z</time>
      </trkpt>
      <trkpt lat="43.62078" lon="6.60316">
        <ele>735.9</ele>
        <time>2021-06-13T10:11:54.000Z</time>
      </trkpt>
      <trkpt lat="43.62077" lon="6.60303">
        <ele>736.7</ele>
        <time>2021-06-13T10:12:03.000Z</time>
      </trkpt>
      <trkpt lat="43.62078" lon="6.60291">
        <ele>737.7</ele>
        <time>2021-06-13T10:12:13.000Z</time>
      </trkpt>
      <trkpt lat="43.62077" lon="6.60277">
        <ele>738.7</ele>
        <time>2021-06-13T10:12:24.000Z</time>
      </trkpt>
      <trkpt lat="43.62076" lon="6.60264">
        <ele>739.3</ele>
        <time>2021-06-13T10:12:35.000Z</time>
      </trkpt>
      <trkpt lat="43.62077" lon="6.60251">
        <ele>740.2</ele>
        <time>2021-06-13T10:12:46.000Z</time>
      </trkpt>
      <trkpt lat="43.62079" lon="6.60238">
        <ele>741.4</ele>
        <time>2021-06-13T10:12:57.000Z</time>
      </trkpt>
      <trkpt lat="43.6208" lon="6.60226">
        <ele>742.3</ele>
        <time>2021-06-13T10:13:09.000Z</time>
      </trkpt>
      <trkpt lat="43.62081" lon="6.60213">
        <ele>743.5</ele>
        <time>2021-06-13T10:13:21.000Z</time>
      </trkpt>
      <trkpt lat="43.62081" lon="6.60199">
        <ele>744.8</ele>
        <time>2021-06-13T10:13:34.000Z</time>
      </trkpt>
      <trkpt lat="43.62081" lon="6.60186">
        <ele>746.1</ele>
        <time>2021-06-13T10:13:46.000Z</time>
      </trkpt>
      <trkpt lat="43.6208" lon="6.60173">
        <ele>747.1</ele>
        <time>2021-06-13T10:13:57.000Z</time>
      </trkpt>
      <trkpt lat="43.6208" lon="6.60172">
        <ele>747.1</ele>
        <time>2021-06-13T10:14:00.000Z</time>
      </trkpt>
      <trkpt lat="43.6208" lon="6.60172">
        <ele>747.3</ele>
        <time>2021-06-13T10:14:01.000Z</time>
      </trkpt>
      <trkpt lat="43.6208" lon="6.60171">
        <ele>747.5</ele>
        <time>2021-06-13T10:14:04.000Z</time>
      </trkpt>
      <trkpt lat="43.6208" lon="6.60171">
        <ele>747.5</ele>
        <time>2021-06-13T10:14:05.000Z</time>
      </trkpt>
      <trkpt lat="43.62081" lon="6.60157">
        <ele>748.3</ele>
        <time>2021-06-13T10:14:14.000Z</time>
      </trkpt>
      <trkpt lat="43.6208" lon="6.60145">
        <ele>748.6</ele>
        <time>2021-06-13T10:14:23.000Z</time>
      </trkpt>
      <trkpt lat="43.62081" lon="6.60132">
        <ele>749.4</ele>
        <time>2021-06-13T10:14:32.000Z</time>
      </trkpt>
      <trkpt lat="43.62078" lon="6.60121">
        <ele>750.1</ele>
        <time>2021-06-13T10:14:42.000Z</time>
      </trkpt>
      <trkpt lat="43.62075" lon="6.60117">
        <ele>750.2</ele>
        <time>2021-06-13T10:14:49.000Z</time>
      </trkpt>
      <trkpt lat="43.62075" lon="6.60117">
        <ele>750.2</ele>
        <time>2021-06-13T10:14:59.000Z</time>
      </trkpt>
      <trkpt lat="43.62075" lon="6.60117">
        <ele>750.1</ele>
        <time>2021-06-13T10:15:00.000Z</time>
      </trkpt>
      <trkpt lat="43.62075" lon="6.60117">
        <ele>750</ele>
        <time>2021-06-13T10:15:06.000Z</time>
      </trkpt>
      <trkpt lat="43.62073" lon="6.60118">
        <ele>749.9</ele>
        <time>2021-06-13T10:15:11.000Z</time>
      </trkpt>
      <trkpt lat="43.62073" lon="6.60118">
        <ele>749.7</ele>
        <time>2021-06-13T10:15:22.000Z</time>
      </trkpt>
      <trkpt lat="43.62073" lon="6.60118">
        <ele>749.9</ele>
        <time>2021-06-13T10:15:23.000Z</time>
      </trkpt>
      <trkpt lat="43.62073" lon="6.60118">
        <ele>750</ele>
        <time>2021-06-13T10:15:34.000Z</time>
      </trkpt>
      <trkpt lat="43.62073" lon="6.60118">
        <ele>750</ele>
        <time>2021-06-13T10:15:35.000Z</time>
      </trkpt>
      <trkpt lat="43.62073" lon="6.60117">
        <ele>750.1</ele>
        <time>2021-06-13T10:15:43.000Z</time>
      </trkpt>
      <trkpt lat="43.62073" lon="6.60117">
        <ele>750.1</ele>
        <time>2021-06-13T10:15:44.000Z</time>
      </trkpt>
      <trkpt lat="43.62073" lon="6.60117">
        <ele>750</ele>
        <time>2021-06-13T10:15:46.000Z</time>
      </trkpt>
      <trkpt lat="43.62073" lon="6.60117">
        <ele>750</ele>
        <time>2021-06-13T10:15:47.000Z</time>
      </trkpt>
      <trkpt lat="43.62073" lon="6.60116">
        <ele>750.1</ele>
        <time>2021-06-13T10:15:48.000Z</time>
      </trkpt>
      <trkpt lat="43.62067" lon="6.60105">
        <ele>750.5</ele>
        <time>2021-06-13T10:15:58.000Z</time>
      </trkpt>
      <trkpt lat="43.6206" lon="6.60096">
        <ele>750.8</ele>
        <time>2021-06-13T10:16:06.000Z</time>
      </trkpt>
      <trkpt lat="43.62053" lon="6.60086">
        <ele>751.1</ele>
        <time>2021-06-13T10:16:16.000Z</time>
      </trkpt>
      <trkpt lat="43.62048" lon="6.60075">
        <ele>751.4</ele>
        <time>2021-06-13T10:16:26.000Z</time>
      </trkpt>
      <trkpt lat="43.62042" lon="6.60065">
        <ele>751.7</ele>
        <time>2021-06-13T10:16:36.000Z</time>
      </trkpt>
      <trkpt lat="43.62036" lon="6.60056">
        <ele>752</ele>
        <time>2021-06-13T10:16:46.000Z</time>
      </trkpt>
      <trkpt lat="43.62029" lon="6.60046">
        <ele>752.9</ele>
        <time>2021-06-13T10:16:57.000Z</time>
      </trkpt>
      <trkpt lat="43.62025" lon="6.60037">
        <ele>753.7</ele>
        <time>2021-06-13T10:17:08.000Z</time>
      </trkpt>
      <trkpt lat="43.62026" lon="6.60037">
        <ele>753.7</ele>
        <time>2021-06-13T10:17:09.000Z</time>
      </trkpt>
      <trkpt lat="43.62026" lon="6.60037">
        <ele>753.6</ele>
        <time>2021-06-13T10:17:10.000Z</time>
      </trkpt>
      <trkpt lat="43.62025" lon="6.60036">
        <ele>753.7</ele>
        <time>2021-06-13T10:17:15.000Z</time>
      </trkpt>
      <trkpt lat="43.62018" lon="6.60027">
        <ele>754.8</ele>
        <time>2021-06-13T10:17:26.000Z</time>
      </trkpt>
      <trkpt lat="43.62014" lon="6.60016">
        <ele>755.6</ele>
        <time>2021-06-13T10:17:37.000Z</time>
      </trkpt>
      <trkpt lat="43.62013" lon="6.60014">
        <ele>756</ele>
        <time>2021-06-13T10:17:41.000Z</time>
      </trkpt>
      <trkpt lat="43.62013" lon="6.60014">
        <ele>756.2</ele>
        <time>2021-06-13T10:17:43.000Z</time>
      </trkpt>
      <trkpt lat="43.62008" lon="6.60003">
        <ele>757</ele>
        <time>2021-06-13T10:17:53.000Z</time>
      </trkpt>
      <trkpt lat="43.62" lon="6.59995">
        <ele>757.7</ele>
        <time>2021-06-13T10:18:04.000Z</time>
      </trkpt>
      <trkpt lat="43.61994" lon="6.59986">
        <ele>758.8</ele>
        <time>2021-06-13T10:18:18.000Z</time>
      </trkpt>
      <trkpt lat="43.61987" lon="6.59978">
        <ele>760.4</ele>
        <time>2021-06-13T10:18:33.000Z</time>
      </trkpt>
      <trkpt lat="43.6198" lon="6.59969">
        <ele>761.7</ele>
        <time>2021-06-13T10:18:46.000Z</time>
      </trkpt>
      <trkpt lat="43.61974" lon="6.59961">
        <ele>762.2</ele>
        <time>2021-06-13T10:18:57.000Z</time>
      </trkpt>
      <trkpt lat="43.61969" lon="6.5995">
        <ele>763</ele>
        <time>2021-06-13T10:19:09.000Z</time>
      </trkpt>
      <trkpt lat="43.61967" lon="6.59944">
        <ele>762.1</ele>
        <time>2021-06-13T11:11:37.000Z</time>
      </trkpt>
      <trkpt lat="43.61968" lon="6.59945">
        <ele>761.9</ele>
        <time>2021-06-13T11:11:46.000Z</time>
      </trkpt>
      <trkpt lat="43.61968" lon="6.59946">
        <ele>761.8</ele>
        <time>2021-06-13T11:11:50.000Z</time>
      </trkpt>
      <trkpt lat="43.61971" lon="6.59952">
        <ele>761.8</ele>
        <time>2021-06-13T11:12:01.000Z</time>
      </trkpt>
      <trkpt lat="43.61971" lon="6.59952">
        <ele>761.6</ele>
        <time>2021-06-13T11:12:09.000Z</time>
      </trkpt>
      <trkpt lat="43.61972" lon="6.59955">
        <ele>761.6</ele>
        <time>2021-06-13T11:12:13.000Z</time>
      </trkpt>
      <trkpt lat="43.61971" lon="6.59956">
        <ele>761.3</ele>
        <time>2021-06-13T11:12:15.000Z</time>
      </trkpt>
      <trkpt lat="43.61978" lon="6.59967">
        <ele>760.5</ele>
        <time>2021-06-13T11:12:23.000Z</time>
      </trkpt>
      <trkpt lat="43.61985" lon="6.59976">
        <ele>760</ele>
        <time>2021-06-13T11:12:31.000Z</time>
      </trkpt>
      <trkpt lat="43.61992" lon="6.59985">
        <ele>758.8</ele>
        <time>2021-06-13T11:12:41.000Z</time>
      </trkpt>
      <trkpt lat="43.61996" lon="6.59992">
        <ele>757.3</ele>
        <time>2021-06-13T11:12:51.000Z</time>
      </trkpt>
      <trkpt lat="43.61996" lon="6.59992">
        <ele>757.4</ele>
        <time>2021-06-13T11:12:55.000Z</time>
      </trkpt>
      <trkpt lat="43.61997" lon="6.59993">
        <ele>757.2</ele>
        <time>2021-06-13T11:12:59.000Z</time>
      </trkpt>
      <trkpt lat="43.61997" lon="6.59993">
        <ele>757.2</ele>
        <time>2021-06-13T11:13:01.000Z</time>
      </trkpt>
      <trkpt lat="43.61997" lon="6.59993">
        <ele>757.2</ele>
        <time>2021-06-13T11:13:02.000Z</time>
      </trkpt>
      <trkpt lat="43.61998" lon="6.59994">
        <ele>757</ele>
        <time>2021-06-13T11:13:03.000Z</time>
      </trkpt>
      <trkpt lat="43.62005" lon="6.60003">
        <ele>755.6</ele>
        <time>2021-06-13T11:13:12.000Z</time>
      </trkpt>
      <trkpt lat="43.62011" lon="6.60012">
        <ele>754.9</ele>
        <time>2021-06-13T11:13:21.000Z</time>
      </trkpt>
      <trkpt lat="43.6201" lon="6.60012">
        <ele>754.9</ele>
        <time>2021-06-13T11:13:22.000Z</time>
      </trkpt>
      <trkpt lat="43.62008" lon="6.60012">
        <ele>754.7</ele>
        <time>2021-06-13T11:13:26.000Z</time>
      </trkpt>
      <trkpt lat="43.62008" lon="6.60011">
        <ele>754.9</ele>
        <time>2021-06-13T11:13:28.000Z</time>
      </trkpt>
      <trkpt lat="43.62008" lon="6.60011">
        <ele>754.9</ele>
        <time>2021-06-13T11:13:29.000Z</time>
      </trkpt>
      <trkpt lat="43.62008" lon="6.60011">
        <ele>755.1</ele>
        <time>2021-06-13T11:13:32.000Z</time>
      </trkpt>
      <trkpt lat="43.62008" lon="6.60011">
        <ele>754.9</ele>
        <time>2021-06-13T11:13:33.000Z</time>
      </trkpt>
      <trkpt lat="43.62009" lon="6.60012">
        <ele>754.8</ele>
        <time>2021-06-13T11:13:36.000Z</time>
      </trkpt>
      <trkpt lat="43.62013" lon="6.60023">
        <ele>754.3</ele>
        <time>2021-06-13T11:13:42.000Z</time>
      </trkpt>
      <trkpt lat="43.62019" lon="6.60033">
        <ele>753.5</ele>
        <time>2021-06-13T11:13:49.000Z</time>
      </trkpt>
      <trkpt lat="43.62023" lon="6.60044">
        <ele>752.4</ele>
        <time>2021-06-13T11:13:56.000Z</time>
      </trkpt>
      <trkpt lat="43.62029" lon="6.60055">
        <ele>751.6</ele>
        <time>2021-06-13T11:14:03.000Z</time>
      </trkpt>
      <trkpt lat="43.62035" lon="6.60064">
        <ele>750.8</ele>
        <time>2021-06-13T11:14:12.000Z</time>
      </trkpt>
      <trkpt lat="43.62042" lon="6.60074">
        <ele>750.7</ele>
        <time>2021-06-13T11:14:21.000Z</time>
      </trkpt>
      <trkpt lat="43.62048" lon="6.60084">
        <ele>750.1</ele>
        <time>2021-06-13T11:14:30.000Z</time>
      </trkpt>
      <trkpt lat="43.62054" lon="6.60095">
        <ele>749.5</ele>
        <time>2021-06-13T11:14:40.000Z</time>
      </trkpt>
      <trkpt lat="43.6206" lon="6.60105">
        <ele>749</ele>
        <time>2021-06-13T11:14:49.000Z</time>
      </trkpt>
      <trkpt lat="43.62066" lon="6.60114">
        <ele>748.8</ele>
        <time>2021-06-13T11:14:57.000Z</time>
      </trkpt>
      <trkpt lat="43.62071" lon="6.60125">
        <ele>748.4</ele>
        <time>2021-06-13T11:15:05.000Z</time>
      </trkpt>
      <trkpt lat="43.62075" lon="6.60137">
        <ele>748</ele>
        <time>2021-06-13T11:15:14.000Z</time>
      </trkpt>
      <trkpt lat="43.62077" lon="6.60149">
        <ele>747.6</ele>
        <time>2021-06-13T11:15:23.000Z</time>
      </trkpt>
      <trkpt lat="43.62078" lon="6.60163">
        <ele>747</ele>
        <time>2021-06-13T11:15:31.000Z</time>
      </trkpt>
      <trkpt lat="43.62083" lon="6.60175">
        <ele>746.8</ele>
        <time>2021-06-13T11:15:40.000Z</time>
      </trkpt>
      <trkpt lat="43.6209" lon="6.60184">
        <ele>746.6</ele>
        <time>2021-06-13T11:15:51.000Z</time>
      </trkpt>
      <trkpt lat="43.62099" lon="6.60189">
        <ele>747.2</ele>
        <time>2021-06-13T11:15:59.000Z</time>
      </trkpt>
      <trkpt lat="43.62109" lon="6.60192">
        <ele>747.1</ele>
        <time>2021-06-13T11:16:08.000Z</time>
      </trkpt>
      <trkpt lat="43.62117" lon="6.60197">
        <ele>746</ele>
        <time>2021-06-13T11:16:16.000Z</time>
      </trkpt>
      <trkpt lat="43.62125" lon="6.60204">
        <ele>745.4</ele>
        <time>2021-06-13T11:16:24.000Z</time>
      </trkpt>
      <trkpt lat="43.62126" lon="6.60206">
        <ele>745.2</ele>
        <time>2021-06-13T11:16:27.000Z</time>
      </trkpt>
      <trkpt lat="43.62126" lon="6.60206">
        <ele>745.2</ele>
        <time>2021-06-13T11:16:28.000Z</time>
      </trkpt>
      <trkpt lat="43.62126" lon="6.60205">
        <ele>745.2</ele>
        <time>2021-06-13T11:16:29.000Z</time>
      </trkpt>
      <trkpt lat="43.62126" lon="6.60205">
        <ele>744.9</ele>
        <time>2021-06-13T11:16:32.000Z</time>
      </trkpt>
      <trkpt lat="43.62126" lon="6.60204">
        <ele>744.5</ele>
        <time>2021-06-13T11:16:34.000Z</time>
      </trkpt>
      <trkpt lat="43.62127" lon="6.60204">
        <ele>745.7</ele>
        <time>2021-06-13T11:16:38.000Z</time>
      </trkpt>
      <trkpt lat="43.62133" lon="6.60205">
        <ele>744.5</ele>
        <time>2021-06-13T11:16:49.000Z</time>
      </trkpt>
      <trkpt lat="43.62133" lon="6.60205">
        <ele>744.5</ele>
        <time>2021-06-13T11:16:53.000Z</time>
      </trkpt>
      <trkpt lat="43.62134" lon="6.60206">
        <ele>744.3</ele>
        <time>2021-06-13T11:16:55.000Z</time>
      </trkpt>
      <trkpt lat="43.62134" lon="6.60206">
        <ele>744.4</ele>
        <time>2021-06-13T11:16:57.000Z</time>
      </trkpt>
      <trkpt lat="43.62142" lon="6.60215">
        <ele>743.6</ele>
        <time>2021-06-13T11:17:06.000Z</time>
      </trkpt>
      <trkpt lat="43.62148" lon="6.60224">
        <ele>742.8</ele>
        <time>2021-06-13T11:17:17.000Z</time>
      </trkpt>
      <trkpt lat="43.62155" lon="6.60232">
        <ele>741.8</ele>
        <time>2021-06-13T11:17:24.000Z</time>
      </trkpt>
      <trkpt lat="43.62163" lon="6.6024">
        <ele>740.3</ele>
        <time>2021-06-13T11:17:31.000Z</time>
      </trkpt>
      <trkpt lat="43.62173" lon="6.6024">
        <ele>739.5</ele>
        <time>2021-06-13T11:17:37.000Z</time>
      </trkpt>
      <trkpt lat="43.62182" lon="6.6024">
        <ele>737.7</ele>
        <time>2021-06-13T11:17:47.000Z</time>
      </trkpt>
      <trkpt lat="43.62191" lon="6.60244">
        <ele>736</ele>
        <time>2021-06-13T11:17:57.000Z</time>
      </trkpt>
      <trkpt lat="43.622" lon="6.60248">
        <ele>733.7</ele>
        <time>2021-06-13T11:18:08.000Z</time>
      </trkpt>
      <trkpt lat="43.62209" lon="6.6025">
        <ele>732</ele>
        <time>2021-06-13T11:18:17.000Z</time>
      </trkpt>
      <trkpt lat="43.62218" lon="6.60255">
        <ele>731.1</ele>
        <time>2021-06-13T11:18:25.000Z</time>
      </trkpt>
      <trkpt lat="43.62228" lon="6.60256">
        <ele>730</ele>
        <time>2021-06-13T11:18:32.000Z</time>
      </trkpt>
      <trkpt lat="43.62237" lon="6.60262">
        <ele>728.9</ele>
        <time>2021-06-13T11:18:40.000Z</time>
      </trkpt>
      <trkpt lat="43.62243" lon="6.60272">
        <ele>727.5</ele>
        <time>2021-06-13T11:18:49.000Z</time>
      </trkpt>
      <trkpt lat="43.62249" lon="6.60282">
        <ele>726.1</ele>
        <time>2021-06-13T11:18:57.000Z</time>
      </trkpt>
      <trkpt lat="43.62255" lon="6.60293">
        <ele>724.7</ele>
        <time>2021-06-13T11:19:05.000Z</time>
      </trkpt>
      <trkpt lat="43.62263" lon="6.60301">
        <ele>723.9</ele>
        <time>2021-06-13T11:19:12.000Z</time>
      </trkpt>
      <trkpt lat="43.6227" lon="6.60309">
        <ele>722.5</ele>
        <time>2021-06-13T11:19:19.000Z</time>
      </trkpt>
      <trkpt lat="43.62277" lon="6.60317">
        <ele>721.7</ele>
        <time>2021-06-13T11:19:28.000Z</time>
      </trkpt>
      <trkpt lat="43.62282" lon="6.60328">
        <ele>721.6</ele>
        <time>2021-06-13T11:19:37.000Z</time>
      </trkpt>
      <trkpt lat="43.62284" lon="6.60341">
        <ele>720.6</ele>
        <time>2021-06-13T11:19:44.000Z</time>
      </trkpt>
      <trkpt lat="43.62287" lon="6.60354">
        <ele>720.5</ele>
        <time>2021-06-13T11:19:51.000Z</time>
      </trkpt>
      <trkpt lat="43.62292" lon="6.60366">
        <ele>719.9</ele>
        <time>2021-06-13T11:19:58.000Z</time>
      </trkpt>
      <trkpt lat="43.62297" lon="6.60377">
        <ele>719.2</ele>
        <time>2021-06-13T11:20:06.000Z</time>
      </trkpt>
      <trkpt lat="43.62306" lon="6.60383">
        <ele>718.1</ele>
        <time>2021-06-13T11:20:14.000Z</time>
      </trkpt>
      <trkpt lat="43.62314" lon="6.60389">
        <ele>717.2</ele>
        <time>2021-06-13T11:20:22.000Z</time>
      </trkpt>
      <trkpt lat="43.6232" lon="6.60398">
        <ele>716.8</ele>
        <time>2021-06-13T11:20:29.000Z</time>
      </trkpt>
      <trkpt lat="43.62327" lon="6.60406">
        <ele>716.4</ele>
        <time>2021-06-13T11:20:38.000Z</time>
      </trkpt>
      <trkpt lat="43.62337" lon="6.60412">
        <ele>716.4</ele>
        <time>2021-06-13T11:20:46.000Z</time>
      </trkpt>
      <trkpt lat="43.62345" lon="6.6042">
        <ele>716.2</ele>
        <time>2021-06-13T11:20:56.000Z</time>
      </trkpt>
      <trkpt lat="43.62351" lon="6.60431">
        <ele>716</ele>
        <time>2021-06-13T11:21:05.000Z</time>
      </trkpt>
      <trkpt lat="43.62359" lon="6.60437">
        <ele>715.8</ele>
        <time>2021-06-13T11:21:13.000Z</time>
      </trkpt>
      <trkpt lat="43.62367" lon="6.60445">
        <ele>715.3</ele>
        <time>2021-06-13T11:21:24.000Z</time>
      </trkpt>
      <trkpt lat="43.62375" lon="6.60453">
        <ele>714.9</ele>
        <time>2021-06-13T11:21:33.000Z</time>
      </trkpt>
      <trkpt lat="43.62382" lon="6.60462">
        <ele>714.4</ele>
        <time>2021-06-13T11:21:41.000Z</time>
      </trkpt>
      <trkpt lat="43.6239" lon="6.6047">
        <ele>714</ele>
        <time>2021-06-13T11:21:49.000Z</time>
      </trkpt>
      <trkpt lat="43.62398" lon="6.60479">
        <ele>713.8</ele>
        <time>2021-06-13T11:21:57.000Z</time>
      </trkpt>
      <trkpt lat="43.62407" lon="6.60482">
        <ele>713.4</ele>
        <time>2021-06-13T11:22:06.000Z</time>
      </trkpt>
      <trkpt lat="43.62414" lon="6.60491">
        <ele>712.8</ele>
        <time>2021-06-13T11:22:16.000Z</time>
      </trkpt>
      <trkpt lat="43.62421" lon="6.605">
        <ele>712.2</ele>
        <time>2021-06-13T11:22:23.000Z</time>
      </trkpt>
      <trkpt lat="43.62428" lon="6.60509">
        <ele>711.8</ele>
        <time>2021-06-13T11:22:31.000Z</time>
      </trkpt>
      <trkpt lat="43.62437" lon="6.60514">
        <ele>711</ele>
        <time>2021-06-13T11:22:39.000Z</time>
      </trkpt>
      <trkpt lat="43.62445" lon="6.60524">
        <ele>710.8</ele>
        <time>2021-06-13T11:22:47.000Z</time>
      </trkpt>
      <trkpt lat="43.62454" lon="6.6053">
        <ele>710.2</ele>
        <time>2021-06-13T11:22:55.000Z</time>
      </trkpt>
      <trkpt lat="43.62461" lon="6.60537">
        <ele>709.9</ele>
        <time>2021-06-13T11:23:03.000Z</time>
      </trkpt>
      <trkpt lat="43.62467" lon="6.60548">
        <ele>709.6</ele>
        <time>2021-06-13T11:23:11.000Z</time>
      </trkpt>
      <trkpt lat="43.62475" lon="6.60554">
        <ele>709.2</ele>
        <time>2021-06-13T11:23:20.000Z</time>
      </trkpt>
      <trkpt lat="43.62482" lon="6.60563">
        <ele>708.5</ele>
        <time>2021-06-13T11:23:29.000Z</time>
      </trkpt>
      <trkpt lat="43.62487" lon="6.60573">
        <ele>708.2</ele>
        <time>2021-06-13T11:23:36.000Z</time>
      </trkpt>
      <trkpt lat="43.62497" lon="6.60573">
        <ele>707.2</ele>
        <time>2021-06-13T11:23:46.000Z</time>
      </trkpt>
      <trkpt lat="43.62507" lon="6.60575">
        <ele>706.1</ele>
        <time>2021-06-13T11:23:53.000Z</time>
      </trkpt>
      <trkpt lat="43.62514" lon="6.60582">
        <ele>705</ele>
        <time>2021-06-13T11:24:01.000Z</time>
      </trkpt>
      <trkpt lat="43.62523" lon="6.60582">
        <ele>703.4</ele>
        <time>2021-06-13T11:24:11.000Z</time>
      </trkpt>
      <trkpt lat="43.62532" lon="6.60586">
        <ele>702.1</ele>
        <time>2021-06-13T11:24:19.000Z</time>
      </trkpt>
      <trkpt lat="43.62541" lon="6.60588">
        <ele>700.7</ele>
        <time>2021-06-13T11:24:30.000Z</time>
      </trkpt>
      <trkpt lat="43.6255" lon="6.60592">
        <ele>699.9</ele>
        <time>2021-06-13T11:24:37.000Z</time>
      </trkpt>
      <trkpt lat="43.62558" lon="6.60598">
        <ele>699.1</ele>
        <time>2021-06-13T11:24:43.000Z</time>
      </trkpt>
      <trkpt lat="43.62567" lon="6.60603">
        <ele>697.5</ele>
        <time>2021-06-13T11:24:54.000Z</time>
      </trkpt>
      <trkpt lat="43.62577" lon="6.60605">
        <ele>696.3</ele>
        <time>2021-06-13T11:25:03.000Z</time>
      </trkpt>
      <trkpt lat="43.62585" lon="6.60611">
        <ele>695.3</ele>
        <time>2021-06-13T11:25:11.000Z</time>
      </trkpt>
      <trkpt lat="43.62594" lon="6.60618">
        <ele>694.6</ele>
        <time>2021-06-13T11:25:19.000Z</time>
      </trkpt>
      <trkpt lat="43.62601" lon="6.60625">
        <ele>693.9</ele>
        <time>2021-06-13T11:25:27.000Z</time>
      </trkpt>
      <trkpt lat="43.62607" lon="6.60635">
        <ele>693.4</ele>
        <time>2021-06-13T11:25:36.000Z</time>
      </trkpt>
      <trkpt lat="43.62614" lon="6.60641">
        <ele>692.9</ele>
        <time>2021-06-13T11:25:43.000Z</time>
      </trkpt>
      <trkpt lat="43.62623" lon="6.60641">
        <ele>692</ele>
        <time>2021-06-13T11:25:51.000Z</time>
      </trkpt>
      <trkpt lat="43.62633" lon="6.60638">
        <ele>691</ele>
        <time>2021-06-13T11:26:01.000Z</time>
      </trkpt>
      <trkpt lat="43.62642" lon="6.6064">
        <ele>690.2</ele>
        <time>2021-06-13T11:26:10.000Z</time>
      </trkpt>
      <trkpt lat="43.6265" lon="6.60647">
        <ele>688.9</ele>
        <time>2021-06-13T11:26:20.000Z</time>
      </trkpt>
      <trkpt lat="43.62659" lon="6.60652">
        <ele>687.2</ele>
        <time>2021-06-13T11:26:28.000Z</time>
      </trkpt>
      <trkpt lat="43.62667" lon="6.60658">
        <ele>686</ele>
        <time>2021-06-13T11:26:37.000Z</time>
      </trkpt>
      <trkpt lat="43.62675" lon="6.60664">
        <ele>684.2</ele>
        <time>2021-06-13T11:26:48.000Z</time>
      </trkpt>
      <trkpt lat="43.62683" lon="6.60671">
        <ele>682.3</ele>
        <time>2021-06-13T11:26:58.000Z</time>
      </trkpt>
      <trkpt lat="43.62691" lon="6.60679">
        <ele>681.3</ele>
        <time>2021-06-13T11:27:07.000Z</time>
      </trkpt>
      <trkpt lat="43.62699" lon="6.60684">
        <ele>680.3</ele>
        <time>2021-06-13T11:27:16.000Z</time>
      </trkpt>
      <trkpt lat="43.62707" lon="6.60691">
        <ele>678.9</ele>
        <time>2021-06-13T11:27:26.000Z</time>
      </trkpt>
      <trkpt lat="43.62714" lon="6.607">
        <ele>677.7</ele>
        <time>2021-06-13T11:27:36.000Z</time>
      </trkpt>
      <trkpt lat="43.6272" lon="6.60711">
        <ele>676.9</ele>
        <time>2021-06-13T11:27:45.000Z</time>
      </trkpt>
      <trkpt lat="43.62726" lon="6.60721">
        <ele>674.8</ele>
        <time>2021-06-13T11:27:59.000Z</time>
      </trkpt>
      <trkpt lat="43.6273" lon="6.60732">
        <ele>673.8</ele>
        <time>2021-06-13T11:28:08.000Z</time>
      </trkpt>
      <trkpt lat="43.62733" lon="6.60745">
        <ele>672.1</ele>
        <time>2021-06-13T11:28:18.000Z</time>
      </trkpt>
      <trkpt lat="43.62734" lon="6.60758">
        <ele>670.7</ele>
        <time>2021-06-13T11:28:26.000Z</time>
      </trkpt>
      <trkpt lat="43.62734" lon="6.60771">
        <ele>668.4</ele>
        <time>2021-06-13T11:28:38.000Z</time>
      </trkpt>
      <trkpt lat="43.62729" lon="6.60783">
        <ele>667.4</ele>
        <time>2021-06-13T11:28:47.000Z</time>
      </trkpt>
      <trkpt lat="43.62726" lon="6.60796">
        <ele>665.9</ele>
        <time>2021-06-13T11:28:55.000Z</time>
      </trkpt>
      <trkpt lat="43.62729" lon="6.60808">
        <ele>664.1</ele>
        <time>2021-06-13T11:29:10.000Z</time>
      </trkpt>
      <trkpt lat="43.62731" lon="6.60821">
        <ele>663.4</ele>
        <time>2021-06-13T11:29:17.000Z</time>
      </trkpt>
      <trkpt lat="43.62735" lon="6.60833">
        <ele>661.5</ele>
        <time>2021-06-13T11:29:28.000Z</time>
      </trkpt>
      <trkpt lat="43.62738" lon="6.60845">
        <ele>660.2</ele>
        <time>2021-06-13T11:29:36.000Z</time>
      </trkpt>
      <trkpt lat="43.62739" lon="6.60858">
        <ele>658.5</ele>
        <time>2021-06-13T11:29:47.000Z</time>
      </trkpt>
      <trkpt lat="43.62742" lon="6.6087">
        <ele>655.9</ele>
        <time>2021-06-13T11:30:01.000Z</time>
      </trkpt>
      <trkpt lat="43.62745" lon="6.60883">
        <ele>654.2</ele>
        <time>2021-06-13T11:30:13.000Z</time>
      </trkpt>
      <trkpt lat="43.62747" lon="6.60883">
        <ele>653.5</ele>
        <time>2021-06-13T11:30:18.000Z</time>
      </trkpt>
      <trkpt lat="43.62749" lon="6.60883">
        <ele>653.6</ele>
        <time>2021-06-13T11:30:19.000Z</time>
      </trkpt>
      <trkpt lat="43.62757" lon="6.60892">
        <ele>654.3</ele>
        <time>2021-06-13T11:30:36.000Z</time>
      </trkpt>
      <trkpt lat="43.62766" lon="6.60889">
        <ele>654.6</ele>
        <time>2021-06-13T11:30:44.000Z</time>
      </trkpt>
      <trkpt lat="43.62776" lon="6.60889">
        <ele>655.2</ele>
        <time>2021-06-13T11:30:51.000Z</time>
      </trkpt>
      <trkpt lat="43.62784" lon="6.60893">
        <ele>656.4</ele>
        <time>2021-06-13T11:31:01.000Z</time>
      </trkpt>
      <trkpt lat="43.62792" lon="6.60898">
        <ele>657.6</ele>
        <time>2021-06-13T11:31:14.000Z</time>
      </trkpt>
      <trkpt lat="43.62797" lon="6.60904">
        <ele>658.7</ele>
        <time>2021-06-13T11:31:25.000Z</time>
      </trkpt>
      <trkpt lat="43.62797" lon="6.60904">
        <ele>658.9</ele>
        <time>2021-06-13T11:31:43.000Z</time>
      </trkpt>
      <trkpt lat="43.62806" lon="6.60902">
        <ele>660.2</ele>
        <time>2021-06-13T11:31:59.000Z</time>
      </trkpt>
      <trkpt lat="43.62808" lon="6.60894">
        <ele>661.6</ele>
        <time>2021-06-13T11:32:16.000Z</time>
      </trkpt>
      <trkpt lat="43.62809" lon="6.60894">
        <ele>661.8</ele>
        <time>2021-06-13T11:32:24.000Z</time>
      </trkpt>
      <trkpt lat="43.6281" lon="6.60892">
        <ele>661.9</ele>
        <time>2021-06-13T11:32:32.000Z</time>
      </trkpt>
      <trkpt lat="43.6281" lon="6.60892">
        <ele>661.8</ele>
        <time>2021-06-13T11:32:33.000Z</time>
      </trkpt>
      <trkpt lat="43.62809" lon="6.60896">
        <ele>661.7</ele>
        <time>2021-06-13T11:32:44.000Z</time>
      </trkpt>
      <trkpt lat="43.62809" lon="6.60896">
        <ele>661.8</ele>
        <time>2021-06-13T11:32:49.000Z</time>
      </trkpt>
      <trkpt lat="43.62809" lon="6.60893">
        <ele>661.8</ele>
        <time>2021-06-13T11:33:03.000Z</time>
      </trkpt>
      <trkpt lat="43.62809" lon="6.60893">
        <ele>661.7</ele>
        <time>2021-06-13T11:33:04.000Z</time>
      </trkpt>
      <trkpt lat="43.62809" lon="6.60893">
        <ele>662</ele>
        <time>2021-06-13T11:33:07.000Z</time>
      </trkpt>
      <trkpt lat="43.62809" lon="6.60894">
        <ele>662.2</ele>
        <time>2021-06-13T11:33:08.000Z</time>
      </trkpt>
      <trkpt lat="43.62808" lon="6.60894">
        <ele>661.7</ele>
        <time>2021-06-13T11:33:13.000Z</time>
      </trkpt>
      <trkpt lat="43.62807" lon="6.60894">
        <ele>661.8</ele>
        <time>2021-06-13T11:33:14.000Z</time>
      </trkpt>
      <trkpt lat="43.62807" lon="6.60895">
        <ele>661.7</ele>
        <time>2021-06-13T11:33:22.000Z</time>
      </trkpt>
      <trkpt lat="43.62808" lon="6.60895">
        <ele>661.7</ele>
        <time>2021-06-13T11:33:24.000Z</time>
      </trkpt>
      <trkpt lat="43.62814" lon="6.60904">
        <ele>661.9</ele>
        <time>2021-06-13T11:33:44.000Z</time>
      </trkpt>
      <trkpt lat="43.62814" lon="6.60905">
        <ele>661.9</ele>
        <time>2021-06-13T11:33:46.000Z</time>
      </trkpt>
      <trkpt lat="43.62813" lon="6.60904">
        <ele>661.9</ele>
        <time>2021-06-13T11:33:47.000Z</time>
      </trkpt>
      <trkpt lat="43.62814" lon="6.60897">
        <ele>661.8</ele>
        <time>2021-06-13T11:34:22.000Z</time>
      </trkpt>
      <trkpt lat="43.62814" lon="6.60896">
        <ele>661.9</ele>
        <time>2021-06-13T11:34:24.000Z</time>
      </trkpt>
      <trkpt lat="43.62814" lon="6.60896">
        <ele>661.8</ele>
        <time>2021-06-13T11:34:25.000Z</time>
      </trkpt>
      <trkpt lat="43.62814" lon="6.60896">
        <ele>661.6</ele>
        <time>2021-06-13T11:34:26.000Z</time>
      </trkpt>
      <trkpt lat="43.62814" lon="6.60896">
        <ele>661.7</ele>
        <time>2021-06-13T11:34:28.000Z</time>
      </trkpt>
      <trkpt lat="43.62814" lon="6.60896">
        <ele>662</ele>
        <time>2021-06-13T11:34:34.000Z</time>
      </trkpt>
      <trkpt lat="43.62814" lon="6.60896">
        <ele>661.8</ele>
        <time>2021-06-13T11:34:38.000Z</time>
      </trkpt>
      <trkpt lat="43.62815" lon="6.60897">
        <ele>661.9</ele>
        <time>2021-06-13T11:34:39.000Z</time>
      </trkpt>
      <trkpt lat="43.62815" lon="6.60897">
        <ele>661.8</ele>
        <time>2021-06-13T11:34:41.000Z</time>
      </trkpt>
      <trkpt lat="43.62815" lon="6.60897">
        <ele>661.8</ele>
        <time>2021-06-13T11:34:43.000Z</time>
      </trkpt>
      <trkpt lat="43.62814" lon="6.60897">
        <ele>661.8</ele>
        <time>2021-06-13T11:34:45.000Z</time>
      </trkpt>
      <trkpt lat="43.62814" lon="6.60897">
        <ele>661.5</ele>
        <time>2021-06-13T11:34:46.000Z</time>
      </trkpt>
      <trkpt lat="43.62814" lon="6.60898">
        <ele>661.5</ele>
        <time>2021-06-13T11:34:49.000Z</time>
      </trkpt>
      <trkpt lat="43.62814" lon="6.60898">
        <ele>661.2</ele>
        <time>2021-06-13T11:34:57.000Z</time>
      </trkpt>
      <trkpt lat="43.62814" lon="6.60899">
        <ele>661.2</ele>
        <time>2021-06-13T11:35:02.000Z</time>
      </trkpt>
      <trkpt lat="43.62814" lon="6.609">
        <ele>660.9</ele>
        <time>2021-06-13T11:35:03.000Z</time>
      </trkpt>
      <trkpt lat="43.62814" lon="6.609">
        <ele>661.3</ele>
        <time>2021-06-13T11:35:06.000Z</time>
      </trkpt>
      <trkpt lat="43.62814" lon="6.609">
        <ele>661.1</ele>
        <time>2021-06-13T11:35:07.000Z</time>
      </trkpt>
      <trkpt lat="43.62813" lon="6.609">
        <ele>661.4</ele>
        <time>2021-06-13T11:35:10.000Z</time>
      </trkpt>
      <trkpt lat="43.62814" lon="6.60901">
        <ele>661.5</ele>
        <time>2021-06-13T11:35:12.000Z</time>
      </trkpt>
      <trkpt lat="43.62814" lon="6.60899">
        <ele>661.4</ele>
        <time>2021-06-13T11:35:20.000Z</time>
      </trkpt>
      <trkpt lat="43.62814" lon="6.60899">
        <ele>661.1</ele>
        <time>2021-06-13T11:35:28.000Z</time>
      </trkpt>
      <trkpt lat="43.62815" lon="6.60899">
        <ele>661.3</ele>
        <time>2021-06-13T11:35:30.000Z</time>
      </trkpt>
      <trkpt lat="43.62815" lon="6.60899">
        <ele>661.4</ele>
        <time>2021-06-13T11:35:44.000Z</time>
      </trkpt>
      <trkpt lat="43.62815" lon="6.609">
        <ele>661.7</ele>
        <time>2021-06-13T11:35:54.000Z</time>
      </trkpt>
      <trkpt lat="43.62816" lon="6.60901">
        <ele>661.4</ele>
        <time>2021-06-13T11:35:56.000Z</time>
      </trkpt>
      <trkpt lat="43.62816" lon="6.60897">
        <ele>661.4</ele>
        <time>2021-06-13T11:36:05.000Z</time>
      </trkpt>
      <trkpt lat="43.62816" lon="6.60897">
        <ele>661.7</ele>
        <time>2021-06-13T11:36:15.000Z</time>
      </trkpt>
      <trkpt lat="43.62816" lon="6.60898">
        <ele>661.6</ele>
        <time>2021-06-13T11:36:17.000Z</time>
      </trkpt>
      <trkpt lat="43.62816" lon="6.60898">
        <ele>661.5</ele>
        <time>2021-06-13T11:36:19.000Z</time>
      </trkpt>
      <trkpt lat="43.62816" lon="6.60898">
        <ele>661.6</ele>
        <time>2021-06-13T11:36:23.000Z</time>
      </trkpt>
      <trkpt lat="43.62816" lon="6.60897">
        <ele>661.5</ele>
        <time>2021-06-13T11:36:25.000Z</time>
      </trkpt>
      <trkpt lat="43.62817" lon="6.60898">
        <ele>661.5</ele>
        <time>2021-06-13T11:36:27.000Z</time>
      </trkpt>
      <trkpt lat="43.62816" lon="6.60898">
        <ele>661.4</ele>
        <time>2021-06-13T11:36:29.000Z</time>
      </trkpt>
      <trkpt lat="43.62816" lon="6.60898">
        <ele>661.3</ele>
        <time>2021-06-13T11:36:30.000Z</time>
      </trkpt>
      <trkpt lat="43.62816" lon="6.60899">
        <ele>661.6</ele>
        <time>2021-06-13T11:36:32.000Z</time>
      </trkpt>
      <trkpt lat="43.62815" lon="6.60906">
        <ele>661.7</ele>
        <time>2021-06-13T11:36:48.000Z</time>
      </trkpt>
      <trkpt lat="43.62815" lon="6.60906">
        <ele>661.6</ele>
        <time>2021-06-13T11:36:49.000Z</time>
      </trkpt>
      <trkpt lat="43.62815" lon="6.60906">
        <ele>661.6</ele>
        <time>2021-06-13T11:36:50.000Z</time>
      </trkpt>
      <trkpt lat="43.62815" lon="6.60906">
        <ele>661.6</ele>
        <time>2021-06-13T11:36:56.000Z</time>
      </trkpt>
      <trkpt lat="43.62815" lon="6.60906">
        <ele>661.6</ele>
        <time>2021-06-13T11:36:57.000Z</time>
      </trkpt>
      <trkpt lat="43.62816" lon="6.60906">
        <ele>661.6</ele>
        <time>2021-06-13T11:37:34.000Z</time>
      </trkpt>
      <trkpt lat="43.62816" lon="6.60906">
        <ele>661.6</ele>
        <time>2021-06-13T11:37:37.000Z</time>
      </trkpt>
      <trkpt lat="43.62816" lon="6.60906">
        <ele>661.9</ele>
        <time>2021-06-13T11:37:47.000Z</time>
      </trkpt>
      <trkpt lat="43.62816" lon="6.60906">
        <ele>661.8</ele>
        <time>2021-06-13T11:37:48.000Z</time>
      </trkpt>
      <trkpt lat="43.62816" lon="6.60906">
        <ele>661.6</ele>
        <time>2021-06-13T11:38:21.000Z</time>
      </trkpt>
      <trkpt lat="43.62816" lon="6.60906">
        <ele>661.7</ele>
        <time>2021-06-13T11:38:22.000Z</time>
      </trkpt>
      <trkpt lat="43.62816" lon="6.60906">
        <ele>661.9</ele>
        <time>2021-06-13T11:38:36.000Z</time>
      </trkpt>
      <trkpt lat="43.62814" lon="6.60906">
        <ele>661.5</ele>
        <time>2021-06-13T11:38:44.000Z</time>
      </trkpt>
      <trkpt lat="43.62814" lon="6.60906">
        <ele>661.6</ele>
        <time>2021-06-13T11:38:46.000Z</time>
      </trkpt>
      <trkpt lat="43.62814" lon="6.60907">
        <ele>661.3</ele>
        <time>2021-06-13T11:39:00.000Z</time>
      </trkpt>
      <trkpt lat="43.62814" lon="6.60907">
        <ele>660.9</ele>
        <time>2021-06-13T11:39:05.000Z</time>
      </trkpt>
      <trkpt lat="43.62805" lon="6.60906">
        <ele>659.9</ele>
        <time>2021-06-13T11:39:17.000Z</time>
      </trkpt>
      <trkpt lat="43.628" lon="6.60896">
        <ele>658.9</ele>
        <time>2021-06-13T11:39:28.000Z</time>
      </trkpt>
      <trkpt lat="43.62792" lon="6.60887">
        <ele>657.4</ele>
        <time>2021-06-13T11:39:37.000Z</time>
      </trkpt>
      <trkpt lat="43.62783" lon="6.60884">
        <ele>655.5</ele>
        <time>2021-06-13T11:39:48.000Z</time>
      </trkpt>
      <trkpt lat="43.62774" lon="6.60881">
        <ele>654.6</ele>
        <time>2021-06-13T11:39:55.000Z</time>
      </trkpt>
      <trkpt lat="43.62765" lon="6.60883">
        <ele>654</ele>
        <time>2021-06-13T11:40:04.000Z</time>
      </trkpt>
      <trkpt lat="43.62755" lon="6.6088">
        <ele>654.2</ele>
        <time>2021-06-13T11:40:13.000Z</time>
      </trkpt>
      <trkpt lat="43.62749" lon="6.6087">
        <ele>654.5</ele>
        <time>2021-06-13T11:40:21.000Z</time>
      </trkpt>
      <trkpt lat="43.62752" lon="6.60858">
        <ele>655.1</ele>
        <time>2021-06-13T11:40:33.000Z</time>
      </trkpt>
      <trkpt lat="43.62753" lon="6.60844">
        <ele>656.2</ele>
        <time>2021-06-13T11:40:44.000Z</time>
      </trkpt>
      <trkpt lat="43.62754" lon="6.60832">
        <ele>657.4</ele>
        <time>2021-06-13T11:40:53.000Z</time>
      </trkpt>
      <trkpt lat="43.62757" lon="6.60819">
        <ele>658</ele>
        <time>2021-06-13T11:41:02.000Z</time>
      </trkpt>
      <trkpt lat="43.62758" lon="6.60807">
        <ele>658.8</ele>
        <time>2021-06-13T11:41:12.000Z</time>
      </trkpt>
      <trkpt lat="43.62759" lon="6.60801">
        <ele>659.2</ele>
        <time>2021-06-13T11:41:18.000Z</time>
      </trkpt>
      <trkpt lat="43.6276" lon="6.60801">
        <ele>659.1</ele>
        <time>2021-06-13T11:41:19.000Z</time>
      </trkpt>
      <trkpt lat="43.6276" lon="6.60801">
        <ele>659.1</ele>
        <time>2021-06-13T11:41:20.000Z</time>
      </trkpt>
      <trkpt lat="43.62759" lon="6.60801">
        <ele>659.1</ele>
        <time>2021-06-13T11:41:23.000Z</time>
      </trkpt>
      <trkpt lat="43.62759" lon="6.60801">
        <ele>659</ele>
        <time>2021-06-13T11:41:24.000Z</time>
      </trkpt>
      <trkpt lat="43.62759" lon="6.60801">
        <ele>659.3</ele>
        <time>2021-06-13T11:41:27.000Z</time>
      </trkpt>
      <trkpt lat="43.62759" lon="6.60788">
        <ele>660</ele>
        <time>2021-06-13T11:41:39.000Z</time>
      </trkpt>
      <trkpt lat="43.62762" lon="6.60775">
        <ele>660.5</ele>
        <time>2021-06-13T11:41:48.000Z</time>
      </trkpt>
      <trkpt lat="43.62762" lon="6.60761">
        <ele>661.1</ele>
        <time>2021-06-13T11:41:58.000Z</time>
      </trkpt>
      <trkpt lat="43.62763" lon="6.60749">
        <ele>661.9</ele>
        <time>2021-06-13T11:42:06.000Z</time>
      </trkpt>
      <trkpt lat="43.6276" lon="6.60737">
        <ele>662.3</ele>
        <time>2021-06-13T11:42:14.000Z</time>
      </trkpt>
      <trkpt lat="43.62757" lon="6.60725">
        <ele>662.8</ele>
        <time>2021-06-13T11:42:23.000Z</time>
      </trkpt>
      <trkpt lat="43.62756" lon="6.60712">
        <ele>663.2</ele>
        <time>2021-06-13T11:42:33.000Z</time>
      </trkpt>
      <trkpt lat="43.62754" lon="6.60699">
        <ele>664.1</ele>
        <time>2021-06-13T11:42:43.000Z</time>
      </trkpt>
      <trkpt lat="43.62751" lon="6.60687">
        <ele>665</ele>
        <time>2021-06-13T11:42:53.000Z</time>
      </trkpt>
      <trkpt lat="43.62747" lon="6.60675">
        <ele>665.5</ele>
        <time>2021-06-13T11:43:02.000Z</time>
      </trkpt>
      <trkpt lat="43.62744" lon="6.60663">
        <ele>666.2</ele>
        <time>2021-06-13T11:43:11.000Z</time>
      </trkpt>
      <trkpt lat="43.62743" lon="6.60659">
        <ele>666.1</ele>
        <time>2021-06-13T11:43:16.000Z</time>
      </trkpt>
      <trkpt lat="43.62743" lon="6.60659">
        <ele>666.2</ele>
        <time>2021-06-13T11:43:19.000Z</time>
      </trkpt>
      <trkpt lat="43.62744" lon="6.60659">
        <ele>666</ele>
        <time>2021-06-13T11:43:22.000Z</time>
      </trkpt>
      <trkpt lat="43.62743" lon="6.60659">
        <ele>666.2</ele>
        <time>2021-06-13T11:43:24.000Z</time>
      </trkpt>
      <trkpt lat="43.62743" lon="6.60657">
        <ele>666.4</ele>
        <time>2021-06-13T11:43:34.000Z</time>
      </trkpt>
      <trkpt lat="43.62743" lon="6.60656">
        <ele>666.7</ele>
        <time>2021-06-13T11:43:36.000Z</time>
      </trkpt>
      <trkpt lat="43.62741" lon="6.60654">
        <ele>666.4</ele>
        <time>2021-06-13T11:43:41.000Z</time>
      </trkpt>
      <trkpt lat="43.62741" lon="6.60653">
        <ele>666.4</ele>
        <time>2021-06-13T11:43:42.000Z</time>
      </trkpt>
      <trkpt lat="43.62737" lon="6.60642">
        <ele>667</ele>
        <time>2021-06-13T11:43:50.000Z</time>
      </trkpt>
      <trkpt lat="43.62731" lon="6.60631">
        <ele>667.1</ele>
        <time>2021-06-13T11:43:57.000Z</time>
      </trkpt>
      <trkpt lat="43.62724" lon="6.6062">
        <ele>667.3</ele>
        <time>2021-06-13T11:44:04.000Z</time>
      </trkpt>
      <trkpt lat="43.62718" lon="6.60609">
        <ele>667.4</ele>
        <time>2021-06-13T11:44:11.000Z</time>
      </trkpt>
      <trkpt lat="43.62712" lon="6.60599">
        <ele>667.2</ele>
        <time>2021-06-13T11:44:20.000Z</time>
      </trkpt>
      <trkpt lat="43.62706" lon="6.60589">
        <ele>667.1</ele>
        <time>2021-06-13T11:44:29.000Z</time>
      </trkpt>
      <trkpt lat="43.62699" lon="6.60579">
        <ele>666.9</ele>
        <time>2021-06-13T11:44:36.000Z</time>
      </trkpt>
      <trkpt lat="43.62693" lon="6.60569">
        <ele>666.7</ele>
        <time>2021-06-13T11:44:43.000Z</time>
      </trkpt>
      <trkpt lat="43.62688" lon="6.60559">
        <ele>666</ele>
        <time>2021-06-13T11:44:50.000Z</time>
      </trkpt>
      <trkpt lat="43.6268" lon="6.6055">
        <ele>665.4</ele>
        <time>2021-06-13T11:44:57.000Z</time>
      </trkpt>
      <trkpt lat="43.62675" lon="6.6054">
        <ele>664.5</ele>
        <time>2021-06-13T11:45:04.000Z</time>
      </trkpt>
      <trkpt lat="43.62666" lon="6.60532">
        <ele>663.8</ele>
        <time>2021-06-13T11:45:12.000Z</time>
      </trkpt>
      <trkpt lat="43.62658" lon="6.60525">
        <ele>662.6</ele>
        <time>2021-06-13T11:45:22.000Z</time>
      </trkpt>
      <trkpt lat="43.62651" lon="6.60516">
        <ele>661.9</ele>
        <time>2021-06-13T11:45:29.000Z</time>
      </trkpt>
      <trkpt lat="43.62644" lon="6.60507">
        <ele>661.1</ele>
        <time>2021-06-13T11:45:36.000Z</time>
      </trkpt>
      <trkpt lat="43.62636" lon="6.60498">
        <ele>660.1</ele>
        <time>2021-06-13T11:45:43.000Z</time>
      </trkpt>
      <trkpt lat="43.6263" lon="6.60487">
        <ele>658.8</ele>
        <time>2021-06-13T11:45:51.000Z</time>
      </trkpt>
      <trkpt lat="43.62623" lon="6.60478">
        <ele>657.8</ele>
        <time>2021-06-13T11:46:00.000Z</time>
      </trkpt>
      <trkpt lat="43.62615" lon="6.6047">
        <ele>657</ele>
        <time>2021-06-13T11:46:08.000Z</time>
      </trkpt>
      <trkpt lat="43.62608" lon="6.6046">
        <ele>656</ele>
        <time>2021-06-13T11:46:16.000Z</time>
      </trkpt>
      <trkpt lat="43.62602" lon="6.60451">
        <ele>655.6</ele>
        <time>2021-06-13T11:46:24.000Z</time>
      </trkpt>
      <trkpt lat="43.62594" lon="6.60442">
        <ele>654.6</ele>
        <time>2021-06-13T11:46:32.000Z</time>
      </trkpt>
      <trkpt lat="43.62588" lon="6.60432">
        <ele>653.7</ele>
        <time>2021-06-13T11:46:40.000Z</time>
      </trkpt>
      <trkpt lat="43.62582" lon="6.60421">
        <ele>653.3</ele>
        <time>2021-06-13T11:46:49.000Z</time>
      </trkpt>
      <trkpt lat="43.62575" lon="6.60412">
        <ele>652.4</ele>
        <time>2021-06-13T11:46:58.000Z</time>
      </trkpt>
      <trkpt lat="43.62567" lon="6.60401">
        <ele>651.1</ele>
        <time>2021-06-13T11:47:08.000Z</time>
      </trkpt>
      <trkpt lat="43.62561" lon="6.60392">
        <ele>650.7</ele>
        <time>2021-06-13T11:47:15.000Z</time>
      </trkpt>
      <trkpt lat="43.62553" lon="6.60383">
        <ele>650.1</ele>
        <time>2021-06-13T11:47:23.000Z</time>
      </trkpt>
      <trkpt lat="43.62545" lon="6.60376">
        <ele>649.3</ele>
        <time>2021-06-13T11:47:29.000Z</time>
      </trkpt>
      <trkpt lat="43.62538" lon="6.60367">
        <ele>648.1</ele>
        <time>2021-06-13T11:47:36.000Z</time>
      </trkpt>
      <trkpt lat="43.62531" lon="6.60356">
        <ele>647</ele>
        <time>2021-06-13T11:47:44.000Z</time>
      </trkpt>
      <trkpt lat="43.62524" lon="6.60346">
        <ele>645.9</ele>
        <time>2021-06-13T11:47:51.000Z</time>
      </trkpt>
      <trkpt lat="43.62518" lon="6.60335">
        <ele>645.3</ele>
        <time>2021-06-13T11:47:58.000Z</time>
      </trkpt>
      <trkpt lat="43.62511" lon="6.60325">
        <ele>644.1</ele>
        <time>2021-06-13T11:48:06.000Z</time>
      </trkpt>
      <trkpt lat="43.62506" lon="6.60315">
        <ele>643.1</ele>
        <time>2021-06-13T11:48:15.000Z</time>
      </trkpt>
      <trkpt lat="43.625" lon="6.60306">
        <ele>642.4</ele>
        <time>2021-06-13T11:48:25.000Z</time>
      </trkpt>
      <trkpt lat="43.62493" lon="6.60296">
        <ele>641.7</ele>
        <time>2021-06-13T11:48:31.000Z</time>
      </trkpt>
      <trkpt lat="43.62494" lon="6.60283">
        <ele>641.1</ele>
        <time>2021-06-13T11:48:41.000Z</time>
      </trkpt>
      <trkpt lat="43.6249" lon="6.60271">
        <ele>640.3</ele>
        <time>2021-06-13T11:48:48.000Z</time>
      </trkpt>
      <trkpt lat="43.62487" lon="6.60258">
        <ele>639.6</ele>
        <time>2021-06-13T11:48:54.000Z</time>
      </trkpt>
      <trkpt lat="43.62484" lon="6.60247">
        <ele>639</ele>
        <time>2021-06-13T11:49:02.000Z</time>
      </trkpt>
      <trkpt lat="43.62482" lon="6.60234">
        <ele>638.3</ele>
        <time>2021-06-13T11:49:10.000Z</time>
      </trkpt>
      <trkpt lat="43.62479" lon="6.60221">
        <ele>637.9</ele>
        <time>2021-06-13T11:49:18.000Z</time>
      </trkpt>
      <trkpt lat="43.62477" lon="6.60209">
        <ele>637.8</ele>
        <time>2021-06-13T11:49:25.000Z</time>
      </trkpt>
      <trkpt lat="43.62472" lon="6.60199">
        <ele>637.2</ele>
        <time>2021-06-13T11:49:33.000Z</time>
      </trkpt>
      <trkpt lat="43.62468" lon="6.60186">
        <ele>636.8</ele>
        <time>2021-06-13T11:49:42.000Z</time>
      </trkpt>
      <trkpt lat="43.62465" lon="6.60173">
        <ele>636.6</ele>
        <time>2021-06-13T11:49:49.000Z</time>
      </trkpt>
      <trkpt lat="43.62463" lon="6.60159">
        <ele>636.5</ele>
        <time>2021-06-13T11:49:58.000Z</time>
      </trkpt>
      <trkpt lat="43.62457" lon="6.6015">
        <ele>636</ele>
        <time>2021-06-13T11:50:05.000Z</time>
      </trkpt>
      <trkpt lat="43.62449" lon="6.60144">
        <ele>635.4</ele>
        <time>2021-06-13T11:50:13.000Z</time>
      </trkpt>
      <trkpt lat="43.6244" lon="6.60137">
        <ele>635.2</ele>
        <time>2021-06-13T11:50:20.000Z</time>
      </trkpt>
      <trkpt lat="43.62431" lon="6.60131">
        <ele>634.6</ele>
        <time>2021-06-13T11:50:26.000Z</time>
      </trkpt>
      <trkpt lat="43.62423" lon="6.60126">
        <ele>634.7</ele>
        <time>2021-06-13T11:50:34.000Z</time>
      </trkpt>
      <trkpt lat="43.62415" lon="6.60118">
        <ele>634.8</ele>
        <time>2021-06-13T11:50:41.000Z</time>
      </trkpt>
      <trkpt lat="43.62406" lon="6.60112">
        <ele>634.4</ele>
        <time>2021-06-13T11:50:51.000Z</time>
      </trkpt>
      <trkpt lat="43.62399" lon="6.60103">
        <ele>634.1</ele>
        <time>2021-06-13T11:51:00.000Z</time>
      </trkpt>
      <trkpt lat="43.62394" lon="6.60091">
        <ele>634</ele>
        <time>2021-06-13T11:51:07.000Z</time>
      </trkpt>
      <trkpt lat="43.62389" lon="6.60081">
        <ele>632.7</ele>
        <time>2021-06-13T11:51:17.000Z</time>
      </trkpt>
      <trkpt lat="43.62386" lon="6.60068">
        <ele>632.4</ele>
        <time>2021-06-13T11:51:23.000Z</time>
      </trkpt>
      <trkpt lat="43.62384" lon="6.60054">
        <ele>631.4</ele>
        <time>2021-06-13T11:51:30.000Z</time>
      </trkpt>
      <trkpt lat="43.62381" lon="6.60042">
        <ele>630.7</ele>
        <time>2021-06-13T11:51:37.000Z</time>
      </trkpt>
      <trkpt lat="43.62379" lon="6.6003">
        <ele>630.1</ele>
        <time>2021-06-13T11:51:45.000Z</time>
      </trkpt>
      <trkpt lat="43.62376" lon="6.60017">
        <ele>628.6</ele>
        <time>2021-06-13T11:51:53.000Z</time>
      </trkpt>
      <trkpt lat="43.62374" lon="6.60004">
        <ele>627.9</ele>
        <time>2021-06-13T11:52:01.000Z</time>
      </trkpt>
      <trkpt lat="43.6237" lon="6.59992">
        <ele>627.3</ele>
        <time>2021-06-13T11:52:09.000Z</time>
      </trkpt>
      <trkpt lat="43.62367" lon="6.59979">
        <ele>626.6</ele>
        <time>2021-06-13T11:52:17.000Z</time>
      </trkpt>
      <trkpt lat="43.62367" lon="6.59966">
        <ele>625.8</ele>
        <time>2021-06-13T11:52:25.000Z</time>
      </trkpt>
      <trkpt lat="43.62367" lon="6.59952">
        <ele>625</ele>
        <time>2021-06-13T11:52:35.000Z</time>
      </trkpt>
      <trkpt lat="43.62362" lon="6.5994">
        <ele>624.5</ele>
        <time>2021-06-13T11:52:42.000Z</time>
      </trkpt>
      <trkpt lat="43.62357" lon="6.59929">
        <ele>623.9</ele>
        <time>2021-06-13T11:52:49.000Z</time>
      </trkpt>
      <trkpt lat="43.62354" lon="6.59917">
        <ele>622.9</ele>
        <time>2021-06-13T11:52:56.000Z</time>
      </trkpt>
      <trkpt lat="43.62351" lon="6.59904">
        <ele>622</ele>
        <time>2021-06-13T11:53:04.000Z</time>
      </trkpt>
      <trkpt lat="43.62345" lon="6.59894">
        <ele>620.8</ele>
        <time>2021-06-13T11:53:12.000Z</time>
      </trkpt>
      <trkpt lat="43.62339" lon="6.59883">
        <ele>619.6</ele>
        <time>2021-06-13T11:53:20.000Z</time>
      </trkpt>
      <trkpt lat="43.62334" lon="6.59871">
        <ele>618.3</ele>
        <time>2021-06-13T11:53:27.000Z</time>
      </trkpt>
      <trkpt lat="43.62331" lon="6.59858">
        <ele>617.2</ele>
        <time>2021-06-13T11:53:35.000Z</time>
      </trkpt>
      <trkpt lat="43.62327" lon="6.59846">
        <ele>616</ele>
        <time>2021-06-13T11:53:43.000Z</time>
      </trkpt>
      <trkpt lat="43.62325" lon="6.59833">
        <ele>614.1</ele>
        <time>2021-06-13T11:53:53.000Z</time>
      </trkpt>
      <trkpt lat="43.6232" lon="6.5982">
        <ele>612.9</ele>
        <time>2021-06-13T11:54:01.000Z</time>
      </trkpt>
      <trkpt lat="43.62312" lon="6.59813">
        <ele>612</ele>
        <time>2021-06-13T11:54:12.000Z</time>
      </trkpt>
      <trkpt lat="43.62305" lon="6.59802">
        <ele>612.5</ele>
        <time>2021-06-13T11:54:21.000Z</time>
      </trkpt>
      <trkpt lat="43.62298" lon="6.59793">
        <ele>613</ele>
        <time>2021-06-13T11:54:31.000Z</time>
      </trkpt>
      <trkpt lat="43.6229" lon="6.59786">
        <ele>613.2</ele>
        <time>2021-06-13T11:54:39.000Z</time>
      </trkpt>
      <trkpt lat="43.6228" lon="6.59783">
        <ele>612.9</ele>
        <time>2021-06-13T11:54:48.000Z</time>
      </trkpt>
      <trkpt lat="43.62271" lon="6.59781">
        <ele>613.3</ele>
        <time>2021-06-13T11:54:56.000Z</time>
      </trkpt>
      <trkpt lat="43.62263" lon="6.59775">
        <ele>613.7</ele>
        <time>2021-06-13T11:55:04.000Z</time>
      </trkpt>
      <trkpt lat="43.62255" lon="6.59768">
        <ele>613.7</ele>
        <time>2021-06-13T11:55:12.000Z</time>
      </trkpt>
      <trkpt lat="43.62248" lon="6.59759">
        <ele>614.7</ele>
        <time>2021-06-13T11:55:22.000Z</time>
      </trkpt>
      <trkpt lat="43.62241" lon="6.5975">
        <ele>615.4</ele>
        <time>2021-06-13T11:55:32.000Z</time>
      </trkpt>
      <trkpt lat="43.62234" lon="6.59743">
        <ele>616.2</ele>
        <time>2021-06-13T11:55:39.000Z</time>
      </trkpt>
      <trkpt lat="43.62227" lon="6.59734">
        <ele>617.1</ele>
        <time>2021-06-13T11:55:50.000Z</time>
      </trkpt>
      <trkpt lat="43.62219" lon="6.59727">
        <ele>617.6</ele>
        <time>2021-06-13T11:55:58.000Z</time>
      </trkpt>
      <trkpt lat="43.62212" lon="6.59718">
        <ele>618.3</ele>
        <time>2021-06-13T11:56:08.000Z</time>
      </trkpt>
      <trkpt lat="43.62207" lon="6.59706">
        <ele>618.9</ele>
        <time>2021-06-13T11:56:17.000Z</time>
      </trkpt>
      <trkpt lat="43.62203" lon="6.59694">
        <ele>619.4</ele>
        <time>2021-06-13T11:56:26.000Z</time>
      </trkpt>
      <trkpt lat="43.62202" lon="6.59681">
        <ele>619.9</ele>
        <time>2021-06-13T11:56:34.000Z</time>
      </trkpt>
      <trkpt lat="43.62204" lon="6.59668">
        <ele>620.5</ele>
        <time>2021-06-13T11:56:43.000Z</time>
      </trkpt>
      <trkpt lat="43.62203" lon="6.59655">
        <ele>621.2</ele>
        <time>2021-06-13T11:56:52.000Z</time>
      </trkpt>
      <trkpt lat="43.62202" lon="6.59643">
        <ele>621.6</ele>
        <time>2021-06-13T11:56:59.000Z</time>
      </trkpt>
      <trkpt lat="43.62198" lon="6.5963">
        <ele>622.2</ele>
        <time>2021-06-13T11:57:08.000Z</time>
      </trkpt>
      <trkpt lat="43.62192" lon="6.59619">
        <ele>622.5</ele>
        <time>2021-06-13T11:57:17.000Z</time>
      </trkpt>
      <trkpt lat="43.62187" lon="6.59609">
        <ele>623.2</ele>
        <time>2021-06-13T11:57:29.000Z</time>
      </trkpt>
      <trkpt lat="43.62179" lon="6.59602">
        <ele>624.3</ele>
        <time>2021-06-13T11:57:38.000Z</time>
      </trkpt>
      <trkpt lat="43.62171" lon="6.59591">
        <ele>625</ele>
        <time>2021-06-13T11:57:47.000Z</time>
      </trkpt>
      <trkpt lat="43.62163" lon="6.59584">
        <ele>625.6</ele>
        <time>2021-06-13T11:57:56.000Z</time>
      </trkpt>
      <trkpt lat="43.62155" lon="6.59579">
        <ele>626.3</ele>
        <time>2021-06-13T11:58:04.000Z</time>
      </trkpt>
      <trkpt lat="43.62147" lon="6.59572">
        <ele>626.9</ele>
        <time>2021-06-13T11:58:13.000Z</time>
      </trkpt>
      <trkpt lat="43.62139" lon="6.59564">
        <ele>627.8</ele>
        <time>2021-06-13T11:58:24.000Z</time>
      </trkpt>
      <trkpt lat="43.62131" lon="6.59558">
        <ele>628.6</ele>
        <time>2021-06-13T11:58:31.000Z</time>
      </trkpt>
      <trkpt lat="43.62123" lon="6.59552">
        <ele>629</ele>
        <time>2021-06-13T11:58:40.000Z</time>
      </trkpt>
      <trkpt lat="43.62117" lon="6.5954">
        <ele>630.4</ele>
        <time>2021-06-13T11:58:54.000Z</time>
      </trkpt>
      <trkpt lat="43.62113" lon="6.59528">
        <ele>630.8</ele>
        <time>2021-06-13T11:59:02.000Z</time>
      </trkpt>
      <trkpt lat="43.62114" lon="6.59515">
        <ele>631.9</ele>
        <time>2021-06-13T11:59:11.000Z</time>
      </trkpt>
      <trkpt lat="43.62112" lon="6.59502">
        <ele>632.7</ele>
        <time>2021-06-13T11:59:21.000Z</time>
      </trkpt>
      <trkpt lat="43.62111" lon="6.59488">
        <ele>633.8</ele>
        <time>2021-06-13T11:59:31.000Z</time>
      </trkpt>
      <trkpt lat="43.6211" lon="6.59475">
        <ele>635.2</ele>
        <time>2021-06-13T11:59:43.000Z</time>
      </trkpt>
      <trkpt lat="43.62109" lon="6.59462">
        <ele>636</ele>
        <time>2021-06-13T11:59:53.000Z</time>
      </trkpt>
      <trkpt lat="43.62106" lon="6.59451">
        <ele>636.6</ele>
        <time>2021-06-13T12:00:00.000Z</time>
      </trkpt>
      <trkpt lat="43.62105" lon="6.59437">
        <ele>637.4</ele>
        <time>2021-06-13T12:00:12.000Z</time>
      </trkpt>
      <trkpt lat="43.62098" lon="6.59427">
        <ele>638.2</ele>
        <time>2021-06-13T12:00:23.000Z</time>
      </trkpt>
      <trkpt lat="43.62094" lon="6.59416">
        <ele>639.1</ele>
        <time>2021-06-13T12:00:32.000Z</time>
      </trkpt>
      <trkpt lat="43.62088" lon="6.59405">
        <ele>639.4</ele>
        <time>2021-06-13T12:00:39.000Z</time>
      </trkpt>
      <trkpt lat="43.62086" lon="6.59393">
        <ele>640.3</ele>
        <time>2021-06-13T12:00:51.000Z</time>
      </trkpt>
      <trkpt lat="43.62084" lon="6.5938">
        <ele>641.1</ele>
        <time>2021-06-13T12:01:00.000Z</time>
      </trkpt>
      <trkpt lat="43.62085" lon="6.59366">
        <ele>641.8</ele>
        <time>2021-06-13T12:01:12.000Z</time>
      </trkpt>
      <trkpt lat="43.62086" lon="6.59353">
        <ele>642.8</ele>
        <time>2021-06-13T12:01:24.000Z</time>
      </trkpt>
      <trkpt lat="43.62079" lon="6.59345">
        <ele>644.1</ele>
        <time>2021-06-13T12:01:35.000Z</time>
      </trkpt>
      <trkpt lat="43.6207" lon="6.5934">
        <ele>645.3</ele>
        <time>2021-06-13T12:01:46.000Z</time>
      </trkpt>
      <trkpt lat="43.62061" lon="6.59333">
        <ele>646.3</ele>
        <time>2021-06-13T12:01:56.000Z</time>
      </trkpt>
      <trkpt lat="43.62052" lon="6.59331">
        <ele>647.3</ele>
        <time>2021-06-13T12:02:06.000Z</time>
      </trkpt>
      <trkpt lat="43.62042" lon="6.59327">
        <ele>648.3</ele>
        <time>2021-06-13T12:02:18.000Z</time>
      </trkpt>
      <trkpt lat="43.62033" lon="6.59325">
        <ele>649.6</ele>
        <time>2021-06-13T12:02:30.000Z</time>
      </trkpt>
      <trkpt lat="43.62024" lon="6.5932">
        <ele>650.8</ele>
        <time>2021-06-13T12:02:42.000Z</time>
      </trkpt>
      <trkpt lat="43.62024" lon="6.59321">
        <ele>651</ele>
        <time>2021-06-13T12:02:44.000Z</time>
      </trkpt>
      <trkpt lat="43.62023" lon="6.5932">
        <ele>651.5</ele>
        <time>2021-06-13T12:02:46.000Z</time>
      </trkpt>
      <trkpt lat="43.62017" lon="6.59311">
        <ele>652.7</ele>
        <time>2021-06-13T12:02:59.000Z</time>
      </trkpt>
      <trkpt lat="43.62009" lon="6.59307">
        <ele>653.1</ele>
        <time>2021-06-13T12:03:08.000Z</time>
      </trkpt>
      <trkpt lat="43.62" lon="6.59314">
        <ele>652.8</ele>
        <time>2021-06-13T12:03:15.000Z</time>
      </trkpt>
      <trkpt lat="43.61992" lon="6.59321">
        <ele>652.9</ele>
        <time>2021-06-13T12:03:23.000Z</time>
      </trkpt>
      <trkpt lat="43.61985" lon="6.5933">
        <ele>652.6</ele>
        <time>2021-06-13T12:03:30.000Z</time>
      </trkpt>
      <trkpt lat="43.61977" lon="6.59336">
        <ele>652.5</ele>
        <time>2021-06-13T12:03:37.000Z</time>
      </trkpt>
      <trkpt lat="43.61968" lon="6.59337">
        <ele>652.4</ele>
        <time>2021-06-13T12:03:44.000Z</time>
      </trkpt>
      <trkpt lat="43.6196" lon="6.59332">
        <ele>652.5</ele>
        <time>2021-06-13T12:03:53.000Z</time>
      </trkpt>
      <trkpt lat="43.6195" lon="6.59329">
        <ele>652.3</ele>
        <time>2021-06-13T12:04:01.000Z</time>
      </trkpt>
      <trkpt lat="43.61941" lon="6.59328">
        <ele>652.6</ele>
        <time>2021-06-13T12:04:09.000Z</time>
      </trkpt>
      <trkpt lat="43.61931" lon="6.59324">
        <ele>652.5</ele>
        <time>2021-06-13T12:04:17.000Z</time>
      </trkpt>
      <trkpt lat="43.61922" lon="6.5932">
        <ele>652.4</ele>
        <time>2021-06-13T12:04:24.000Z</time>
      </trkpt>
      <trkpt lat="43.61913" lon="6.5932">
        <ele>652.9</ele>
        <time>2021-06-13T12:04:32.000Z</time>
      </trkpt>
      <trkpt lat="43.61904" lon="6.59319">
        <ele>652.8</ele>
        <time>2021-06-13T12:04:40.000Z</time>
      </trkpt>
      <trkpt lat="43.61895" lon="6.59317">
        <ele>652.7</ele>
        <time>2021-06-13T12:04:48.000Z</time>
      </trkpt>
      <trkpt lat="43.61885" lon="6.59315">
        <ele>652.7</ele>
        <time>2021-06-13T12:04:57.000Z</time>
      </trkpt>
      <trkpt lat="43.61875" lon="6.59314">
        <ele>653</ele>
        <time>2021-06-13T12:05:05.000Z</time>
      </trkpt>
      <trkpt lat="43.61866" lon="6.59315">
        <ele>653.2</ele>
        <time>2021-06-13T12:05:12.000Z</time>
      </trkpt>
      <trkpt lat="43.61857" lon="6.59315">
        <ele>653.7</ele>
        <time>2021-06-13T12:05:20.000Z</time>
      </trkpt>
      <trkpt lat="43.61847" lon="6.59317">
        <ele>654.1</ele>
        <time>2021-06-13T12:05:30.000Z</time>
      </trkpt>
      <trkpt lat="43.61838" lon="6.59316">
        <ele>654.4</ele>
        <time>2021-06-13T12:05:38.000Z</time>
      </trkpt>
      <trkpt lat="43.61828" lon="6.59316">
        <ele>654.7</ele>
        <time>2021-06-13T12:05:46.000Z</time>
      </trkpt>
      <trkpt lat="43.61819" lon="6.59319">
        <ele>654.6</ele>
        <time>2021-06-13T12:05:53.000Z</time>
      </trkpt>
      <trkpt lat="43.61813" lon="6.59329">
        <ele>654.7</ele>
        <time>2021-06-13T12:06:00.000Z</time>
      </trkpt>
      <trkpt lat="43.61805" lon="6.59339">
        <ele>654.7</ele>
        <time>2021-06-13T12:06:08.000Z</time>
      </trkpt>
      <trkpt lat="43.61798" lon="6.59348">
        <ele>654.6</ele>
        <time>2021-06-13T12:06:16.000Z</time>
      </trkpt>
      <trkpt lat="43.61791" lon="6.59356">
        <ele>654.6</ele>
        <time>2021-06-13T12:06:24.000Z</time>
      </trkpt>
      <trkpt lat="43.61781" lon="6.59358">
        <ele>654.4</ele>
        <time>2021-06-13T12:06:31.000Z</time>
      </trkpt>
      <trkpt lat="43.61772" lon="6.59361">
        <ele>654.4</ele>
        <time>2021-06-13T12:06:38.000Z</time>
      </trkpt>
      <trkpt lat="43.61765" lon="6.59371">
        <ele>653.9</ele>
        <time>2021-06-13T12:06:46.000Z</time>
      </trkpt>
      <trkpt lat="43.61758" lon="6.5938">
        <ele>654</ele>
        <time>2021-06-13T12:06:54.000Z</time>
      </trkpt>
      <trkpt lat="43.6175" lon="6.59388">
        <ele>653.7</ele>
        <time>2021-06-13T12:07:00.000Z</time>
      </trkpt>
      <trkpt lat="43.61742" lon="6.59395">
        <ele>653.6</ele>
        <time>2021-06-13T12:07:07.000Z</time>
      </trkpt>
      <trkpt lat="43.61733" lon="6.59402">
        <ele>653.5</ele>
        <time>2021-06-13T12:07:17.000Z</time>
      </trkpt>
      <trkpt lat="43.61723" lon="6.59403">
        <ele>653.4</ele>
        <time>2021-06-13T12:07:25.000Z</time>
      </trkpt>
      <trkpt lat="43.61714" lon="6.59403">
        <ele>653.5</ele>
        <time>2021-06-13T12:07:34.000Z</time>
      </trkpt>
      <trkpt lat="43.61707" lon="6.5941">
        <ele>653.2</ele>
        <time>2021-06-13T12:07:47.000Z</time>
      </trkpt>
      <trkpt lat="43.61707" lon="6.5941">
        <ele>653.5</ele>
        <time>2021-06-13T12:08:06.000Z</time>
      </trkpt>
      <trkpt lat="43.61707" lon="6.5941">
        <ele>653.5</ele>
        <time>2021-06-13T12:08:07.000Z</time>
      </trkpt>
      <trkpt lat="43.61707" lon="6.5941">
        <ele>653.2</ele>
        <time>2021-06-13T12:08:10.000Z</time>
      </trkpt>
      <trkpt lat="43.61707" lon="6.5941">
        <ele>653.3</ele>
        <time>2021-06-13T12:08:11.000Z</time>
      </trkpt>
      <trkpt lat="43.61707" lon="6.5941">
        <ele>653.3</ele>
        <time>2021-06-13T12:08:17.000Z</time>
      </trkpt>
      <trkpt lat="43.61707" lon="6.5941">
        <ele>653.2</ele>
        <time>2021-06-13T12:08:18.000Z</time>
      </trkpt>
      <trkpt lat="43.61707" lon="6.59409">
        <ele>653.2</ele>
        <time>2021-06-13T12:08:20.000Z</time>
      </trkpt>
      <trkpt lat="43.61706" lon="6.59409">
        <ele>653.3</ele>
        <time>2021-06-13T12:08:22.000Z</time>
      </trkpt>
      <trkpt lat="43.61706" lon="6.59408">
        <ele>653.3</ele>
        <time>2021-06-13T12:08:23.000Z</time>
      </trkpt>
      <trkpt lat="43.61706" lon="6.59408">
        <ele>653.2</ele>
        <time>2021-06-13T12:08:24.000Z</time>
      </trkpt>
      <trkpt lat="43.61706" lon="6.59408">
        <ele>653.2</ele>
        <time>2021-06-13T12:08:27.000Z</time>
      </trkpt>
      <trkpt lat="43.61706" lon="6.59408">
        <ele>653.3</ele>
        <time>2021-06-13T12:08:28.000Z</time>
      </trkpt>
      <trkpt lat="43.61706" lon="6.59408">
        <ele>653.3</ele>
        <time>2021-06-13T12:08:33.000Z</time>
      </trkpt>
      <trkpt lat="43.61706" lon="6.59408">
        <ele>653.2</ele>
        <time>2021-06-13T12:08:34.000Z</time>
      </trkpt>
      <trkpt lat="43.61706" lon="6.59408">
        <ele>653.2</ele>
        <time>2021-06-13T12:08:36.000Z</time>
      </trkpt>
      <trkpt lat="43.61706" lon="6.59408">
        <ele>653.2</ele>
        <time>2021-06-13T12:08:37.000Z</time>
      </trkpt>
      <trkpt lat="43.61706" lon="6.59407">
        <ele>653.2</ele>
        <time>2021-06-13T12:08:38.000Z</time>
      </trkpt>
      <trkpt lat="43.61706" lon="6.59408">
        <ele>653.3</ele>
        <time>2021-06-13T12:08:39.000Z</time>
      </trkpt>
      <trkpt lat="43.61705" lon="6.59407">
        <ele>653.5</ele>
        <time>2021-06-13T12:08:41.000Z</time>
      </trkpt>
      <trkpt lat="43.61706" lon="6.59408">
        <ele>653.6</ele>
        <time>2021-06-13T12:08:44.000Z</time>
      </trkpt>
      <trkpt lat="43.61706" lon="6.59408">
        <ele>653.4</ele>
        <time>2021-06-13T12:08:46.000Z</time>
      </trkpt>
      <trkpt lat="43.61706" lon="6.59408">
        <ele>653.4</ele>
        <time>2021-06-13T12:08:47.000Z</time>
      </trkpt>
      <trkpt lat="43.61706" lon="6.59407">
        <ele>653.4</ele>
        <time>2021-06-13T12:08:48.000Z</time>
      </trkpt>
      <trkpt lat="43.61706" lon="6.59407">
        <ele>653.3</ele>
        <time>2021-06-13T12:08:51.000Z</time>
      </trkpt>
      <trkpt lat="43.61706" lon="6.59407">
        <ele>653.1</ele>
        <time>2021-06-13T12:08:55.000Z</time>
      </trkpt>
      <trkpt lat="43.61706" lon="6.59407">
        <ele>653.2</ele>
        <time>2021-06-13T12:08:57.000Z</time>
      </trkpt>
      <trkpt lat="43.61706" lon="6.59407">
        <ele>653.3</ele>
        <time>2021-06-13T12:09:17.000Z</time>
      </trkpt>
      <trkpt lat="43.61707" lon="6.59406">
        <ele>653.3</ele>
        <time>2021-06-13T12:09:22.000Z</time>
      </trkpt>
      <trkpt lat="43.61707" lon="6.59406">
        <ele>653.3</ele>
        <time>2021-06-13T12:09:27.000Z</time>
      </trkpt>
      <trkpt lat="43.61707" lon="6.59406">
        <ele>653.3</ele>
        <time>2021-06-13T12:09:28.000Z</time>
      </trkpt>
      <trkpt lat="43.61707" lon="6.59406">
        <ele>653</ele>
        <time>2021-06-13T12:09:34.000Z</time>
      </trkpt>
      <trkpt lat="43.61707" lon="6.59406">
        <ele>653.6</ele>
        <time>2021-06-13T12:09:37.000Z</time>
      </trkpt>
      <trkpt lat="43.61707" lon="6.59407">
        <ele>653.8</ele>
        <time>2021-06-13T12:09:40.000Z</time>
      </trkpt>
      <trkpt lat="43.61707" lon="6.59407">
        <ele>653.8</ele>
        <time>2021-06-13T12:09:42.000Z</time>
      </trkpt>
      <trkpt lat="43.61707" lon="6.59407">
        <ele>653.5</ele>
        <time>2021-06-13T12:09:47.000Z</time>
      </trkpt>
      <trkpt lat="43.61708" lon="6.5941">
        <ele>653.7</ele>
        <time>2021-06-13T12:09:51.000Z</time>
      </trkpt>
      <trkpt lat="43.61708" lon="6.59411">
        <ele>653.6</ele>
        <time>2021-06-13T12:09:54.000Z</time>
      </trkpt>
      <trkpt lat="43.61707" lon="6.59411">
        <ele>653.5</ele>
        <time>2021-06-13T12:09:58.000Z</time>
      </trkpt>
      <trkpt lat="43.61707" lon="6.59411">
        <ele>653.8</ele>
        <time>2021-06-13T12:10:14.000Z</time>
      </trkpt>
      <trkpt lat="43.61707" lon="6.59411">
        <ele>653.8</ele>
        <time>2021-06-13T12:10:15.000Z</time>
      </trkpt>
      <trkpt lat="43.61707" lon="6.59411">
        <ele>653.6</ele>
        <time>2021-06-13T12:10:17.000Z</time>
      </trkpt>
      <trkpt lat="43.61707" lon="6.59411">
        <ele>653.6</ele>
        <time>2021-06-13T12:10:18.000Z</time>
      </trkpt>
      <trkpt lat="43.61707" lon="6.59412">
        <ele>653.7</ele>
        <time>2021-06-13T12:10:37.000Z</time>
      </trkpt>
      <trkpt lat="43.61706" lon="6.59413">
        <ele>653.8</ele>
        <time>2021-06-13T12:10:43.000Z</time>
      </trkpt>
      <trkpt lat="43.61706" lon="6.59412">
        <ele>653.7</ele>
        <time>2021-06-13T12:10:44.000Z</time>
      </trkpt>
      <trkpt lat="43.61707" lon="6.59411">
        <ele>653.9</ele>
        <time>2021-06-13T12:10:47.000Z</time>
      </trkpt>
      <trkpt lat="43.61707" lon="6.59411">
        <ele>653.5</ele>
        <time>2021-06-13T12:10:49.000Z</time>
      </trkpt>
      <trkpt lat="43.61707" lon="6.59411">
        <ele>653.6</ele>
        <time>2021-06-13T12:10:50.000Z</time>
      </trkpt>
      <trkpt lat="43.61707" lon="6.59412">
        <ele>653.7</ele>
        <time>2021-06-13T12:10:57.000Z</time>
      </trkpt>
      <trkpt lat="43.61707" lon="6.59411">
        <ele>653.7</ele>
        <time>2021-06-13T12:10:58.000Z</time>
      </trkpt>
      <trkpt lat="43.61707" lon="6.59412">
        <ele>653.4</ele>
        <time>2021-06-13T12:11:01.000Z</time>
      </trkpt>
      <trkpt lat="43.61707" lon="6.59412">
        <ele>653.4</ele>
        <time>2021-06-13T12:11:02.000Z</time>
      </trkpt>
      <trkpt lat="43.61707" lon="6.59412">
        <ele>653.8</ele>
        <time>2021-06-13T12:11:14.000Z</time>
      </trkpt>
      <trkpt lat="43.61706" lon="6.59411">
        <ele>653.2</ele>
        <time>2021-06-13T12:11:21.000Z</time>
      </trkpt>
      <trkpt lat="43.61706" lon="6.5941">
        <ele>653.2</ele>
        <time>2021-06-13T12:11:22.000Z</time>
      </trkpt>
      <trkpt lat="43.61707" lon="6.59409">
        <ele>653.1</ele>
        <time>2021-06-13T12:11:24.000Z</time>
      </trkpt>
      <trkpt lat="43.61706" lon="6.59409">
        <ele>653.2</ele>
        <time>2021-06-13T12:11:28.000Z</time>
      </trkpt>
      <trkpt lat="43.61706" lon="6.59409">
        <ele>653</ele>
        <time>2021-06-13T12:11:29.000Z</time>
      </trkpt>
      <trkpt lat="43.61706" lon="6.59408">
        <ele>653.1</ele>
        <time>2021-06-13T12:11:30.000Z</time>
      </trkpt>
      <trkpt lat="43.61706" lon="6.59408">
        <ele>653.3</ele>
        <time>2021-06-13T12:11:31.000Z</time>
      </trkpt>
      <trkpt lat="43.61706" lon="6.59408">
        <ele>653.4</ele>
        <time>2021-06-13T12:11:39.000Z</time>
      </trkpt>
      <trkpt lat="43.61706" lon="6.59408">
        <ele>653.2</ele>
        <time>2021-06-13T12:11:40.000Z</time>
      </trkpt>
      <trkpt lat="43.61706" lon="6.59408">
        <ele>653.2</ele>
        <time>2021-06-13T12:11:41.000Z</time>
      </trkpt>
      <trkpt lat="43.61706" lon="6.59407">
        <ele>653.3</ele>
        <time>2021-06-13T12:11:43.000Z</time>
      </trkpt>
      <trkpt lat="43.61706" lon="6.59407">
        <ele>653.2</ele>
        <time>2021-06-13T12:11:44.000Z</time>
      </trkpt>
      <trkpt lat="43.61706" lon="6.59407">
        <ele>653.2</ele>
        <time>2021-06-13T12:11:47.000Z</time>
      </trkpt>
      <trkpt lat="43.61706" lon="6.59407">
        <ele>653.1</ele>
        <time>2021-06-13T12:11:51.000Z</time>
      </trkpt>
      <trkpt lat="43.61706" lon="6.59408">
        <ele>653.2</ele>
        <time>2021-06-13T12:11:54.000Z</time>
      </trkpt>
      <trkpt lat="43.61706" lon="6.59408">
        <ele>653.4</ele>
        <time>2021-06-13T12:11:56.000Z</time>
      </trkpt>
      <trkpt lat="43.61706" lon="6.59408">
        <ele>653.4</ele>
        <time>2021-06-13T12:11:57.000Z</time>
      </trkpt>
      <trkpt lat="43.61706" lon="6.59407">
        <ele>653.4</ele>
        <time>2021-06-13T12:11:58.000Z</time>
      </trkpt>
      <trkpt lat="43.61707" lon="6.59408">
        <ele>653.2</ele>
        <time>2021-06-13T12:12:03.000Z</time>
      </trkpt>
      <trkpt lat="43.61707" lon="6.59408">
        <ele>653.2</ele>
        <time>2021-06-13T12:12:04.000Z</time>
      </trkpt>
      <trkpt lat="43.61709" lon="6.59408">
        <ele>653.1</ele>
        <time>2021-06-13T12:12:07.000Z</time>
      </trkpt>
      <trkpt lat="43.61709" lon="6.59408">
        <ele>653.3</ele>
        <time>2021-06-13T12:12:14.000Z</time>
      </trkpt>
      <trkpt lat="43.6171" lon="6.59408">
        <ele>653.1</ele>
        <time>2021-06-13T12:12:18.000Z</time>
      </trkpt>
      <trkpt lat="43.6171" lon="6.59408">
        <ele>653.1</ele>
        <time>2021-06-13T12:12:23.000Z</time>
      </trkpt>
      <trkpt lat="43.61701" lon="6.5941">
        <ele>652.9</ele>
        <time>2021-06-13T12:12:39.000Z</time>
      </trkpt>
      <trkpt lat="43.61691" lon="6.59406">
        <ele>652.5</ele>
        <time>2021-06-13T12:12:47.000Z</time>
      </trkpt>
      <trkpt lat="43.61684" lon="6.59398">
        <ele>652</ele>
        <time>2021-06-13T12:12:59.000Z</time>
      </trkpt>
      <trkpt lat="43.61678" lon="6.59389">
        <ele>651.7</ele>
        <time>2021-06-13T12:13:06.000Z</time>
      </trkpt>
      <trkpt lat="43.61671" lon="6.59379">
        <ele>651.3</ele>
        <time>2021-06-13T12:13:15.000Z</time>
      </trkpt>
      <trkpt lat="43.61665" lon="6.59368">
        <ele>651.4</ele>
        <time>2021-06-13T12:13:23.000Z</time>
      </trkpt>
      <trkpt lat="43.61659" lon="6.59359">
        <ele>651.2</ele>
        <time>2021-06-13T12:13:31.000Z</time>
      </trkpt>
      <trkpt lat="43.61652" lon="6.5935">
        <ele>651</ele>
        <time>2021-06-13T12:13:39.000Z</time>
      </trkpt>
      <trkpt lat="43.61652" lon="6.59344">
        <ele>651.2</ele>
        <time>2021-06-13T12:13:51.000Z</time>
      </trkpt>
      <trkpt lat="43.61652" lon="6.59344">
        <ele>651.2</ele>
        <time>2021-06-13T12:13:52.000Z</time>
      </trkpt>
      <trkpt lat="43.61651" lon="6.59338">
        <ele>651.2</ele>
        <time>2021-06-13T12:14:03.000Z</time>
      </trkpt>
      <trkpt lat="43.61651" lon="6.59338">
        <ele>651</ele>
        <time>2021-06-13T12:14:18.000Z</time>
      </trkpt>
      <trkpt lat="43.61649" lon="6.59333">
        <ele>651.1</ele>
        <time>2021-06-13T12:14:32.000Z</time>
      </trkpt>
      <trkpt lat="43.61649" lon="6.59333">
        <ele>650.6</ele>
        <time>2021-06-13T12:14:35.000Z</time>
      </trkpt>
      <trkpt lat="43.61649" lon="6.59333">
        <ele>650.8</ele>
        <time>2021-06-13T12:14:36.000Z</time>
      </trkpt>
      <trkpt lat="43.61648" lon="6.59333">
        <ele>651.6</ele>
        <time>2021-06-13T12:14:43.000Z</time>
      </trkpt>
      <trkpt lat="43.6164" lon="6.59325">
        <ele>651.3</ele>
        <time>2021-06-13T12:14:52.000Z</time>
      </trkpt>
      <trkpt lat="43.61633" lon="6.59316">
        <ele>651.7</ele>
        <time>2021-06-13T12:15:02.000Z</time>
      </trkpt>
      <trkpt lat="43.61627" lon="6.59306">
        <ele>651.9</ele>
        <time>2021-06-13T12:15:09.000Z</time>
      </trkpt>
      <trkpt lat="43.61621" lon="6.59296">
        <ele>651.7</ele>
        <time>2021-06-13T12:15:17.000Z</time>
      </trkpt>
      <trkpt lat="43.61615" lon="6.59286">
        <ele>652.2</ele>
        <time>2021-06-13T12:15:25.000Z</time>
      </trkpt>
      <trkpt lat="43.61611" lon="6.59274">
        <ele>652.3</ele>
        <time>2021-06-13T12:15:34.000Z</time>
      </trkpt>
      <trkpt lat="43.61604" lon="6.59264">
        <ele>651.8</ele>
        <time>2021-06-13T12:15:41.000Z</time>
      </trkpt>
      <trkpt lat="43.616" lon="6.59252">
        <ele>651.3</ele>
        <time>2021-06-13T12:15:48.000Z</time>
      </trkpt>
      <trkpt lat="43.61595" lon="6.5924">
        <ele>651.1</ele>
        <time>2021-06-13T12:15:56.000Z</time>
      </trkpt>
      <trkpt lat="43.61591" lon="6.59227">
        <ele>650.4</ele>
        <time>2021-06-13T12:16:04.000Z</time>
      </trkpt>
      <trkpt lat="43.61586" lon="6.59217">
        <ele>650.1</ele>
        <time>2021-06-13T12:16:11.000Z</time>
      </trkpt>
      <trkpt lat="43.61578" lon="6.5921">
        <ele>649.5</ele>
        <time>2021-06-13T12:16:18.000Z</time>
      </trkpt>
      <trkpt lat="43.61569" lon="6.59205">
        <ele>649</ele>
        <time>2021-06-13T12:16:26.000Z</time>
      </trkpt>
      <trkpt lat="43.61559" lon="6.59201">
        <ele>648.7</ele>
        <time>2021-06-13T12:16:33.000Z</time>
      </trkpt>
      <trkpt lat="43.6155" lon="6.59196">
        <ele>648</ele>
        <time>2021-06-13T12:16:40.000Z</time>
      </trkpt>
      <trkpt lat="43.6154" lon="6.59194">
        <ele>647.5</ele>
        <time>2021-06-13T12:16:47.000Z</time>
      </trkpt>
      <trkpt lat="43.6153" lon="6.59195">
        <ele>647</ele>
        <time>2021-06-13T12:16:54.000Z</time>
      </trkpt>
      <trkpt lat="43.61521" lon="6.59196">
        <ele>646.4</ele>
        <time>2021-06-13T12:17:02.000Z</time>
      </trkpt>
      <trkpt lat="43.61511" lon="6.592">
        <ele>645.8</ele>
        <time>2021-06-13T12:17:10.000Z</time>
      </trkpt>
      <trkpt lat="43.61502" lon="6.59202">
        <ele>644.8</ele>
        <time>2021-06-13T12:17:19.000Z</time>
      </trkpt>
      <trkpt lat="43.61493" lon="6.59196">
        <ele>644.4</ele>
        <time>2021-06-13T12:17:27.000Z</time>
      </trkpt>
      <trkpt lat="43.61487" lon="6.59187">
        <ele>643.6</ele>
        <time>2021-06-13T12:17:35.000Z</time>
      </trkpt>
      <trkpt lat="43.61486" lon="6.59173">
        <ele>642.3</ele>
        <time>2021-06-13T12:17:45.000Z</time>
      </trkpt>
      <trkpt lat="43.61483" lon="6.59162">
        <ele>641.7</ele>
        <time>2021-06-13T12:17:54.000Z</time>
      </trkpt>
      <trkpt lat="43.61477" lon="6.5915">
        <ele>640.8</ele>
        <time>2021-06-13T12:18:01.000Z</time>
      </trkpt>
      <trkpt lat="43.61471" lon="6.59139">
        <ele>640</ele>
        <time>2021-06-13T12:18:08.000Z</time>
      </trkpt>
      <trkpt lat="43.61465" lon="6.59129">
        <ele>639</ele>
        <time>2021-06-13T12:18:17.000Z</time>
      </trkpt>
      <trkpt lat="43.61458" lon="6.59119">
        <ele>638.2</ele>
        <time>2021-06-13T12:18:26.000Z</time>
      </trkpt>
      <trkpt lat="43.61452" lon="6.59108">
        <ele>637.7</ele>
        <time>2021-06-13T12:18:34.000Z</time>
      </trkpt>
      <trkpt lat="43.61445" lon="6.59098">
        <ele>636.9</ele>
        <time>2021-06-13T12:18:41.000Z</time>
      </trkpt>
      <trkpt lat="43.61438" lon="6.59089">
        <ele>636</ele>
        <time>2021-06-13T12:18:50.000Z</time>
      </trkpt>
      <trkpt lat="43.61433" lon="6.59077">
        <ele>635.2</ele>
        <time>2021-06-13T12:18:57.000Z</time>
      </trkpt>
      <trkpt lat="43.61426" lon="6.59069">
        <ele>634.3</ele>
        <time>2021-06-13T12:19:04.000Z</time>
      </trkpt>
      <trkpt lat="43.61421" lon="6.59058">
        <ele>633.4</ele>
        <time>2021-06-13T12:19:12.000Z</time>
      </trkpt>
      <trkpt lat="43.61416" lon="6.59048">
        <ele>632.8</ele>
        <time>2021-06-13T12:19:20.000Z</time>
      </trkpt>
      <trkpt lat="43.61411" lon="6.59038">
        <ele>631.7</ele>
        <time>2021-06-13T12:19:29.000Z</time>
      </trkpt>
      <trkpt lat="43.61407" lon="6.59026">
        <ele>630.3</ele>
        <time>2021-06-13T12:19:38.000Z</time>
      </trkpt>
      <trkpt lat="43.614" lon="6.59016">
        <ele>630.1</ele>
        <time>2021-06-13T12:19:45.000Z</time>
      </trkpt>
      <trkpt lat="43.61393" lon="6.59005">
        <ele>629.4</ele>
        <time>2021-06-13T12:19:54.000Z</time>
      </trkpt>
      <trkpt lat="43.61389" lon="6.58992">
        <ele>628.6</ele>
        <time>2021-06-13T12:20:03.000Z</time>
      </trkpt>
      <trkpt lat="43.61385" lon="6.5898">
        <ele>627.7</ele>
        <time>2021-06-13T12:20:13.000Z</time>
      </trkpt>
      <trkpt lat="43.61378" lon="6.5897">
        <ele>627.1</ele>
        <time>2021-06-13T12:20:19.000Z</time>
      </trkpt>
      <trkpt lat="43.61373" lon="6.58957">
        <ele>626.6</ele>
        <time>2021-06-13T12:20:27.000Z</time>
      </trkpt>
      <trkpt lat="43.6137" lon="6.58945">
        <ele>625.6</ele>
        <time>2021-06-13T12:20:36.000Z</time>
      </trkpt>
      <trkpt lat="43.61366" lon="6.58933">
        <ele>624.9</ele>
        <time>2021-06-13T12:20:44.000Z</time>
      </trkpt>
      <trkpt lat="43.61361" lon="6.58921">
        <ele>623.9</ele>
        <time>2021-06-13T12:20:52.000Z</time>
      </trkpt>
      <trkpt lat="43.61357" lon="6.58908">
        <ele>623</ele>
        <time>2021-06-13T12:21:00.000Z</time>
      </trkpt>
      <trkpt lat="43.6135" lon="6.589">
        <ele>622.2</ele>
        <time>2021-06-13T12:21:09.000Z</time>
      </trkpt>
      <trkpt lat="43.61343" lon="6.58892">
        <ele>621.2</ele>
        <time>2021-06-13T12:21:17.000Z</time>
      </trkpt>
      <trkpt lat="43.61334" lon="6.58887">
        <ele>620.4</ele>
        <time>2021-06-13T12:21:26.000Z</time>
      </trkpt>
      <trkpt lat="43.61329" lon="6.5888">
        <ele>619.7</ele>
        <time>2021-06-13T12:21:35.000Z</time>
      </trkpt>
      <trkpt lat="43.61328" lon="6.5888">
        <ele>619.5</ele>
        <time>2021-06-13T12:21:36.000Z</time>
      </trkpt>
      <trkpt lat="43.61327" lon="6.58879">
        <ele>619.5</ele>
        <time>2021-06-13T12:21:38.000Z</time>
      </trkpt>
      <trkpt lat="43.61327" lon="6.58879">
        <ele>619.6</ele>
        <time>2021-06-13T12:21:50.000Z</time>
      </trkpt>
      <trkpt lat="43.61327" lon="6.58879">
        <ele>619.5</ele>
        <time>2021-06-13T12:21:54.000Z</time>
      </trkpt>
      <trkpt lat="43.61327" lon="6.58879">
        <ele>619.5</ele>
        <time>2021-06-13T12:21:58.000Z</time>
      </trkpt>
      <trkpt lat="43.61327" lon="6.58879">
        <ele>619.4</ele>
        <time>2021-06-13T12:21:59.000Z</time>
      </trkpt>
      <trkpt lat="43.61327" lon="6.58879">
        <ele>619.6</ele>
        <time>2021-06-13T12:22:02.000Z</time>
      </trkpt>
      <trkpt lat="43.61327" lon="6.58879">
        <ele>619.7</ele>
        <time>2021-06-13T12:22:03.000Z</time>
      </trkpt>
      <trkpt lat="43.61326" lon="6.58878">
        <ele>619.6</ele>
        <time>2021-06-13T12:22:04.000Z</time>
      </trkpt>
      <trkpt lat="43.61325" lon="6.5888">
        <ele>619.7</ele>
        <time>2021-06-13T12:22:10.000Z</time>
      </trkpt>
      <trkpt lat="43.61325" lon="6.58881">
        <ele>619.6</ele>
        <time>2021-06-13T12:22:14.000Z</time>
      </trkpt>
      <trkpt lat="43.61326" lon="6.5888">
        <ele>619.5</ele>
        <time>2021-06-13T12:22:18.000Z</time>
      </trkpt>
      <trkpt lat="43.61326" lon="6.5888">
        <ele>619.6</ele>
        <time>2021-06-13T12:22:21.000Z</time>
      </trkpt>
      <trkpt lat="43.61326" lon="6.58881">
        <ele>619.7</ele>
        <time>2021-06-13T12:22:22.000Z</time>
      </trkpt>
      <trkpt lat="43.61326" lon="6.58881">
        <ele>619.6</ele>
        <time>2021-06-13T12:22:24.000Z</time>
      </trkpt>
      <trkpt lat="43.61326" lon="6.58881">
        <ele>619.7</ele>
        <time>2021-06-13T12:22:27.000Z</time>
      </trkpt>
      <trkpt lat="43.61327" lon="6.58881">
        <ele>619.7</ele>
        <time>2021-06-13T12:22:39.000Z</time>
      </trkpt>
      <trkpt lat="43.61327" lon="6.58881">
        <ele>619.6</ele>
        <time>2021-06-13T12:22:40.000Z</time>
      </trkpt>
      <trkpt lat="43.61327" lon="6.5888">
        <ele>619.9</ele>
        <time>2021-06-13T12:22:57.000Z</time>
      </trkpt>
      <trkpt lat="43.61327" lon="6.5888">
        <ele>619.9</ele>
        <time>2021-06-13T12:22:59.000Z</time>
      </trkpt>
      <trkpt lat="43.61327" lon="6.5888">
        <ele>619.8</ele>
        <time>2021-06-13T12:23:04.000Z</time>
      </trkpt>
      <trkpt lat="43.61327" lon="6.5888">
        <ele>619.9</ele>
        <time>2021-06-13T12:23:06.000Z</time>
      </trkpt>
      <trkpt lat="43.61327" lon="6.5888">
        <ele>619.7</ele>
        <time>2021-06-13T12:23:12.000Z</time>
      </trkpt>
      <trkpt lat="43.61327" lon="6.5888">
        <ele>619.9</ele>
        <time>2021-06-13T12:23:13.000Z</time>
      </trkpt>
      <trkpt lat="43.61327" lon="6.5888">
        <ele>620</ele>
        <time>2021-06-13T12:23:14.000Z</time>
      </trkpt>
      <trkpt lat="43.61327" lon="6.5888">
        <ele>620</ele>
        <time>2021-06-13T12:23:16.000Z</time>
      </trkpt>
      <trkpt lat="43.61328" lon="6.5888">
        <ele>620.1</ele>
        <time>2021-06-13T12:23:23.000Z</time>
      </trkpt>
      <trkpt lat="43.61328" lon="6.58881">
        <ele>619.9</ele>
        <time>2021-06-13T12:23:25.000Z</time>
      </trkpt>
      <trkpt lat="43.61328" lon="6.58881">
        <ele>620</ele>
        <time>2021-06-13T12:23:28.000Z</time>
      </trkpt>
      <trkpt lat="43.61328" lon="6.58881">
        <ele>619.8</ele>
        <time>2021-06-13T12:23:30.000Z</time>
      </trkpt>
      <trkpt lat="43.61328" lon="6.5888">
        <ele>619.9</ele>
        <time>2021-06-13T12:23:44.000Z</time>
      </trkpt>
      <trkpt lat="43.61328" lon="6.5888">
        <ele>620</ele>
        <time>2021-06-13T12:23:46.000Z</time>
      </trkpt>
      <trkpt lat="43.61328" lon="6.5888">
        <ele>620</ele>
        <time>2021-06-13T12:23:47.000Z</time>
      </trkpt>
      <trkpt lat="43.61328" lon="6.5888">
        <ele>619.9</ele>
        <time>2021-06-13T12:23:48.000Z</time>
      </trkpt>
      <trkpt lat="43.61328" lon="6.5888">
        <ele>619.9</ele>
        <time>2021-06-13T12:23:58.000Z</time>
      </trkpt>
      <trkpt lat="43.61329" lon="6.58881">
        <ele>620</ele>
        <time>2021-06-13T12:24:03.000Z</time>
      </trkpt>
      <trkpt lat="43.61329" lon="6.58881">
        <ele>620.1</ele>
        <time>2021-06-13T12:24:38.000Z</time>
      </trkpt>
      <trkpt lat="43.61329" lon="6.58881">
        <ele>620</ele>
        <time>2021-06-13T12:24:40.000Z</time>
      </trkpt>
      <trkpt lat="43.61329" lon="6.58881">
        <ele>620</ele>
        <time>2021-06-13T12:24:52.000Z</time>
      </trkpt>
      <trkpt lat="43.61329" lon="6.58881">
        <ele>620</ele>
        <time>2021-06-13T12:24:53.000Z</time>
      </trkpt>
      <trkpt lat="43.61329" lon="6.5888">
        <ele>620.2</ele>
        <time>2021-06-13T12:25:06.000Z</time>
      </trkpt>
      <trkpt lat="43.61329" lon="6.5888">
        <ele>620.1</ele>
        <time>2021-06-13T12:25:07.000Z</time>
      </trkpt>
      <trkpt lat="43.61329" lon="6.5888">
        <ele>619.9</ele>
        <time>2021-06-13T12:25:15.000Z</time>
      </trkpt>
      <trkpt lat="43.61329" lon="6.5888">
        <ele>620.1</ele>
        <time>2021-06-13T12:25:17.000Z</time>
      </trkpt>
      <trkpt lat="43.61329" lon="6.5888">
        <ele>620.4</ele>
        <time>2021-06-13T12:25:18.000Z</time>
      </trkpt>
      <trkpt lat="43.61329" lon="6.5888">
        <ele>620.3</ele>
        <time>2021-06-13T12:25:20.000Z</time>
      </trkpt>
      <trkpt lat="43.61329" lon="6.5888">
        <ele>620.2</ele>
        <time>2021-06-13T12:25:21.000Z</time>
      </trkpt>
      <trkpt lat="43.61329" lon="6.5888">
        <ele>620.2</ele>
        <time>2021-06-13T12:25:22.000Z</time>
      </trkpt>
      <trkpt lat="43.61328" lon="6.5888">
        <ele>620.3</ele>
        <time>2021-06-13T12:25:26.000Z</time>
      </trkpt>
      <trkpt lat="43.61319" lon="6.58882">
        <ele>619.6</ele>
        <time>2021-06-13T12:25:38.000Z</time>
      </trkpt>
      <trkpt lat="43.6131" lon="6.58886">
        <ele>619.2</ele>
        <time>2021-06-13T12:25:47.000Z</time>
      </trkpt>
      <trkpt lat="43.61301" lon="6.58883">
        <ele>618.3</ele>
        <time>2021-06-13T12:25:55.000Z</time>
      </trkpt>
      <trkpt lat="43.61293" lon="6.58875">
        <ele>617.3</ele>
        <time>2021-06-13T12:26:05.000Z</time>
      </trkpt>
      <trkpt lat="43.61285" lon="6.58869">
        <ele>616.2</ele>
        <time>2021-06-13T12:26:14.000Z</time>
      </trkpt>
      <trkpt lat="43.61279" lon="6.58858">
        <ele>615.6</ele>
        <time>2021-06-13T12:26:24.000Z</time>
      </trkpt>
      <trkpt lat="43.61272" lon="6.58848">
        <ele>614.3</ele>
        <time>2021-06-13T12:26:34.000Z</time>
      </trkpt>
      <trkpt lat="43.61264" lon="6.5884">
        <ele>613.4</ele>
        <time>2021-06-13T12:26:43.000Z</time>
      </trkpt>
      <trkpt lat="43.61256" lon="6.58831">
        <ele>612.4</ele>
        <time>2021-06-13T12:26:51.000Z</time>
      </trkpt>
      <trkpt lat="43.61249" lon="6.58825">
        <ele>611.7</ele>
        <time>2021-06-13T12:27:00.000Z</time>
      </trkpt>
      <trkpt lat="43.6124" lon="6.58817">
        <ele>610.8</ele>
        <time>2021-06-13T12:27:08.000Z</time>
      </trkpt>
      <trkpt lat="43.61232" lon="6.5881">
        <ele>609.9</ele>
        <time>2021-06-13T12:27:17.000Z</time>
      </trkpt>
      <trkpt lat="43.61232" lon="6.58812">
        <ele>609.8</ele>
        <time>2021-06-13T12:27:23.000Z</time>
      </trkpt>
      <trkpt lat="43.61232" lon="6.58812">
        <ele>610.1</ele>
        <time>2021-06-13T12:27:27.000Z</time>
      </trkpt>
      <trkpt lat="43.61231" lon="6.58812">
        <ele>610</ele>
        <time>2021-06-13T12:27:31.000Z</time>
      </trkpt>
      <trkpt lat="43.61231" lon="6.58812">
        <ele>610.1</ele>
        <time>2021-06-13T12:27:33.000Z</time>
      </trkpt>
      <trkpt lat="43.61231" lon="6.58812">
        <ele>610.1</ele>
        <time>2021-06-13T12:27:34.000Z</time>
      </trkpt>
      <trkpt lat="43.61232" lon="6.58813">
        <ele>610.5</ele>
        <time>2021-06-13T12:27:48.000Z</time>
      </trkpt>
      <trkpt lat="43.61232" lon="6.58813">
        <ele>610</ele>
        <time>2021-06-13T12:27:50.000Z</time>
      </trkpt>
      <trkpt lat="43.61232" lon="6.58814">
        <ele>610.4</ele>
        <time>2021-06-13T12:27:58.000Z</time>
      </trkpt>
      <trkpt lat="43.61236" lon="6.58807">
        <ele>610.7</ele>
        <time>2021-06-13T12:28:13.000Z</time>
      </trkpt>
      <trkpt lat="43.61236" lon="6.58806">
        <ele>610.4</ele>
        <time>2021-06-13T12:28:17.000Z</time>
      </trkpt>
      <trkpt lat="43.61237" lon="6.58806">
        <ele>610.9</ele>
        <time>2021-06-13T12:28:19.000Z</time>
      </trkpt>
      <trkpt lat="43.61237" lon="6.58808">
        <ele>610.7</ele>
        <time>2021-06-13T12:29:12.000Z</time>
      </trkpt>
      <trkpt lat="43.61232" lon="6.58813">
        <ele>609.8</ele>
        <time>2021-06-13T12:29:24.000Z</time>
      </trkpt>
      <trkpt lat="43.61232" lon="6.58813">
        <ele>610.1</ele>
        <time>2021-06-13T12:29:43.000Z</time>
      </trkpt>
      <trkpt lat="43.61232" lon="6.58813">
        <ele>609.9</ele>
        <time>2021-06-13T12:29:44.000Z</time>
      </trkpt>
      <trkpt lat="43.61233" lon="6.58813">
        <ele>609.8</ele>
        <time>2021-06-13T12:29:45.000Z</time>
      </trkpt>
      <trkpt lat="43.61233" lon="6.58813">
        <ele>609.8</ele>
        <time>2021-06-13T12:29:47.000Z</time>
      </trkpt>
      <trkpt lat="43.61233" lon="6.58812">
        <ele>610.1</ele>
        <time>2021-06-13T12:29:52.000Z</time>
      </trkpt>
      <trkpt lat="43.61233" lon="6.58812">
        <ele>610.1</ele>
        <time>2021-06-13T12:29:53.000Z</time>
      </trkpt>
      <trkpt lat="43.61233" lon="6.58812">
        <ele>610.2</ele>
        <time>2021-06-13T12:30:13.000Z</time>
      </trkpt>
      <trkpt lat="43.61233" lon="6.58812">
        <ele>610.2</ele>
        <time>2021-06-13T12:30:14.000Z</time>
      </trkpt>
      <trkpt lat="43.61233" lon="6.58813">
        <ele>610.1</ele>
        <time>2021-06-13T12:30:25.000Z</time>
      </trkpt>
      <trkpt lat="43.61233" lon="6.58813">
        <ele>610</ele>
        <time>2021-06-13T12:30:29.000Z</time>
      </trkpt>
      <trkpt lat="43.61234" lon="6.58813">
        <ele>610</ele>
        <time>2021-06-13T12:30:30.000Z</time>
      </trkpt>
      <trkpt lat="43.61234" lon="6.58813">
        <ele>610</ele>
        <time>2021-06-13T12:30:31.000Z</time>
      </trkpt>
      <trkpt lat="43.61234" lon="6.58813">
        <ele>610</ele>
        <time>2021-06-13T12:30:34.000Z</time>
      </trkpt>
      <trkpt lat="43.61234" lon="6.58813">
        <ele>610.1</ele>
        <time>2021-06-13T12:30:35.000Z</time>
      </trkpt>
      <trkpt lat="43.61234" lon="6.58813">
        <ele>610</ele>
        <time>2021-06-13T12:30:47.000Z</time>
      </trkpt>
      <trkpt lat="43.61234" lon="6.58814">
        <ele>609.8</ele>
        <time>2021-06-13T12:30:49.000Z</time>
      </trkpt>
      <trkpt lat="43.61234" lon="6.58813">
        <ele>610.4</ele>
        <time>2021-06-13T12:30:53.000Z</time>
      </trkpt>
      <trkpt lat="43.61234" lon="6.58813">
        <ele>610.3</ele>
        <time>2021-06-13T12:30:55.000Z</time>
      </trkpt>
      <trkpt lat="43.61234" lon="6.58813">
        <ele>610.1</ele>
        <time>2021-06-13T12:30:56.000Z</time>
      </trkpt>
      <trkpt lat="43.61234" lon="6.58813">
        <ele>610</ele>
        <time>2021-06-13T12:30:57.000Z</time>
      </trkpt>
      <trkpt lat="43.61234" lon="6.58813">
        <ele>610.6</ele>
        <time>2021-06-13T12:30:59.000Z</time>
      </trkpt>
      <trkpt lat="43.61227" lon="6.58805">
        <ele>610.1</ele>
        <time>2021-06-13T12:31:11.000Z</time>
      </trkpt>
      <trkpt lat="43.61222" lon="6.58803">
        <ele>609.6</ele>
        <time>2021-06-13T12:31:21.000Z</time>
      </trkpt>
      <trkpt lat="43.61222" lon="6.58803">
        <ele>609.7</ele>
        <time>2021-06-13T12:31:23.000Z</time>
      </trkpt>
      <trkpt lat="43.61222" lon="6.58803">
        <ele>609.7</ele>
        <time>2021-06-13T12:31:24.000Z</time>
      </trkpt>
      <trkpt lat="43.61221" lon="6.58802">
        <ele>609.8</ele>
        <time>2021-06-13T12:31:28.000Z</time>
      </trkpt>
      <trkpt lat="43.61221" lon="6.58802">
        <ele>609.8</ele>
        <time>2021-06-13T12:31:29.000Z</time>
      </trkpt>
      <trkpt lat="43.61221" lon="6.58802">
        <ele>610</ele>
        <time>2021-06-13T12:31:46.000Z</time>
      </trkpt>
      <trkpt lat="43.6122" lon="6.58802">
        <ele>610</ele>
        <time>2021-06-13T12:31:53.000Z</time>
      </trkpt>
      <trkpt lat="43.61221" lon="6.58802">
        <ele>609.9</ele>
        <time>2021-06-13T12:31:54.000Z</time>
      </trkpt>
      <trkpt lat="43.61221" lon="6.58802">
        <ele>609.9</ele>
        <time>2021-06-13T12:31:55.000Z</time>
      </trkpt>
      <trkpt lat="43.61221" lon="6.58802">
        <ele>609.9</ele>
        <time>2021-06-13T12:31:59.000Z</time>
      </trkpt>
      <trkpt lat="43.61221" lon="6.58802">
        <ele>609.7</ele>
        <time>2021-06-13T12:32:01.000Z</time>
      </trkpt>
      <trkpt lat="43.61221" lon="6.58802">
        <ele>609.8</ele>
        <time>2021-06-13T12:32:02.000Z</time>
      </trkpt>
      <trkpt lat="43.61221" lon="6.58802">
        <ele>609.9</ele>
        <time>2021-06-13T12:32:04.000Z</time>
      </trkpt>
      <trkpt lat="43.61221" lon="6.58802">
        <ele>610</ele>
        <time>2021-06-13T12:32:16.000Z</time>
      </trkpt>
      <trkpt lat="43.61221" lon="6.58802">
        <ele>610</ele>
        <time>2021-06-13T12:32:17.000Z</time>
      </trkpt>
      <trkpt lat="43.61221" lon="6.58802">
        <ele>610</ele>
        <time>2021-06-13T12:32:18.000Z</time>
      </trkpt>
      <trkpt lat="43.6122" lon="6.58802">
        <ele>609.9</ele>
        <time>2021-06-13T12:32:20.000Z</time>
      </trkpt>
      <trkpt lat="43.6122" lon="6.58801">
        <ele>609.9</ele>
        <time>2021-06-13T12:32:21.000Z</time>
      </trkpt>
      <trkpt lat="43.61213" lon="6.588">
        <ele>610</ele>
        <time>2021-06-13T12:32:36.000Z</time>
      </trkpt>
      <trkpt lat="43.61213" lon="6.58801">
        <ele>610</ele>
        <time>2021-06-13T12:33:07.000Z</time>
      </trkpt>
      <trkpt lat="43.61212" lon="6.58799">
        <ele>610.3</ele>
        <time>2021-06-13T12:33:14.000Z</time>
      </trkpt>
      <trkpt lat="43.61211" lon="6.58799">
        <ele>610.1</ele>
        <time>2021-06-13T12:33:22.000Z</time>
      </trkpt>
      <trkpt lat="43.61202" lon="6.58795">
        <ele>609.5</ele>
        <time>2021-06-13T12:33:32.000Z</time>
      </trkpt>
      <trkpt lat="43.61195" lon="6.58786">
        <ele>609.3</ele>
        <time>2021-06-13T12:33:40.000Z</time>
      </trkpt>
      <trkpt lat="43.61194" lon="6.58773">
        <ele>608.4</ele>
        <time>2021-06-13T12:33:50.000Z</time>
      </trkpt>
      <trkpt lat="43.61199" lon="6.58761">
        <ele>607.2</ele>
        <time>2021-06-13T12:34:00.000Z</time>
      </trkpt>
      <trkpt lat="43.61207" lon="6.58753">
        <ele>606.2</ele>
        <time>2021-06-13T12:34:09.000Z</time>
      </trkpt>
      <trkpt lat="43.61214" lon="6.58745">
        <ele>605.3</ele>
        <time>2021-06-13T12:34:18.000Z</time>
      </trkpt>
      <trkpt lat="43.61222" lon="6.58738">
        <ele>604.4</ele>
        <time>2021-06-13T12:34:25.000Z</time>
      </trkpt>
      <trkpt lat="43.61226" lon="6.58726">
        <ele>603</ele>
        <time>2021-06-13T12:34:34.000Z</time>
      </trkpt>
      <trkpt lat="43.61231" lon="6.58714">
        <ele>602.1</ele>
        <time>2021-06-13T12:34:43.000Z</time>
      </trkpt>
      <trkpt lat="43.61236" lon="6.58703">
        <ele>601.6</ele>
        <time>2021-06-13T12:34:50.000Z</time>
      </trkpt>
      <trkpt lat="43.61237" lon="6.5869">
        <ele>600.9</ele>
        <time>2021-06-13T12:34:59.000Z</time>
      </trkpt>
      <trkpt lat="43.61235" lon="6.58678">
        <ele>600.9</ele>
        <time>2021-06-13T12:35:07.000Z</time>
      </trkpt>
      <trkpt lat="43.61236" lon="6.58665">
        <ele>600.3</ele>
        <time>2021-06-13T12:35:15.000Z</time>
      </trkpt>
      <trkpt lat="43.61238" lon="6.58651">
        <ele>599.7</ele>
        <time>2021-06-13T12:35:23.000Z</time>
      </trkpt>
      <trkpt lat="43.61239" lon="6.58638">
        <ele>599.8</ele>
        <time>2021-06-13T12:35:33.000Z</time>
      </trkpt>
      <trkpt lat="43.61237" lon="6.58624">
        <ele>599.1</ele>
        <time>2021-06-13T12:35:41.000Z</time>
      </trkpt>
      <trkpt lat="43.61239" lon="6.58611">
        <ele>598.6</ele>
        <time>2021-06-13T12:35:49.000Z</time>
      </trkpt>
      <trkpt lat="43.61237" lon="6.58599">
        <ele>597.8</ele>
        <time>2021-06-13T12:35:58.000Z</time>
      </trkpt>
      <trkpt lat="43.61239" lon="6.58585">
        <ele>597.1</ele>
        <time>2021-06-13T12:36:07.000Z</time>
      </trkpt>
      <trkpt lat="43.61241" lon="6.58573">
        <ele>596.6</ele>
        <time>2021-06-13T12:36:16.000Z</time>
      </trkpt>
      <trkpt lat="43.6124" lon="6.58561">
        <ele>596.1</ele>
        <time>2021-06-13T12:36:24.000Z</time>
      </trkpt>
      <trkpt lat="43.61238" lon="6.58548">
        <ele>595.3</ele>
        <time>2021-06-13T12:36:32.000Z</time>
      </trkpt>
      <trkpt lat="43.61237" lon="6.58536">
        <ele>594.8</ele>
        <time>2021-06-13T12:36:40.000Z</time>
      </trkpt>
      <trkpt lat="43.61233" lon="6.58523">
        <ele>594.5</ele>
        <time>2021-06-13T12:36:50.000Z</time>
      </trkpt>
      <trkpt lat="43.61235" lon="6.5851">
        <ele>594.2</ele>
        <time>2021-06-13T12:36:58.000Z</time>
      </trkpt>
      <trkpt lat="43.61233" lon="6.58498">
        <ele>593.3</ele>
        <time>2021-06-13T12:37:07.000Z</time>
      </trkpt>
      <trkpt lat="43.61232" lon="6.58485">
        <ele>592.6</ele>
        <time>2021-06-13T12:37:14.000Z</time>
      </trkpt>
      <trkpt lat="43.6123" lon="6.58473">
        <ele>592.2</ele>
        <time>2021-06-13T12:37:21.000Z</time>
      </trkpt>
      <trkpt lat="43.61226" lon="6.58461">
        <ele>591.1</ele>
        <time>2021-06-13T12:37:29.000Z</time>
      </trkpt>
      <trkpt lat="43.61221" lon="6.5845">
        <ele>590.2</ele>
        <time>2021-06-13T12:37:37.000Z</time>
      </trkpt>
      <trkpt lat="43.61216" lon="6.58438">
        <ele>589.6</ele>
        <time>2021-06-13T12:37:45.000Z</time>
      </trkpt>
      <trkpt lat="43.61214" lon="6.58426">
        <ele>588.8</ele>
        <time>2021-06-13T12:37:54.000Z</time>
      </trkpt>
      <trkpt lat="43.61215" lon="6.58413">
        <ele>588</ele>
        <time>2021-06-13T12:38:04.000Z</time>
      </trkpt>
      <trkpt lat="43.61215" lon="6.58399">
        <ele>587.1</ele>
        <time>2021-06-13T12:38:14.000Z</time>
      </trkpt>
      <trkpt lat="43.61217" lon="6.58387">
        <ele>586.2</ele>
        <time>2021-06-13T12:38:23.000Z</time>
      </trkpt>
      <trkpt lat="43.61217" lon="6.58373">
        <ele>585.2</ele>
        <time>2021-06-13T12:38:32.000Z</time>
      </trkpt>
      <trkpt lat="43.6122" lon="6.58361">
        <ele>585</ele>
        <time>2021-06-13T12:38:39.000Z</time>
      </trkpt>
      <trkpt lat="43.61213" lon="6.5835">
        <ele>584.1</ele>
        <time>2021-06-13T12:38:46.000Z</time>
      </trkpt>
      <trkpt lat="43.61207" lon="6.5834">
        <ele>584.1</ele>
        <time>2021-06-13T12:38:53.000Z</time>
      </trkpt>
      <trkpt lat="43.61207" lon="6.58328">
        <ele>583.7</ele>
        <time>2021-06-13T12:39:01.000Z</time>
      </trkpt>
      <trkpt lat="43.61203" lon="6.58315">
        <ele>583.1</ele>
        <time>2021-06-13T12:39:10.000Z</time>
      </trkpt>
      <trkpt lat="43.61202" lon="6.58301">
        <ele>582.5</ele>
        <time>2021-06-13T12:39:18.000Z</time>
      </trkpt>
      <trkpt lat="43.61197" lon="6.58289">
        <ele>582.4</ele>
        <time>2021-06-13T12:39:27.000Z</time>
      </trkpt>
      <trkpt lat="43.61197" lon="6.58275">
        <ele>581.6</ele>
        <time>2021-06-13T12:39:34.000Z</time>
      </trkpt>
      <trkpt lat="43.61195" lon="6.58263">
        <ele>581.2</ele>
        <time>2021-06-13T12:39:42.000Z</time>
      </trkpt>
      <trkpt lat="43.61193" lon="6.58249">
        <ele>580.6</ele>
        <time>2021-06-13T12:39:51.000Z</time>
      </trkpt>
      <trkpt lat="43.61194" lon="6.58236">
        <ele>579.9</ele>
        <time>2021-06-13T12:39:59.000Z</time>
      </trkpt>
      <trkpt lat="43.61193" lon="6.58222">
        <ele>579</ele>
        <time>2021-06-13T12:40:08.000Z</time>
      </trkpt>
      <trkpt lat="43.61191" lon="6.5821">
        <ele>578</ele>
        <time>2021-06-13T12:40:16.000Z</time>
      </trkpt>
      <trkpt lat="43.61188" lon="6.58197">
        <ele>577.1</ele>
        <time>2021-06-13T12:40:24.000Z</time>
      </trkpt>
      <trkpt lat="43.61189" lon="6.58194">
        <ele>576.6</ele>
        <time>2021-06-13T12:40:34.000Z</time>
      </trkpt>
      <trkpt lat="43.61189" lon="6.58194">
        <ele>576.6</ele>
        <time>2021-06-13T12:40:35.000Z</time>
      </trkpt>
      <trkpt lat="43.6119" lon="6.58192">
        <ele>576.5</ele>
        <time>2021-06-13T12:40:39.000Z</time>
      </trkpt>
      <trkpt lat="43.61189" lon="6.58192">
        <ele>576.3</ele>
        <time>2021-06-13T12:40:50.000Z</time>
      </trkpt>
      <trkpt lat="43.61189" lon="6.58192">
        <ele>576.4</ele>
        <time>2021-06-13T12:40:51.000Z</time>
      </trkpt>
      <trkpt lat="43.61189" lon="6.58192">
        <ele>576.6</ele>
        <time>2021-06-13T12:40:53.000Z</time>
      </trkpt>
      <trkpt lat="43.61189" lon="6.58191">
        <ele>576.6</ele>
        <time>2021-06-13T12:40:55.000Z</time>
      </trkpt>
      <trkpt lat="43.61189" lon="6.58191">
        <ele>576.9</ele>
        <time>2021-06-13T12:40:56.000Z</time>
      </trkpt>
      <trkpt lat="43.61188" lon="6.58191">
        <ele>576.7</ele>
        <time>2021-06-13T12:40:58.000Z</time>
      </trkpt>
      <trkpt lat="43.61188" lon="6.5819">
        <ele>576.6</ele>
        <time>2021-06-13T12:40:59.000Z</time>
      </trkpt>
      <trkpt lat="43.61185" lon="6.58178">
        <ele>576.1</ele>
        <time>2021-06-13T12:41:10.000Z</time>
      </trkpt>
      <trkpt lat="43.61181" lon="6.58165">
        <ele>575</ele>
        <time>2021-06-13T12:41:18.000Z</time>
      </trkpt>
      <trkpt lat="43.61176" lon="6.58154">
        <ele>574.2</ele>
        <time>2021-06-13T12:41:25.000Z</time>
      </trkpt>
      <trkpt lat="43.61175" lon="6.58141">
        <ele>572.8</ele>
        <time>2021-06-13T12:41:35.000Z</time>
      </trkpt>
      <trkpt lat="43.6117" lon="6.58129">
        <ele>571.6</ele>
        <time>2021-06-13T12:41:43.000Z</time>
      </trkpt>
      <trkpt lat="43.61165" lon="6.58119">
        <ele>570.6</ele>
        <time>2021-06-13T12:41:50.000Z</time>
      </trkpt>
      <trkpt lat="43.6116" lon="6.58107">
        <ele>568.9</ele>
        <time>2021-06-13T12:42:00.000Z</time>
      </trkpt>
      <trkpt lat="43.61157" lon="6.58094">
        <ele>567.5</ele>
        <time>2021-06-13T12:42:08.000Z</time>
      </trkpt>
      <trkpt lat="43.61156" lon="6.5808">
        <ele>565.7</ele>
        <time>2021-06-13T12:42:16.000Z</time>
      </trkpt>
      <trkpt lat="43.61161" lon="6.58069">
        <ele>564.4</ele>
        <time>2021-06-13T12:42:24.000Z</time>
      </trkpt>
      <trkpt lat="43.61162" lon="6.58056">
        <ele>562.2</ele>
        <time>2021-06-13T12:42:35.000Z</time>
      </trkpt>
      <trkpt lat="43.61162" lon="6.58043">
        <ele>560.7</ele>
        <time>2021-06-13T12:42:44.000Z</time>
      </trkpt>
      <trkpt lat="43.61162" lon="6.5803">
        <ele>559.5</ele>
        <time>2021-06-13T12:42:51.000Z</time>
      </trkpt>
      <trkpt lat="43.61162" lon="6.58017">
        <ele>557.8</ele>
        <time>2021-06-13T12:42:59.000Z</time>
      </trkpt>
      <trkpt lat="43.61162" lon="6.58003">
        <ele>556.6</ele>
        <time>2021-06-13T12:43:09.000Z</time>
      </trkpt>
      <trkpt lat="43.61161" lon="6.5799">
        <ele>556</ele>
        <time>2021-06-13T12:43:15.000Z</time>
      </trkpt>
      <trkpt lat="43.61166" lon="6.57978">
        <ele>555.5</ele>
        <time>2021-06-13T12:43:24.000Z</time>
      </trkpt>
      <trkpt lat="43.61172" lon="6.57969">
        <ele>555.6</ele>
        <time>2021-06-13T12:43:32.000Z</time>
      </trkpt>
      <trkpt lat="43.61176" lon="6.57956">
        <ele>556.3</ele>
        <time>2021-06-13T12:43:42.000Z</time>
      </trkpt>
      <trkpt lat="43.61177" lon="6.57943">
        <ele>557.2</ele>
        <time>2021-06-13T12:43:50.000Z</time>
      </trkpt>
      <trkpt lat="43.61178" lon="6.57929">
        <ele>557.8</ele>
        <time>2021-06-13T12:43:59.000Z</time>
      </trkpt>
      <trkpt lat="43.61177" lon="6.57916">
        <ele>558.1</ele>
        <time>2021-06-13T12:44:06.000Z</time>
      </trkpt>
      <trkpt lat="43.61177" lon="6.57903">
        <ele>557.7</ele>
        <time>2021-06-13T12:44:15.000Z</time>
      </trkpt>
      <trkpt lat="43.61179" lon="6.5789">
        <ele>557.5</ele>
        <time>2021-06-13T12:44:23.000Z</time>
      </trkpt>
      <trkpt lat="43.61179" lon="6.57876">
        <ele>557.5</ele>
        <time>2021-06-13T12:44:31.000Z</time>
      </trkpt>
      <trkpt lat="43.61183" lon="6.57863">
        <ele>557</ele>
        <time>2021-06-13T12:44:38.000Z</time>
      </trkpt>
      <trkpt lat="43.61184" lon="6.5785">
        <ele>556.6</ele>
        <time>2021-06-13T12:44:46.000Z</time>
      </trkpt>
      <trkpt lat="43.61187" lon="6.57838">
        <ele>556.2</ele>
        <time>2021-06-13T12:44:54.000Z</time>
      </trkpt>
      <trkpt lat="43.61188" lon="6.57825">
        <ele>556</ele>
        <time>2021-06-13T12:45:02.000Z</time>
      </trkpt>
      <trkpt lat="43.6119" lon="6.57813">
        <ele>555.7</ele>
        <time>2021-06-13T12:45:10.000Z</time>
      </trkpt>
      <trkpt lat="43.61194" lon="6.578">
        <ele>555.5</ele>
        <time>2021-06-13T12:45:17.000Z</time>
      </trkpt>
      <trkpt lat="43.61196" lon="6.57787">
        <ele>555.6</ele>
        <time>2021-06-13T12:45:24.000Z</time>
      </trkpt>
      <trkpt lat="43.61198" lon="6.57773">
        <ele>555</ele>
        <time>2021-06-13T12:45:32.000Z</time>
      </trkpt>
      <trkpt lat="43.61202" lon="6.5776">
        <ele>554.9</ele>
        <time>2021-06-13T12:45:39.000Z</time>
      </trkpt>
      <trkpt lat="43.61206" lon="6.57747">
        <ele>554.8</ele>
        <time>2021-06-13T12:45:48.000Z</time>
      </trkpt>
      <trkpt lat="43.61209" lon="6.57734">
        <ele>554.3</ele>
        <time>2021-06-13T12:45:57.000Z</time>
      </trkpt>
      <trkpt lat="43.61212" lon="6.57721">
        <ele>553.9</ele>
        <time>2021-06-13T12:46:06.000Z</time>
      </trkpt>
      <trkpt lat="43.61215" lon="6.57708">
        <ele>553.5</ele>
        <time>2021-06-13T12:46:13.000Z</time>
      </trkpt>
      <trkpt lat="43.61217" lon="6.57695">
        <ele>552.5</ele>
        <time>2021-06-13T12:46:20.000Z</time>
      </trkpt>
      <trkpt lat="43.61217" lon="6.57682">
        <ele>552.5</ele>
        <time>2021-06-13T12:46:27.000Z</time>
      </trkpt>
      <trkpt lat="43.6122" lon="6.5767">
        <ele>552.3</ele>
        <time>2021-06-13T12:46:35.000Z</time>
      </trkpt>
      <trkpt lat="43.61224" lon="6.57658">
        <ele>552.1</ele>
        <time>2021-06-13T12:46:43.000Z</time>
      </trkpt>
      <trkpt lat="43.61225" lon="6.57644">
        <ele>552</ele>
        <time>2021-06-13T12:46:50.000Z</time>
      </trkpt>
      <trkpt lat="43.61228" lon="6.57631">
        <ele>551.3</ele>
        <time>2021-06-13T12:46:59.000Z</time>
      </trkpt>
      <trkpt lat="43.61234" lon="6.57622">
        <ele>551.4</ele>
        <time>2021-06-13T12:47:05.000Z</time>
      </trkpt>
      <trkpt lat="43.61238" lon="6.57609">
        <ele>551</ele>
        <time>2021-06-13T12:47:14.000Z</time>
      </trkpt>
      <trkpt lat="43.61239" lon="6.57595">
        <ele>551</ele>
        <time>2021-06-13T12:47:23.000Z</time>
      </trkpt>
      <trkpt lat="43.61241" lon="6.57583">
        <ele>550.9</ele>
        <time>2021-06-13T12:47:31.000Z</time>
      </trkpt>
      <trkpt lat="43.61245" lon="6.57571">
        <ele>550.5</ele>
        <time>2021-06-13T12:47:39.000Z</time>
      </trkpt>
      <trkpt lat="43.61247" lon="6.57557">
        <ele>550.2</ele>
        <time>2021-06-13T12:47:47.000Z</time>
      </trkpt>
      <trkpt lat="43.61248" lon="6.57544">
        <ele>550.5</ele>
        <time>2021-06-13T12:47:55.000Z</time>
      </trkpt>
      <trkpt lat="43.61249" lon="6.57531">
        <ele>550.7</ele>
        <time>2021-06-13T12:48:02.000Z</time>
      </trkpt>
      <trkpt lat="43.61251" lon="6.57519">
        <ele>550.8</ele>
        <time>2021-06-13T12:48:09.000Z</time>
      </trkpt>
      <trkpt lat="43.61254" lon="6.57506">
        <ele>550.9</ele>
        <time>2021-06-13T12:48:17.000Z</time>
      </trkpt>
      <trkpt lat="43.61254" lon="6.57493">
        <ele>550.8</ele>
        <time>2021-06-13T12:48:25.000Z</time>
      </trkpt>
      <trkpt lat="43.61256" lon="6.57479">
        <ele>551.1</ele>
        <time>2021-06-13T12:48:33.000Z</time>
      </trkpt>
      <trkpt lat="43.61254" lon="6.57467">
        <ele>551.4</ele>
        <time>2021-06-13T12:48:41.000Z</time>
      </trkpt>
      <trkpt lat="43.61255" lon="6.57454">
        <ele>551.5</ele>
        <time>2021-06-13T12:48:48.000Z</time>
      </trkpt>
      <trkpt lat="43.61256" lon="6.5744">
        <ele>552</ele>
        <time>2021-06-13T12:48:56.000Z</time>
      </trkpt>
      <trkpt lat="43.61258" lon="6.57427">
        <ele>552.1</ele>
        <time>2021-06-13T12:49:04.000Z</time>
      </trkpt>
      <trkpt lat="43.61259" lon="6.57414">
        <ele>552</ele>
        <time>2021-06-13T12:49:12.000Z</time>
      </trkpt>
      <trkpt lat="43.61259" lon="6.574">
        <ele>552</ele>
        <time>2021-06-13T12:49:20.000Z</time>
      </trkpt>
      <trkpt lat="43.6126" lon="6.57388">
        <ele>551.9</ele>
        <time>2021-06-13T12:49:27.000Z</time>
      </trkpt>
      <trkpt lat="43.61257" lon="6.57376">
        <ele>551.3</ele>
        <time>2021-06-13T12:49:34.000Z</time>
      </trkpt>
      <trkpt lat="43.61254" lon="6.57364">
        <ele>551.2</ele>
        <time>2021-06-13T12:49:41.000Z</time>
      </trkpt>
      <trkpt lat="43.6125" lon="6.57351">
        <ele>550.9</ele>
        <time>2021-06-13T12:49:49.000Z</time>
      </trkpt>
      <trkpt lat="43.61247" lon="6.57339">
        <ele>550.9</ele>
        <time>2021-06-13T12:49:58.000Z</time>
      </trkpt>
      <trkpt lat="43.61243" lon="6.57326">
        <ele>550.3</ele>
        <time>2021-06-13T12:50:06.000Z</time>
      </trkpt>
      <trkpt lat="43.61242" lon="6.57312">
        <ele>549.5</ele>
        <time>2021-06-13T12:50:14.000Z</time>
      </trkpt>
      <trkpt lat="43.61241" lon="6.57299">
        <ele>548.8</ele>
        <time>2021-06-13T12:50:22.000Z</time>
      </trkpt>
      <trkpt lat="43.61237" lon="6.57288">
        <ele>548.1</ele>
        <time>2021-06-13T12:50:29.000Z</time>
      </trkpt>
      <trkpt lat="43.61233" lon="6.57276">
        <ele>547.5</ele>
        <time>2021-06-13T12:50:37.000Z</time>
      </trkpt>
      <trkpt lat="43.61227" lon="6.57266">
        <ele>546.9</ele>
        <time>2021-06-13T12:50:45.000Z</time>
      </trkpt>
      <trkpt lat="43.61222" lon="6.57254">
        <ele>547.5</ele>
        <time>2021-06-13T12:50:54.000Z</time>
      </trkpt>
      <trkpt lat="43.61225" lon="6.5724">
        <ele>547.7</ele>
        <time>2021-06-13T12:51:03.000Z</time>
      </trkpt>
      <trkpt lat="43.6123" lon="6.57228">
        <ele>547.8</ele>
        <time>2021-06-13T12:51:13.000Z</time>
      </trkpt>
      <trkpt lat="43.61233" lon="6.57215">
        <ele>548.1</ele>
        <time>2021-06-13T12:51:21.000Z</time>
      </trkpt>
      <trkpt lat="43.61233" lon="6.57203">
        <ele>549</ele>
        <time>2021-06-13T12:51:30.000Z</time>
      </trkpt>
      <trkpt lat="43.61233" lon="6.57189">
        <ele>549.8</ele>
        <time>2021-06-13T12:51:39.000Z</time>
      </trkpt>
      <trkpt lat="43.61234" lon="6.57176">
        <ele>550.3</ele>
        <time>2021-06-13T12:51:49.000Z</time>
      </trkpt>
      <trkpt lat="43.61236" lon="6.57163">
        <ele>550.5</ele>
        <time>2021-06-13T12:51:57.000Z</time>
      </trkpt>
      <trkpt lat="43.61234" lon="6.57157">
        <ele>550.5</ele>
        <time>2021-06-13T12:52:04.000Z</time>
      </trkpt>
      <trkpt lat="43.61233" lon="6.57157">
        <ele>550.4</ele>
        <time>2021-06-13T12:52:07.000Z</time>
      </trkpt>
      <trkpt lat="43.61232" lon="6.57157">
        <ele>551.3</ele>
        <time>2021-06-13T12:52:12.000Z</time>
      </trkpt>
      <trkpt lat="43.61232" lon="6.57157">
        <ele>551.2</ele>
        <time>2021-06-13T12:52:15.000Z</time>
      </trkpt>
      <trkpt lat="43.61232" lon="6.57157">
        <ele>551.2</ele>
        <time>2021-06-13T12:52:16.000Z</time>
      </trkpt>
      <trkpt lat="43.61231" lon="6.57157">
        <ele>551.4</ele>
        <time>2021-06-13T12:52:29.000Z</time>
      </trkpt>
      <trkpt lat="43.61231" lon="6.57159">
        <ele>550.6</ele>
        <time>2021-06-13T12:52:44.000Z</time>
      </trkpt>
      <trkpt lat="43.61231" lon="6.57159">
        <ele>550.6</ele>
        <time>2021-06-13T12:53:03.000Z</time>
      </trkpt>
      <trkpt lat="43.61231" lon="6.57159">
        <ele>550.6</ele>
        <time>2021-06-13T12:53:04.000Z</time>
      </trkpt>
      <trkpt lat="43.61231" lon="6.57159">
        <ele>550.5</ele>
        <time>2021-06-13T12:53:05.000Z</time>
      </trkpt>
      <trkpt lat="43.61231" lon="6.57158">
        <ele>550.5</ele>
        <time>2021-06-13T12:53:07.000Z</time>
      </trkpt>
      <trkpt lat="43.61231" lon="6.57158">
        <ele>550</ele>
        <time>2021-06-13T12:53:23.000Z</time>
      </trkpt>
      <trkpt lat="43.61232" lon="6.57159">
        <ele>550.2</ele>
        <time>2021-06-13T12:53:28.000Z</time>
      </trkpt>
      <trkpt lat="43.61232" lon="6.57159">
        <ele>550.2</ele>
        <time>2021-06-13T12:53:29.000Z</time>
      </trkpt>
      <trkpt lat="43.61231" lon="6.57155">
        <ele>550</ele>
        <time>2021-06-13T12:53:39.000Z</time>
      </trkpt>
      <trkpt lat="43.6123" lon="6.57155">
        <ele>549.9</ele>
        <time>2021-06-13T12:53:41.000Z</time>
      </trkpt>
      <trkpt lat="43.6123" lon="6.57155">
        <ele>549.9</ele>
        <time>2021-06-13T12:53:42.000Z</time>
      </trkpt>
      <trkpt lat="43.61231" lon="6.57155">
        <ele>549.6</ele>
        <time>2021-06-13T12:53:55.000Z</time>
      </trkpt>
      <trkpt lat="43.61231" lon="6.57155">
        <ele>549.6</ele>
        <time>2021-06-13T12:53:56.000Z</time>
      </trkpt>
      <trkpt lat="43.61231" lon="6.57155">
        <ele>549.7</ele>
        <time>2021-06-13T12:54:04.000Z</time>
      </trkpt>
      <trkpt lat="43.61231" lon="6.57155">
        <ele>549.5</ele>
        <time>2021-06-13T12:54:06.000Z</time>
      </trkpt>
      <trkpt lat="43.6123" lon="6.57156">
        <ele>549.8</ele>
        <time>2021-06-13T12:54:10.000Z</time>
      </trkpt>
      <trkpt lat="43.6123" lon="6.57156">
        <ele>549.8</ele>
        <time>2021-06-13T12:54:11.000Z</time>
      </trkpt>
      <trkpt lat="43.6123" lon="6.57156">
        <ele>549.8</ele>
        <time>2021-06-13T12:54:12.000Z</time>
      </trkpt>
      <trkpt lat="43.61228" lon="6.57158">
        <ele>549.7</ele>
        <time>2021-06-13T12:54:19.000Z</time>
      </trkpt>
      <trkpt lat="43.61228" lon="6.57158">
        <ele>549.7</ele>
        <time>2021-06-13T12:54:23.000Z</time>
      </trkpt>
      <trkpt lat="43.61228" lon="6.57158">
        <ele>549.7</ele>
        <time>2021-06-13T12:54:24.000Z</time>
      </trkpt>
      <trkpt lat="43.61228" lon="6.57158">
        <ele>549.4</ele>
        <time>2021-06-13T12:54:42.000Z</time>
      </trkpt>
      <trkpt lat="43.61228" lon="6.57158">
        <ele>549.4</ele>
        <time>2021-06-13T12:54:43.000Z</time>
      </trkpt>
      <trkpt lat="43.61229" lon="6.57159">
        <ele>549.4</ele>
        <time>2021-06-13T12:54:59.000Z</time>
      </trkpt>
      <trkpt lat="43.61229" lon="6.57159">
        <ele>549.4</ele>
        <time>2021-06-13T12:55:01.000Z</time>
      </trkpt>
      <trkpt lat="43.61229" lon="6.57158">
        <ele>549.2</ele>
        <time>2021-06-13T12:55:10.000Z</time>
      </trkpt>
      <trkpt lat="43.61229" lon="6.57158">
        <ele>549.3</ele>
        <time>2021-06-13T12:55:11.000Z</time>
      </trkpt>
      <trkpt lat="43.61229" lon="6.57158">
        <ele>549.3</ele>
        <time>2021-06-13T12:55:14.000Z</time>
      </trkpt>
      <trkpt lat="43.61229" lon="6.57158">
        <ele>549.3</ele>
        <time>2021-06-13T12:55:15.000Z</time>
      </trkpt>
      <trkpt lat="43.6123" lon="6.57158">
        <ele>549.5</ele>
        <time>2021-06-13T12:55:16.000Z</time>
      </trkpt>
      <trkpt lat="43.6123" lon="6.57158">
        <ele>549.4</ele>
        <time>2021-06-13T12:55:20.000Z</time>
      </trkpt>
      <trkpt lat="43.6123" lon="6.57158">
        <ele>549.1</ele>
        <time>2021-06-13T12:55:24.000Z</time>
      </trkpt>
      <trkpt lat="43.61229" lon="6.57159">
        <ele>549.1</ele>
        <time>2021-06-13T12:55:30.000Z</time>
      </trkpt>
      <trkpt lat="43.61229" lon="6.57159">
        <ele>549.1</ele>
        <time>2021-06-13T12:55:31.000Z</time>
      </trkpt>
      <trkpt lat="43.6123" lon="6.57147">
        <ele>549.3</ele>
        <time>2021-06-13T12:55:44.000Z</time>
      </trkpt>
      <trkpt lat="43.61231" lon="6.57134">
        <ele>548.9</ele>
        <time>2021-06-13T12:55:52.000Z</time>
      </trkpt>
      <trkpt lat="43.61232" lon="6.57121">
        <ele>548.4</ele>
        <time>2021-06-13T12:56:00.000Z</time>
      </trkpt>
      <trkpt lat="43.61232" lon="6.57108">
        <ele>547.9</ele>
        <time>2021-06-13T12:56:09.000Z</time>
      </trkpt>
      <trkpt lat="43.61233" lon="6.57095">
        <ele>547.5</ele>
        <time>2021-06-13T12:56:17.000Z</time>
      </trkpt>
      <trkpt lat="43.61231" lon="6.57083">
        <ele>547.2</ele>
        <time>2021-06-13T12:56:25.000Z</time>
      </trkpt>
      <trkpt lat="43.61231" lon="6.57069">
        <ele>546.6</ele>
        <time>2021-06-13T12:56:33.000Z</time>
      </trkpt>
      <trkpt lat="43.6123" lon="6.57057">
        <ele>546</ele>
        <time>2021-06-13T12:56:41.000Z</time>
      </trkpt>
      <trkpt lat="43.61229" lon="6.57044">
        <ele>545.4</ele>
        <time>2021-06-13T12:56:49.000Z</time>
      </trkpt>
      <trkpt lat="43.61228" lon="6.5703">
        <ele>544.4</ele>
        <time>2021-06-13T12:56:58.000Z</time>
      </trkpt>
      <trkpt lat="43.61226" lon="6.57018">
        <ele>544.1</ele>
        <time>2021-06-13T12:57:06.000Z</time>
      </trkpt>
      <trkpt lat="43.61223" lon="6.57005">
        <ele>543.1</ele>
        <time>2021-06-13T12:57:15.000Z</time>
      </trkpt>
      <trkpt lat="43.61222" lon="6.56992">
        <ele>542.5</ele>
        <time>2021-06-13T12:57:22.000Z</time>
      </trkpt>
      <trkpt lat="43.61221" lon="6.56979">
        <ele>542</ele>
        <time>2021-06-13T12:57:31.000Z</time>
      </trkpt>
      <trkpt lat="43.61219" lon="6.56966">
        <ele>541.1</ele>
        <time>2021-06-13T12:57:39.000Z</time>
      </trkpt>
      <trkpt lat="43.61218" lon="6.56953">
        <ele>540.4</ele>
        <time>2021-06-13T12:57:47.000Z</time>
      </trkpt>
      <trkpt lat="43.61216" lon="6.56941">
        <ele>539.7</ele>
        <time>2021-06-13T12:57:55.000Z</time>
      </trkpt>
      <trkpt lat="43.61216" lon="6.56928">
        <ele>538.3</ele>
        <time>2021-06-13T12:58:03.000Z</time>
      </trkpt>
      <trkpt lat="43.61214" lon="6.56915">
        <ele>537.7</ele>
        <time>2021-06-13T12:58:11.000Z</time>
      </trkpt>
      <trkpt lat="43.61212" lon="6.56903">
        <ele>536.9</ele>
        <time>2021-06-13T12:58:18.000Z</time>
      </trkpt>
      <trkpt lat="43.61209" lon="6.56891">
        <ele>536.9</ele>
        <time>2021-06-13T12:58:27.000Z</time>
      </trkpt>
      <trkpt lat="43.61209" lon="6.56877">
        <ele>537.1</ele>
        <time>2021-06-13T12:58:37.000Z</time>
      </trkpt>
      <trkpt lat="43.61207" lon="6.56864">
        <ele>537.6</ele>
        <time>2021-06-13T12:58:46.000Z</time>
      </trkpt>
      <trkpt lat="43.61203" lon="6.56852">
        <ele>538</ele>
        <time>2021-06-13T12:58:55.000Z</time>
      </trkpt>
      <trkpt lat="43.61198" lon="6.56841">
        <ele>538.9</ele>
        <time>2021-06-13T12:59:04.000Z</time>
      </trkpt>
      <trkpt lat="43.61193" lon="6.5683">
        <ele>539.4</ele>
        <time>2021-06-13T12:59:12.000Z</time>
      </trkpt>
      <trkpt lat="43.61189" lon="6.56817">
        <ele>539.6</ele>
        <time>2021-06-13T12:59:21.000Z</time>
      </trkpt>
      <trkpt lat="43.61186" lon="6.56805">
        <ele>540.1</ele>
        <time>2021-06-13T12:59:30.000Z</time>
      </trkpt>
      <trkpt lat="43.61184" lon="6.56792">
        <ele>540.4</ele>
        <time>2021-06-13T12:59:39.000Z</time>
      </trkpt>
      <trkpt lat="43.61182" lon="6.56779">
        <ele>540.7</ele>
        <time>2021-06-13T12:59:47.000Z</time>
      </trkpt>
      <trkpt lat="43.61177" lon="6.56767">
        <ele>541.2</ele>
        <time>2021-06-13T12:59:57.000Z</time>
      </trkpt>
      <trkpt lat="43.61174" lon="6.56754">
        <ele>541.6</ele>
        <time>2021-06-13T13:00:06.000Z</time>
      </trkpt>
      <trkpt lat="43.6117" lon="6.56742">
        <ele>542</ele>
        <time>2021-06-13T13:00:15.000Z</time>
      </trkpt>
      <trkpt lat="43.61166" lon="6.5673">
        <ele>542.6</ele>
        <time>2021-06-13T13:00:25.000Z</time>
      </trkpt>
      <trkpt lat="43.61164" lon="6.56717">
        <ele>542.9</ele>
        <time>2021-06-13T13:00:34.000Z</time>
      </trkpt>
      <trkpt lat="43.6116" lon="6.56705">
        <ele>543</ele>
        <time>2021-06-13T13:00:42.000Z</time>
      </trkpt>
      <trkpt lat="43.61157" lon="6.56692">
        <ele>543.5</ele>
        <time>2021-06-13T13:00:51.000Z</time>
      </trkpt>
      <trkpt lat="43.61153" lon="6.56681">
        <ele>543.8</ele>
        <time>2021-06-13T13:00:58.000Z</time>
      </trkpt>
      <trkpt lat="43.61149" lon="6.5667">
        <ele>543.6</ele>
        <time>2021-06-13T13:01:06.000Z</time>
      </trkpt>
      <trkpt lat="43.61145" lon="6.56658">
        <ele>543.4</ele>
        <time>2021-06-13T13:01:14.000Z</time>
      </trkpt>
      <trkpt lat="43.6114" lon="6.56646">
        <ele>543.1</ele>
        <time>2021-06-13T13:01:23.000Z</time>
      </trkpt>
      <trkpt lat="43.61136" lon="6.56633">
        <ele>542.9</ele>
        <time>2021-06-13T13:01:32.000Z</time>
      </trkpt>
      <trkpt lat="43.61131" lon="6.56622">
        <ele>542.1</ele>
        <time>2021-06-13T13:01:40.000Z</time>
      </trkpt>
      <trkpt lat="43.61124" lon="6.56613">
        <ele>542.3</ele>
        <time>2021-06-13T13:01:48.000Z</time>
      </trkpt>
      <trkpt lat="43.61119" lon="6.56601">
        <ele>541.9</ele>
        <time>2021-06-13T13:01:57.000Z</time>
      </trkpt>
      <trkpt lat="43.61114" lon="6.56589">
        <ele>542.2</ele>
        <time>2021-06-13T13:02:05.000Z</time>
      </trkpt>
      <trkpt lat="43.61109" lon="6.56579">
        <ele>541.6</ele>
        <time>2021-06-13T13:02:13.000Z</time>
      </trkpt>
      <trkpt lat="43.61104" lon="6.56566">
        <ele>541.7</ele>
        <time>2021-06-13T13:02:22.000Z</time>
      </trkpt>
      <trkpt lat="43.61099" lon="6.56554">
        <ele>541.7</ele>
        <time>2021-06-13T13:02:30.000Z</time>
      </trkpt>
      <trkpt lat="43.61094" lon="6.56543">
        <ele>541.5</ele>
        <time>2021-06-13T13:02:37.000Z</time>
      </trkpt>
      <trkpt lat="43.61089" lon="6.56531">
        <ele>541.9</ele>
        <time>2021-06-13T13:02:46.000Z</time>
      </trkpt>
      <trkpt lat="43.61085" lon="6.5652">
        <ele>542</ele>
        <time>2021-06-13T13:02:54.000Z</time>
      </trkpt>
      <trkpt lat="43.6108" lon="6.56509">
        <ele>541.9</ele>
        <time>2021-06-13T13:03:02.000Z</time>
      </trkpt>
      <trkpt lat="43.61075" lon="6.56497">
        <ele>541.7</ele>
        <time>2021-06-13T13:03:10.000Z</time>
      </trkpt>
      <trkpt lat="43.61072" lon="6.56484">
        <ele>541.4</ele>
        <time>2021-06-13T13:03:18.000Z</time>
      </trkpt>
      <trkpt lat="43.61068" lon="6.56472">
        <ele>540.9</ele>
        <time>2021-06-13T13:03:27.000Z</time>
      </trkpt>
      <trkpt lat="43.61062" lon="6.56462">
        <ele>540.4</ele>
        <time>2021-06-13T13:03:34.000Z</time>
      </trkpt>
      <trkpt lat="43.61057" lon="6.5645">
        <ele>540.5</ele>
        <time>2021-06-13T13:03:42.000Z</time>
      </trkpt>
      <trkpt lat="43.6105" lon="6.56441">
        <ele>540.3</ele>
        <time>2021-06-13T13:03:51.000Z</time>
      </trkpt>
      <trkpt lat="43.61041" lon="6.56435">
        <ele>540.3</ele>
        <time>2021-06-13T13:03:59.000Z</time>
      </trkpt>
      <trkpt lat="43.61033" lon="6.56428">
        <ele>540.2</ele>
        <time>2021-06-13T13:04:07.000Z</time>
      </trkpt>
      <trkpt lat="43.61023" lon="6.56424">
        <ele>540.2</ele>
        <time>2021-06-13T13:04:14.000Z</time>
      </trkpt>
      <trkpt lat="43.61013" lon="6.56423">
        <ele>539.7</ele>
        <time>2021-06-13T13:04:22.000Z</time>
      </trkpt>
      <trkpt lat="43.61003" lon="6.56425">
        <ele>539.1</ele>
        <time>2021-06-13T13:04:30.000Z</time>
      </trkpt>
      <trkpt lat="43.60994" lon="6.56428">
        <ele>538.8</ele>
        <time>2021-06-13T13:04:37.000Z</time>
      </trkpt>
      <trkpt lat="43.60984" lon="6.56433">
        <ele>538.5</ele>
        <time>2021-06-13T13:04:46.000Z</time>
      </trkpt>
      <trkpt lat="43.60976" lon="6.5644">
        <ele>538</ele>
        <time>2021-06-13T13:04:54.000Z</time>
      </trkpt>
      <trkpt lat="43.60969" lon="6.56448">
        <ele>537.8</ele>
        <time>2021-06-13T13:05:03.000Z</time>
      </trkpt>
      <trkpt lat="43.60961" lon="6.56456">
        <ele>537.5</ele>
        <time>2021-06-13T13:05:10.000Z</time>
      </trkpt>
      <trkpt lat="43.60952" lon="6.56462">
        <ele>537.5</ele>
        <time>2021-06-13T13:05:17.000Z</time>
      </trkpt>
      <trkpt lat="43.60944" lon="6.56468">
        <ele>537.7</ele>
        <time>2021-06-13T13:05:25.000Z</time>
      </trkpt>
      <trkpt lat="43.60936" lon="6.56475">
        <ele>537.2</ele>
        <time>2021-06-13T13:05:32.000Z</time>
      </trkpt>
      <trkpt lat="43.60928" lon="6.5648">
        <ele>536.9</ele>
        <time>2021-06-13T13:05:41.000Z</time>
      </trkpt>
      <trkpt lat="43.60919" lon="6.56487">
        <ele>536.4</ele>
        <time>2021-06-13T13:05:50.000Z</time>
      </trkpt>
      <trkpt lat="43.60911" lon="6.56494">
        <ele>536.5</ele>
        <time>2021-06-13T13:05:57.000Z</time>
      </trkpt>
      <trkpt lat="43.60903" lon="6.56499">
        <ele>536</ele>
        <time>2021-06-13T13:06:04.000Z</time>
      </trkpt>
      <trkpt lat="43.60895" lon="6.56507">
        <ele>536.1</ele>
        <time>2021-06-13T13:06:12.000Z</time>
      </trkpt>
      <trkpt lat="43.60888" lon="6.56515">
        <ele>536.3</ele>
        <time>2021-06-13T13:06:20.000Z</time>
      </trkpt>
      <trkpt lat="43.60881" lon="6.56525">
        <ele>536.4</ele>
        <time>2021-06-13T13:06:29.000Z</time>
      </trkpt>
      <trkpt lat="43.60875" lon="6.56534">
        <ele>536.8</ele>
        <time>2021-06-13T13:06:37.000Z</time>
      </trkpt>
      <trkpt lat="43.60867" lon="6.56543">
        <ele>536.8</ele>
        <time>2021-06-13T13:06:44.000Z</time>
      </trkpt>
      <trkpt lat="43.60859" lon="6.56551">
        <ele>536.8</ele>
        <time>2021-06-13T13:06:52.000Z</time>
      </trkpt>
      <trkpt lat="43.60851" lon="6.5656">
        <ele>536.5</ele>
        <time>2021-06-13T13:07:00.000Z</time>
      </trkpt>
      <trkpt lat="43.60844" lon="6.56568">
        <ele>536.6</ele>
        <time>2021-06-13T13:07:08.000Z</time>
      </trkpt>
      <trkpt lat="43.60836" lon="6.56577">
        <ele>536.9</ele>
        <time>2021-06-13T13:07:16.000Z</time>
      </trkpt>
      <trkpt lat="43.60829" lon="6.56586">
        <ele>537</ele>
        <time>2021-06-13T13:07:26.000Z</time>
      </trkpt>
      <trkpt lat="43.6082" lon="6.56594">
        <ele>537</ele>
        <time>2021-06-13T13:07:34.000Z</time>
      </trkpt>
      <trkpt lat="43.60812" lon="6.56601">
        <ele>536.5</ele>
        <time>2021-06-13T13:07:41.000Z</time>
      </trkpt>
      <trkpt lat="43.60803" lon="6.56607">
        <ele>535.9</ele>
        <time>2021-06-13T13:07:49.000Z</time>
      </trkpt>
      <trkpt lat="43.60794" lon="6.5661">
        <ele>535</ele>
        <time>2021-06-13T13:07:57.000Z</time>
      </trkpt>
      <trkpt lat="43.60785" lon="6.56614">
        <ele>534.2</ele>
        <time>2021-06-13T13:08:04.000Z</time>
      </trkpt>
      <trkpt lat="43.60777" lon="6.5662">
        <ele>533.9</ele>
        <time>2021-06-13T13:08:12.000Z</time>
      </trkpt>
      <trkpt lat="43.60768" lon="6.56625">
        <ele>532.9</ele>
        <time>2021-06-13T13:08:20.000Z</time>
      </trkpt>
      <trkpt lat="43.60759" lon="6.5663">
        <ele>532.4</ele>
        <time>2021-06-13T13:08:27.000Z</time>
      </trkpt>
      <trkpt lat="43.60751" lon="6.56635">
        <ele>531.5</ele>
        <time>2021-06-13T13:08:35.000Z</time>
      </trkpt>
      <trkpt lat="43.60743" lon="6.56642">
        <ele>530.5</ele>
        <time>2021-06-13T13:08:42.000Z</time>
      </trkpt>
      <trkpt lat="43.60734" lon="6.56648">
        <ele>529.7</ele>
        <time>2021-06-13T13:08:50.000Z</time>
      </trkpt>
      <trkpt lat="43.60726" lon="6.56656">
        <ele>529.3</ele>
        <time>2021-06-13T13:08:57.000Z</time>
      </trkpt>
      <trkpt lat="43.60718" lon="6.56663">
        <ele>528.5</ele>
        <time>2021-06-13T13:09:05.000Z</time>
      </trkpt>
      <trkpt lat="43.6071" lon="6.56671">
        <ele>527.8</ele>
        <time>2021-06-13T13:09:12.000Z</time>
      </trkpt>
      <trkpt lat="43.60703" lon="6.56678">
        <ele>527.4</ele>
        <time>2021-06-13T13:09:20.000Z</time>
      </trkpt>
      <trkpt lat="43.60695" lon="6.56686">
        <ele>526.8</ele>
        <time>2021-06-13T13:09:28.000Z</time>
      </trkpt>
      <trkpt lat="43.60687" lon="6.56695">
        <ele>526</ele>
        <time>2021-06-13T13:09:36.000Z</time>
      </trkpt>
      <trkpt lat="43.60679" lon="6.56702">
        <ele>525.6</ele>
        <time>2021-06-13T13:09:44.000Z</time>
      </trkpt>
      <trkpt lat="43.60672" lon="6.56712">
        <ele>525.1</ele>
        <time>2021-06-13T13:09:52.000Z</time>
      </trkpt>
      <trkpt lat="43.60664" lon="6.56718">
        <ele>524.9</ele>
        <time>2021-06-13T13:09:59.000Z</time>
      </trkpt>
      <trkpt lat="43.60656" lon="6.56727">
        <ele>523.7</ele>
        <time>2021-06-13T13:10:06.000Z</time>
      </trkpt>
      <trkpt lat="43.60648" lon="6.56736">
        <ele>523.6</ele>
        <time>2021-06-13T13:10:15.000Z</time>
      </trkpt>
      <trkpt lat="43.6064" lon="6.56743">
        <ele>523.3</ele>
        <time>2021-06-13T13:10:23.000Z</time>
      </trkpt>
      <trkpt lat="43.60631" lon="6.5675">
        <ele>522.2</ele>
        <time>2021-06-13T13:10:31.000Z</time>
      </trkpt>
      <trkpt lat="43.60622" lon="6.56757">
        <ele>521.5</ele>
        <time>2021-06-13T13:10:39.000Z</time>
      </trkpt>
      <trkpt lat="43.60615" lon="6.56763">
        <ele>520.7</ele>
        <time>2021-06-13T13:10:47.000Z</time>
      </trkpt>
      <trkpt lat="43.60606" lon="6.56771">
        <ele>520.2</ele>
        <time>2021-06-13T13:10:55.000Z</time>
      </trkpt>
      <trkpt lat="43.60599" lon="6.56779">
        <ele>519</ele>
        <time>2021-06-13T13:11:04.000Z</time>
      </trkpt>
      <trkpt lat="43.60592" lon="6.56789">
        <ele>518.2</ele>
        <time>2021-06-13T13:11:13.000Z</time>
      </trkpt>
      <trkpt lat="43.60586" lon="6.56799">
        <ele>517.4</ele>
        <time>2021-06-13T13:11:20.000Z</time>
      </trkpt>
      <trkpt lat="43.60579" lon="6.56807">
        <ele>516.5</ele>
        <time>2021-06-13T13:11:26.000Z</time>
      </trkpt>
      <trkpt lat="43.60572" lon="6.56815">
        <ele>515.7</ele>
        <time>2021-06-13T13:11:32.000Z</time>
      </trkpt>
      <trkpt lat="43.60566" lon="6.56826">
        <ele>514.8</ele>
        <time>2021-06-13T13:11:40.000Z</time>
      </trkpt>
      <trkpt lat="43.60559" lon="6.56834">
        <ele>513.5</ele>
        <time>2021-06-13T13:11:47.000Z</time>
      </trkpt>
      <trkpt lat="43.60552" lon="6.56842">
        <ele>513</ele>
        <time>2021-06-13T13:11:55.000Z</time>
      </trkpt>
      <trkpt lat="43.60544" lon="6.56849">
        <ele>512.1</ele>
        <time>2021-06-13T13:12:03.000Z</time>
      </trkpt>
      <trkpt lat="43.60535" lon="6.56857">
        <ele>511.3</ele>
        <time>2021-06-13T13:12:11.000Z</time>
      </trkpt>
      <trkpt lat="43.60527" lon="6.56864">
        <ele>510.1</ele>
        <time>2021-06-13T13:12:20.000Z</time>
      </trkpt>
      <trkpt lat="43.6052" lon="6.56872">
        <ele>509.5</ele>
        <time>2021-06-13T13:12:29.000Z</time>
      </trkpt>
      <trkpt lat="43.60513" lon="6.56881">
        <ele>508.3</ele>
        <time>2021-06-13T13:12:38.000Z</time>
      </trkpt>
      <trkpt lat="43.60505" lon="6.56888">
        <ele>507.5</ele>
        <time>2021-06-13T13:12:49.000Z</time>
      </trkpt>
      <trkpt lat="43.60498" lon="6.56897">
        <ele>507.7</ele>
        <time>2021-06-13T13:12:56.000Z</time>
      </trkpt>
      <trkpt lat="43.6049" lon="6.56905">
        <ele>508.3</ele>
        <time>2021-06-13T13:13:05.000Z</time>
      </trkpt>
      <trkpt lat="43.6049" lon="6.56907">
        <ele>508.2</ele>
        <time>2021-06-13T13:13:08.000Z</time>
      </trkpt>
      <trkpt lat="43.60489" lon="6.56908">
        <ele>508.2</ele>
        <time>2021-06-13T13:13:11.000Z</time>
      </trkpt>
      <trkpt lat="43.60484" lon="6.56919">
        <ele>508</ele>
        <time>2021-06-13T13:13:21.000Z</time>
      </trkpt>
      <trkpt lat="43.60478" lon="6.56929">
        <ele>508.1</ele>
        <time>2021-06-13T13:13:30.000Z</time>
      </trkpt>
      <trkpt lat="43.6047" lon="6.56937">
        <ele>507.9</ele>
        <time>2021-06-13T13:13:42.000Z</time>
      </trkpt>
      <trkpt lat="43.60463" lon="6.56946">
        <ele>508.3</ele>
        <time>2021-06-13T13:13:52.000Z</time>
      </trkpt>
      <trkpt lat="43.60456" lon="6.56953">
        <ele>508.3</ele>
        <time>2021-06-13T13:14:01.000Z</time>
      </trkpt>
      <trkpt lat="43.60453" lon="6.56959">
        <ele>508.2</ele>
        <time>2021-06-13T13:14:14.000Z</time>
      </trkpt>
      <trkpt lat="43.60454" lon="6.56959">
        <ele>508.2</ele>
        <time>2021-06-13T13:14:16.000Z</time>
      </trkpt>
    </trkseg>
  </trk>
</gpx>